[[{"header":{"parameterUnit":"m.s-1","parameterCategory":1,"la1":30.6,"la2":28.766,"lo1":-90.7593,"lo2":-88.6598,"dy":0.0162,"dx":0.0183,"nx":116,"ny":114,"refTime":"2023-08-24T00:00:00:Z","depth":0,"parameterNumber":2,"parameterNumberName":"U-component_of_WINDS"},"data":[0.0,0.0,0.0,0.0,0.0,0.0,0.0,0.0,0.0,0.0,0.0,0.0,0.0,0.0,0.0,0.0,0.0,0.0,0.0,0.0,0.0,0.0,0.0,0.0,0.0,0.0,0.0,0.0,0.0,0.0,0.0,0.0,0.0,0.0,0.0,0.0,0.0,0.0,0.0,0.0,0.0,0.0,0.0,0.0,0.0,0.0,0.0,0.0,0.0,0.0,0.0,0.0,0.0,0.0,0.0,0.0,0.0,0.0,0.0,0.0,0.0,0.0,0.0,0.0,0.0,0.0,0.0,0.0,0.0,0.0,0.0,0.0,0.0,0.0,0.0,0.0,0.0,0.0,0.0,0.0,0.0,0.0,0.0,0.0,0.0,0.0,0.0,0.0,0.0,0.0,0.0,0.0,0.0,0.0,0.0,0.0,0.0,0.0,0.0,0.0,0.0,0.0,0.0,0.0,0.0,0.0,0.0,0.0,0.0,0.0,0.0,0.0,0.0,0.0,0.0,0.0,0.0,0.0,0.0,0.0,0.0,0.0,0.0,0.0,0.0,0.0,0.0,0.0,0.0,0.0,0.0,0.0,0.0,0.0,0.0,0.0,0.0,0.0,0.0,0.0,0.0,0.0,0.0,0.0,0.0,0.0,0.0,0.0,0.0,0.0,0.0,0.0,0.0,0.0,0.0,0.0,0.0,0.0,0.0,0.0,0.0,0.0,0.0,0.0,0.0,0.0,0.0,0.0,0.0,0.0,0.0,0.0,0.0,0.0,0.0,0.0,0.0,0.0,0.0,0.0,0.0,0.0,0.0,0.0,0.0,0.0,0.0,0.0,0.0,0.0,0.0,0.0,0.0,0.0,0.0,0.0,0.0,0.0,0.0,0.0,0.0,0.0,0.0,0.0,0.0,0.0,0.0,0.0,0.0,0.0,0.0,0.0,0.0,0.0,0.0,0.0,0.0,0.0,0.0,0.0,0.0,0.0,0.0,0.0,0.0,0.0,0.0,0.0,0.0,0.0,0.0,0.0,0.0,0.0,0.0,0.0,0.0,0.0,0.0,0.0,0.0,0.0,0.0,0.0,0.0,0.0,0.0,0.0,0.0,0.0,0.0,0.0,0.0,0.0,0.0,0.0,0.0,0.0,0.0,0.0,0.0,0.0,0.0,0.0,0.0,0.0,0.0,0.0,0.0,0.0,0.0,0.0,0.0,0.0,0.0,0.0,0.0,0.0,0.0,0.0,0.0,0.0,0.0,0.0,0.0,0.0,0.0,0.0,0.0,0.0,0.0,0.0,0.0,0.0,0.0,0.0,0.0,0.0,0.0,0.0,0.0,0.0,0.0,0.0,0.0,0.0,0.0,0.0,0.0,0.0,0.0,0.0,0.0,0.0,0.0,0.0,0.0,0.0,0.0,0.0,0.0,0.0,0.0,0.0,0.0,0.0,0.0,0.0,0.0,0.0,0.0,0.0,0.0,0.0,0.0,0.0,0.0,0.0,0.0,0.0,0.0,0.0,0.0,0.0,0.0,0.0,0.0,0.0,0.0,0.0,0.0,0.0,0.0,0.0,0.0,0.0,0.0,0.0,0.0,0.0,0.0,0.0,0.0,0.0,0.0,0.0,0.0,0.0,0.0,0.0,0.0,0.0,0.0,0.0,0.0,0.0,0.0,0.0,0.0,0.0,0.0,0.0,0.0,0.0,0.0,0.0,0.0,0.0,0.0,0.0,0.0,0.0,0.0,0.0,0.0,0.0,0.0,0.0,0.0,0.0,0.0,0.0,0.0,0.0,0.0,0.0,0.0,0.0,0.0,0.0,0.0,0.0,0.0,0.0,0.0,0.0,0.0,0.0,0.0,0.0,0.0,0.0,0.0,0.0,0.0,0.0,0.0,0.0,0.0,0.0,0.0,0.0,0.0,0.0,0.0,0.0,0.0,0.0,0.0,0.0,0.0,0.0,0.0,0.0,0.0,0.0,0.0,0.0,0.0,0.0,0.0,0.0,0.0,0.0,0.0,0.0,0.0,0.0,0.0,0.0,0.0,0.0,0.0,0.0,0.0,0.0,0.0,0.0,0.0,0.0,0.0,0.0,0.0,0.0,0.0,0.0,0.0,0.0,0.0,0.0,0.0,0.0,0.0,0.0,0.0,0.0,0.0,0.0,0.0,0.0,0.0,0.0,0.0,0.0,0.0,0.0,0.0,0.0,0.0,0.0,0.0,0.0,0.0,0.0,0.0,0.0,0.0,0.0,0.0,0.0,0.0,0.0,0.0,0.0,0.0,0.0,0.0,0.0,0.0,0.0,0.0,0.0,0.0,0.0,0.0,0.0,0.0,0.0,0.0,0.0,0.0,0.0,0.0,0.0,0.0,0.0,0.0,0.0,0.0,0.0,0.0,0.0,0.0,0.0,0.0,0.0,0.0,0.0,0.0,0.0,0.0,0.0,0.0,0.0,0.0,0.0,0.0,0.0,0.0,0.0,0.0,0.0,0.0,0.0,0.0,0.0,0.0,0.0,0.0,0.0,0.0,0.0,0.0,0.0,0.0,0.0,0.0,0.0,0.0,0.0,0.0,0.0,0.0,0.0,0.0,0.0,0.0,0.0,0.0,0.0,0.0,0.0,0.0,0.0,0.0,0.0,0.0,0.0,0.0,0.0,0.0,0.0,0.0,0.0,0.0,0.0,0.0,0.0,0.0,0.0,0.0,0.0,0.0,0.0,0.0,0.0,0.0,0.0,0.0,0.0,0.0,0.0,0.0,0.0,0.0,0.0,0.0,0.0,0.0,0.0,0.0,0.0,0.0,0.0,0.0,0.0,0.0,0.0,0.0,0.0,0.0,0.0,0.0,0.0,0.0,0.0,0.0,0.0,0.0,0.0,0.0,0.0,0.0,0.0,0.0,0.0,0.0,0.0,0.0,0.0,0.0,0.0,0.0,0.0,0.0,0.0,0.0,0.0,0.0,0.0,0.0,0.0,0.0,0.0,0.0,0.0,0.0,0.0,0.0,0.0,0.0,0.0,0.0,0.0,0.0,0.0,0.0,0.0,0.0,0.0,0.0,0.0,0.0,0.0,0.0,0.0,0.0,0.0,0.0,0.0,0.0,0.0,0.0,0.0,0.0,0.0,0.0,0.0,0.0,0.0,0.0,0.0,0.0,0.0,0.0,0.0,0.0,0.0,0.0,0.0,0.0,0.0,0.0,0.0,0.0,0.0,0.0,0.0,0.0,0.0,0.0,0.0,0.0,0.0,0.0,0.0,0.0,0.0,0.0,0.0,0.0,0.0,0.0,0.0,0.0,0.0,0.0,0.0,0.0,0.0,0.0,0.0,0.0,0.0,0.0,0.0,0.0,0.0,0.0,0.0,0.0,0.0,0.0,0.0,0.0,0.0,0.0,0.0,0.0,0.0,0.0,0.0,0.0,0.0,0.0,0.0,0.0,0.0,0.0,0.0,0.0,0.0,0.0,0.0,0.0,0.0,0.0,0.0,0.0,0.0,0.0,0.0,0.0,0.0,0.0,0.0,0.0,0.0,0.0,0.0,0.0,0.0,0.0,0.0,0.0,0.0,0.0,0.0,0.0,0.0,0.0,0.0,0.0,0.0,0.0,0.0,0.0,0.0,0.0,0.0,0.0,0.0,0.0,0.0,0.0,0.0,0.0,0.0,0.0,0.0,0.0,0.0,0.0,0.0,0.0,0.0,0.0,0.0,0.0,0.0,0.0,0.0,0.0,0.0,0.0,0.0,0.0,0.0,0.0,0.0,0.0,0.0,0.0,0.0,0.0,0.0,0.0,0.0,0.0,0.0,0.0,0.0,0.0,0.0,0.0,0.0,0.0,0.0,0.0,0.0,0.0,0.0,0.0,0.0,0.0,0.0,0.0,0.0,0.0,0.0,0.0,0.0,0.0,0.0,0.0,0.0,0.0,0.0,0.0,0.0,0.0,0.0,0.0,0.0,0.0,0.0,0.0,0.0,0.0,0.0,0.0,0.0,0.0,0.0,0.0,0.0,0.0,0.0,0.0,0.0,0.0,0.0,0.0,0.0,0.0,0.0,0.0,0.0,0.0,0.0,0.0,0.0,0.0,0.0,0.0,0.0,0.0,0.0,0.0,0.0,0.0,0.0,0.0,0.0,0.0,0.0,0.0,0.0,0.0,0.0,0.0,0.0,0.0,0.0,0.0,0.0,0.0,0.0,0.0,0.0,0.0,0.0,0.0,0.0,0.0,0.0,0.0,0.0,0.0,0.0,0.0,0.0,0.0,0.0,0.0,0.0,0.0,0.0,0.0,0.0,0.0,0.0,0.0,0.0,0.0,0.0,0.0,0.0,0.0,0.0,0.0,0.0,0.0,0.0,0.0,0.0,0.0,0.0,0.0,0.0,0.0,0.0,0.0,0.0,0.0,0.0,0.0,0.0,0.0,0.0,0.0,0.0,0.0,0.0,0.0,0.0,0.0,0.0,0.0,0.0,0.0,0.0,0.0,0.0,0.0,0.0,0.0,0.0,0.0,0.0,0.0,0.0,0.0,0.0,0.0,0.0,0.0,0.0,0.0,0.0,0.0,0.0,0.0,0.0,0.0,0.0,0.0,0.0,0.0,0.0,0.0,0.0,0.0,0.0,0.0,0.0,0.0,0.0,0.0,0.0,0.0,0.0,0.0,0.0,0.0,0.0,0.0,0.0,0.0,0.0,0.0,0.0,0.0,0.0,0.0,0.0,0.0,0.0,0.0,0.0,0.0,0.0,0.0,0.0,0.0,0.0,0.0,0.0,0.0,0.0,0.0,0.0,0.0,0.0,0.0,0.0,0.0,0.0,0.0,0.0,0.0,0.0,0.0,0.0,0.0,0.0,0.0,0.0,0.0,0.0,0.0,0.0,0.0,0.0,0.0,0.0,0.0,0.0,0.0,0.0,0.0,0.0,0.0,0.0,0.0,0.0,0.0,0.0,0.0,0.0,0.0,0.0,0.0,0.0,0.0,0.0,0.0,0.0,0.0,0.0,0.0,0.0,0.0,0.0,0.0,0.0,0.0,0.0,0.0,0.0,0.0,0.0,0.0,0.0,0.0,0.0,0.0,0.0,0.0,0.0,0.0,0.0,0.0,0.0,0.0,0.0,0.0,0.0,0.0,0.0,0.0,0.0,0.0,0.0,0.0,0.0,0.0,0.0,0.0,0.0,0.0,0.0,0.0,0.0,0.0,0.0,0.0,0.0,0.0,0.0,0.0,0.0,0.0,0.0,0.0,0.0,0.0,0.0,0.0,0.0,0.0,0.0,0.0,0.0,0.0,0.0,0.0,0.0,0.0,0.0,0.0,0.0,0.0,0.0,0.0,0.0,0.0,0.0,0.0,0.0,0.0,0.0,0.0,0.0,0.0,0.0,0.0,0.0,0.0,0.0,0.0,0.0,0.0,0.0,0.0,0.0,0.0,0.0,0.0,0.0,0.0,0.0,0.0,0.0,0.0,0.0,0.0,0.0,0.0,0.0,0.0,0.0,0.0,0.0,0.0,0.0,0.0,0.0,0.0,0.0,0.0,0.0,0.0,0.0,0.0,0.0,0.0,0.0,0.0,0.0,0.0,0.0,0.0,0.0,0.0,0.0,0.0,0.0,0.0,0.0,0.0,0.0,0.0,0.0,0.0,0.0,0.0,0.0,0.0,0.0,0.0,0.0,0.0,0.0,0.0,0.0,0.0,0.0,0.0,0.0,0.0,0.0,0.0,0.0,0.0,0.0,0.0,0.0,0.0,0.0,0.0,0.0,0.0,0.0,0.0,0.0,0.0,0.0,0.0,0.0,0.0,0.0,0.0,0.0,0.0,0.0,0.0,0.0,0.0,0.0,0.0,0.0,0.0,0.0,0.0,0.0,0.0,0.0,0.0,0.0,0.0,0.0,0.0,0.0,0.0,0.0,0.0,0.0,0.0,0.0,0.0,0.0,0.0,0.0,0.0,0.0,0.0,0.0,0.0,0.0,0.0,0.0,0.0,0.0,0.0,0.0,0.0,0.0,0.0,0.0,0.0,0.0,0.0,0.0,0.0,0.0,0.0,0.0,0.0,0.0,0.0,0.0,0.0,0.0,0.0,0.0,0.0,0.0,0.0,0.0,-2.5845,0.0,0.0,0.0,0.0,0.0,0.0,0.0,0.0,0.0,0.0,0.0,0.0,0.0,0.0,0.0,0.0,0.0,0.0,0.0,0.0,0.0,0.0,0.0,0.0,0.0,0.0,0.0,0.0,0.0,0.0,0.0,0.0,0.0,0.0,0.0,0.0,0.0,0.0,0.0,-2.3274,-2.3008,-2.2434,-2.3897,-2.58,-2.7938,0.0,0.0,0.0,0.0,0.0,0.0,0.0,0.0,0.0,0.0,0.0,0.0,0.0,0.0,0.0,0.0,0.0,0.0,0.0,0.0,0.0,0.0,0.0,0.0,0.0,0.0,0.0,0.0,0.0,0.0,0.0,0.0,0.0,0.0,0.0,0.0,0.0,0.0,0.0,0.0,0.0,0.0,0.0,0.0,0.0,0.0,0.0,0.0,0.0,0.0,0.0,0.0,0.0,0.0,0.0,0.0,0.0,0.0,0.0,0.0,0.0,0.0,0.0,0.0,0.0,0.0,0.0,0.0,0.0,0.0,0.0,-2.6023,0.0,0.0,0.0,0.0,0.0,0.0,0.0,0.0,0.0,0.0,0.0,0.0,0.0,0.0,0.0,0.0,0.0,0.0,0.0,0.0,0.0,0.0,0.0,-2.1663,-2.1852,-2.2314,-2.1882,-2.1583,0.0,0.0,0.0,0.0,0.0,0.0,0.0,-2.2562,-2.2984,-2.3301,-2.2135,-2.1727,-2.2035,-2.2999,-2.4709,-2.696,-2.678,0.0,0.0,0.0,0.0,0.0,0.0,0.0,0.0,0.0,0.0,0.0,0.0,0.0,0.0,0.0,0.0,0.0,0.0,0.0,0.0,0.0,0.0,0.0,0.0,0.0,0.0,0.0,0.0,0.0,0.0,0.0,0.0,0.0,0.0,0.0,0.0,0.0,0.0,0.0,0.0,0.0,0.0,0.0,0.0,0.0,0.0,0.0,0.0,0.0,0.0,0.0,0.0,0.0,0.0,0.0,0.0,0.0,0.0,0.0,0.0,0.0,0.0,0.0,-3.416,-3.4238,-3.4082,-3.4082,-3.3164,-3.1426,-2.9121,-2.7363,-2.6133,-2.5925,0.0,0.0,0.0,0.0,0.0,0.0,0.0,0.0,0.0,0.0,0.0,0.0,0.0,0.0,0.0,0.0,0.0,0.0,0.0,0.0,0.0,-2.139,-2.152,-2.1091,-2.1014,-2.099,-2.0945,0.0,0.0,0.0,0.0,0.0,-2.334,-2.343,-2.3022,-2.2105,-2.0896,-2.1024,-2.2511,-2.2489,-2.3337,-2.4786,-2.4387,-2.4766,-2.5757,0.0,0.0,0.0,0.0,0.0,0.0,0.0,0.0,0.0,0.0,0.0,0.0,0.0,0.0,0.0,0.0,0.0,0.0,0.0,0.0,0.0,0.0,0.0,0.0,0.0,0.0,0.0,0.0,0.0,0.0,0.0,0.0,0.0,0.0,0.0,0.0,0.0,0.0,0.0,0.0,0.0,-2.5914,-2.5952,0.0,0.0,0.0,0.0,0.0,0.0,0.0,0.0,0.0,0.0,0.0,0.0,0.0,-3.2617,-3.2734,-3.5098,-3.6074,-3.5684,-3.7187,-3.7519,-3.6797,-3.6797,-3.584,-3.4141,-3.3027,0.0,-2.789,-2.7079,0.0,0.0,0.0,0.0,0.0,0.0,0.0,0.0,0.0,0.0,0.0,0.0,0.0,0.0,0.0,0.0,0.0,0.0,0.0,0.0,0.0,-2.067,-2.067,-2.0795,-2.1059,-2.0818,-1.9825,-2.1013,0.0,0.0,0.0,-2.2637,-2.2532,-2.2892,-2.2482,-2.126,-2.1008,-2.1263,-2.1966,-2.2217,-2.2761,-2.3657,-2.3171,-2.3879,-2.542,-2.5207,0.0,0.0,0.0,0.0,0.0,0.0,0.0,0.0,0.0,0.0,0.0,0.0,0.0,0.0,0.0,0.0,0.0,0.0,0.0,0.0,0.0,0.0,0.0,0.0,0.0,0.0,0.0,0.0,0.0,0.0,0.0,0.0,0.0,0.0,0.0,0.0,0.0,0.0,0.0,-2.6598,-2.7963,-2.6638,-2.8587,-2.9313,0.0,0.0,0.0,0.0,0.0,0.0,0.0,0.0,0.0,-3.3556,-3.475,-3.5398,-3.5422,-3.7081,-3.8227,-3.8815,-3.9159,-3.9394,-3.9473,-3.8984,-3.7812,-3.6113,-3.5234,-3.3457,-3.0996,-2.865,-2.6871,-2.5637,0.0,0.0,0.0,0.0,-2.5206,-2.5822,0.0,0.0,0.0,0.0,0.0,0.0,0.0,0.0,0.0,0.0,0.0,0.0,-2.0322,-1.9693,-1.951,-2.0242,-2.0319,-1.9953,-1.9145,-2.0313,-2.0538,-1.9401,-2.1336,-2.2304,-2.1964,-2.2271,-2.1901,-2.0797,-2.131,-2.1696,-2.192,-2.2485,-2.3037,-2.3552,-2.3292,-2.3905,-2.5075,-2.4718,-2.3778,-2.2592,0.0,0.0,0.0,0.0,0.0,0.0,0.0,0.0,0.0,0.0,0.0,0.0,0.0,0.0,0.0,0.0,0.0,0.0,0.0,0.0,0.0,0.0,0.0,0.0,0.0,0.0,0.0,0.0,0.0,0.0,0.0,0.0,0.0,0.0,0.0,0.0,0.0,-2.8583,-2.9934,-2.7514,-3.0448,-3.1583,0.0,0.0,0.0,0.0,0.0,0.0,-3.3048,-3.4151,-3.5422,-3.6956,-3.78,-3.8255,-3.8311,-3.9032,-4.0051,-4.1328,-4.1012,-4.1094,-4.1484,-4.1074,-3.9805,-3.793,-3.7031,-3.5684,-3.3809,-3.0371,-2.8066,-2.666,-2.6328,-2.6197,-2.615,-2.5812,-2.6269,-2.6903,0.0,0.0,0.0,0.0,0.0,0.0,0.0,0.0,0.0,0.0,0.0,-1.8502,-1.9357,-1.8412,-1.8059,-1.8932,-1.7811,-1.7688,-1.9187,-1.8131,-1.8394,-2.0525,-2.1327,-2.2017,-2.2622,-2.2067,-2.1445,-2.0805,-2.1256,-2.1995,-2.3002,-2.364,-2.4205,-2.4732,-2.5392,-2.5081,-2.3976,-2.2388,-2.197,-2.2391,-2.1767,0.0,0.0,0.0,0.0,0.0,0.0,0.0,0.0,0.0,0.0,0.0,0.0,0.0,0.0,0.0,0.0,0.0,0.0,0.0,0.0,0.0,0.0,0.0,0.0,0.0,0.0,0.0,0.0,0.0,0.0,0.0,0.0,0.0,0.0,0.0,0.0,0.0,0.0,-2.9275,-3.2718,0.0,0.0,0.0,0.0,-3.2596,-3.4313,-3.5678,-3.6519,-3.8229,-3.9604,-4.0507,-4.139,-4.1846,-4.1835,-4.2031,-4.2143,-4.2249,-4.3102,-4.3105,-4.2363,-4.3144,-4.2148,-3.9726,-3.8848,-3.748,-3.5605,-3.2187,-3.0234,-2.9316,-2.8405,-2.8062,-2.7962,-2.7063,-2.7274,-2.778,0.0,0.0,0.0,0.0,0.0,0.0,0.0,0.0,-1.7375,-1.8103,-1.7751,-1.7966,-1.9246,-1.8611,-1.8258,-1.8855,-1.863,-1.8519,-1.8833,-1.8474,-1.8699,-1.9591,-2.0224,-2.0837,-2.1481,-2.1246,-2.1166,-2.1261,-2.2089,-2.3125,-2.423,-2.477,-2.5335,-2.5862,-2.5777,-2.5445,-2.4947,-2.3759,-2.3178,-2.2933,-2.1499,-2.1358,0.0,0.0,0.0,0.0,0.0,0.0,0.0,0.0,0.0,0.0,0.0,0.0,0.0,0.0,0.0,0.0,0.0,0.0,0.0,0.0,0.0,0.0,0.0,0.0,0.0,0.0,0.0,0.0,0.0,0.0,0.0,0.0,0.0,0.0,0.0,0.0,0.0,-3.4103,-3.7276,0.0,-3.5565,-3.5085,-3.5277,-3.6122,-3.6813,-3.8016,-3.9909,-4.1161,-4.2444,-4.3849,-4.4177,-4.3824,-4.2742,-4.2826,-4.2633,-4.2163,-4.2034,-4.2122,-4.2383,-4.2187,-4.0976,-3.9043,-3.873,-3.7617,-3.5859,-3.4082,-3.2539,-3.1113,-2.9617,-2.9042,-2.892,-2.7983,-2.8221,-2.875,0.0,0.0,0.0,0.0,0.0,0.0,0.0,0.0,-1.7282,-1.7874,-1.7267,-1.7345,-1.8823,-1.8132,-1.776,-1.8328,-1.8316,-1.8293,-1.8224,-1.8123,-1.8251,-1.8713,-1.9659,-2.0337,-2.0533,-2.1272,-2.1616,-2.1495,-2.2774,-2.3991,-2.5096,-2.5435,-2.6,-2.6716,-2.6138,-2.5887,-2.5854,-2.5275,-2.4503,-2.3635,-2.2366,-2.2757,-2.39,0.0,0.0,0.0,0.0,0.0,0.0,0.0,0.0,0.0,0.0,0.0,0.0,0.0,0.0,0.0,0.0,0.0,0.0,0.0,0.0,0.0,0.0,0.0,0.0,0.0,0.0,0.0,0.0,0.0,0.0,0.0,0.0,0.0,0.0,0.0,-3.7777,-3.7219,-4.0162,-4.1239,-3.8681,-3.843,-3.8777,-3.9662,-3.9969,-4.0989,-4.2989,-4.3624,-4.4451,-4.5547,-4.5586,-4.4797,-4.3124,-4.3167,-4.269,-4.1665,-4.1515,-4.1624,-4.1992,-4.1719,-4.0664,-3.9023,-3.873,-3.7773,-3.6367,-3.5508,-3.4473,-3.3281,-3.1226,-3.0226,-2.9892,-2.9269,-2.943,-2.9718,0.0,0.0,0.0,0.0,0.0,0.0,0.0,-1.8494,-1.8022,-1.751,-1.6716,-1.6726,-1.8012,-1.6974,-1.653,-1.7331,-1.6809,-1.6698,-1.7457,-1.6822,-1.6913,-1.8131,-1.9831,-2.0528,-2.0043,-2.2168,-2.2687,-2.1568,-2.3213,-2.4569,-2.5624,-2.5636,-2.6239,-2.7281,-2.6753,-2.6584,-2.6584,-2.6584,-2.582,-2.4571,-2.4416,-2.537,-2.6628,0.0,0.0,0.0,0.0,0.0,0.0,0.0,0.0,0.0,0.0,0.0,0.0,0.0,0.0,0.0,0.0,0.0,0.0,0.0,0.0,0.0,0.0,0.0,0.0,0.0,0.0,0.0,0.0,0.0,0.0,0.0,0.0,0.0,-3.4293,-3.793,-3.995,-3.8373,-4.1143,-4.22,-3.9738,-4.0969,-4.2277,-4.3104,-4.3893,-4.4701,-4.5547,-4.5586,-4.5586,-4.5586,-4.5566,-4.4759,-4.3124,-4.3134,-4.2349,-4.0821,-4.1788,-4.1878,-4.1191,-4.1973,-4.1406,-3.9766,-3.8926,-3.8066,-3.7187,-3.6348,-3.5976,-3.5703,-3.3203,-3.1719,-3.0976,-3.0918,-3.0879,-3.0625,0.0,0.0,0.0,0.0,0.0,0.0,0.0,-1.9147,-1.8479,-1.8026,-1.7672,-1.7685,-1.8367,-1.7978,-1.7728,-1.7878,-1.7143,-1.6946,-1.7594,-1.6491,-1.6405,-1.7763,-1.8744,-1.9707,-2.0677,-2.1568,-2.2452,-2.3314,-2.4167,-2.5159,-2.6239,-2.6628,-2.7205,-2.7871,-2.772,-2.7657,-2.7657,-2.7657,-2.8222,-2.8899,-2.7026,-2.6578,-2.6946,0.0,0.0,0.0,0.0,0.0,0.0,0.0,0.0,0.0,0.0,0.0,0.0,0.0,0.0,0.0,0.0,0.0,0.0,0.0,0.0,0.0,0.0,0.0,0.0,0.0,0.0,0.0,0.0,0.0,0.0,0.0,0.0,-3.6578,-3.7732,-3.9931,-4.172,-4.247,-4.3951,-4.4643,-4.3932,-4.4278,-4.4643,-4.4893,-4.5105,-4.5336,-4.5586,-4.5586,-4.5586,-4.5586,-4.4989,-4.4162,-4.3104,-4.2479,-4.1719,-4.0801,-4.1084,-4.0886,-4.0254,-4.0488,-3.9648,-3.8008,-3.7754,-3.7168,-3.6348,-3.6094,-3.5625,-3.4922,-3.3594,-3.293,-3.2578,-3.1348,-3.0508,-2.9883,0.0,0.0,0.0,0.0,0.0,0.0,0.0,-1.9581,-1.8822,-1.7942,-1.7683,-1.7652,-1.7875,-1.7736,-1.7579,-1.7467,-1.7283,-1.7151,-1.7149,-1.6515,-1.6571,-1.747,-1.8517,-1.9762,-2.1244,-2.1692,-2.2738,-2.4343,-2.4883,-2.5711,-2.6816,-2.7369,-2.7921,-2.8448,-2.821,-2.8109,-2.8122,-2.8348,-2.907,-2.9984,-2.9506,-2.9699,-3.0075,-2.8723,-2.8338,-2.8338,-2.7141,-2.7006,-2.7275,-2.6213,0.0,0.0,0.0,0.0,0.0,0.0,0.0,0.0,0.0,0.0,0.0,0.0,0.0,0.0,0.0,0.0,0.0,0.0,0.0,0.0,0.0,0.0,0.0,0.0,-3.7486,-3.9311,-4.0958,-4.2134,-4.3335,-4.4682,-4.5278,-4.5586,-4.5586,-4.5586,-4.5586,-4.5586,-4.5586,-4.5586,-4.5586,-4.5586,-4.5586,-4.5586,-4.5105,-4.4278,-4.3104,-4.2604,-4.1815,-4.0801,-4.0462,-4.0164,-3.9883,-3.9512,-3.8594,-3.7305,-3.7305,-3.6816,-3.5996,-3.5996,-3.5703,0.0,0.0,0.0,0.0,0.0,-3.0351,-2.9551,0.0,0.0,0.0,0.0,0.0,0.0,0.0,-1.9928,-1.9119,-1.7572,-1.7273,-1.7143,-1.699,-1.6774,-1.6714,-1.6714,-1.7248,-1.7211,-1.6421,-1.6746,-1.7117,-1.7387,-1.8824,-2.0266,-2.1661,-2.2186,-2.3149,-2.4657,-2.5249,-2.6127,-2.7239,-2.7861,-2.8499,-2.9001,-2.8511,-2.8298,-2.8323,-2.8812,-2.9126,-2.9428,-3.178,-3.3246,-3.3832,-3.1676,-3.1495,-3.2168,-3.0342,-2.9415,-2.8921,-2.8158,0.0,0.0,0.0,0.0,0.0,0.0,0.0,0.0,0.0,0.0,0.0,0.0,0.0,0.0,0.0,0.0,0.0,0.0,0.0,0.0,0.0,0.0,0.0,0.0,-4.0265,-4.1707,-4.3681,-4.4231,-4.472,-4.5509,-4.5586,-4.5586,-4.5586,-4.5586,-4.5586,-4.5586,-4.5586,-4.5586,-4.5586,0.0,0.0,0.0,0.0,-4.4605,-4.3104,-4.2912,-4.2124,-4.0801,-3.9976,-3.9716,-3.9863,-3.9004,-3.8184,-3.7441,-3.7344,-3.6855,-3.6133,-3.6035,-3.5996,-3.5898,-3.4922,-3.3594,-3.209,-3.1211,-3.041,-2.9648,0.0,0.0,0.0,0.0,0.0,0.0,0.0,-2.042,-1.9581,-1.8118,-1.7996,-1.781,-1.7364,-1.7279,-1.7247,-1.7247,-1.6934,-1.6764,-1.6797,-1.7069,-1.7518,-1.8082,-1.9228,-2.0371,-2.1424,-2.1851,-2.2627,-2.375,-2.4649,-2.5673,-2.6769,-2.8114,-2.9076,-2.9616,-2.9515,-2.9465,-2.9478,-2.9578,-3.0292,-3.1494,-3.2845,-3.2597,-3.1471,-3.2514,-3.2422,-3.1541,-3.0672,-3.0941,-3.1569,-3.0357,-3.0576,-3.1257,-3.0608,-2.9532,0.0,0.0,0.0,0.0,0.0,0.0,0.0,0.0,0.0,0.0,0.0,0.0,0.0,0.0,0.0,0.0,0.0,0.0,0.0,-3.976,-4.1123,-4.2579,-4.4557,-4.5151,-4.5413,-4.5566,-4.5586,-4.5586,-4.5586,-4.5586,-4.5586,-4.5586,-4.5586,-4.5586,-4.5586,-4.5586,-4.5586,-4.5586,-4.4278,-4.3431,-4.3104,-4.17,-4.0926,-4.0801,0.0,0.0,-3.9863,-3.9004,-3.8516,-3.8301,-3.7617,-3.7207,-3.6992,-3.6289,-3.5973,-3.5762,-3.4256,-3.3066,-3.209,-3.1211,-3.0781,-3.0625,0.0,0.0,0.0,0.0,0.0,0.0,0.0,-2.0553,-1.9672,-1.8274,-1.7894,-1.7561,-1.6992,-1.6948,-1.6948,-1.6948,-1.6685,-1.6703,-1.718,-1.7434,-1.7828,-1.8449,-1.9354,-2.0493,-2.1681,-2.1602,-2.2204,-2.3514,-2.4798,-2.5838,-2.6614,-2.8472,-2.9515,-2.9792,-3.0279,-3.0649,-3.1009,-3.092,-3.1525,-3.2537,-3.326,-3.2894,-3.2221,-3.4208,-3.4382,-3.3469,-3.3125,-3.3006,-3.2901,-3.2228,-3.1953,-3.1936,-3.1915,-3.1101,-3.0092,0.0,0.0,0.0,0.0,0.0,0.0,0.0,0.0,0.0,0.0,0.0,0.0,0.0,0.0,-3.4861,0.0,0.0,-4.0112,-4.2216,-4.369,-4.4619,-4.4806,-4.5666,-4.6086,-4.5643,-4.5586,-4.5586,-4.5586,-4.5586,-4.5586,-4.5586,-4.5586,-4.5586,-4.5586,-4.5586,-4.5586,-4.5586,-4.4355,-4.3508,-4.3104,-4.1797,-4.1023,-4.0801,-3.9976,-3.9716,-3.9863,-3.8921,-3.8272,-3.7901,-3.7822,-3.7558,-3.7113,-3.668,-3.6216,-3.569,-3.4429,-3.3453,-3.2609,-3.1366,-3.0898,-3.084,0.0,0.0,0.0,0.0,0.0,0.0,0.0,-2.0471,-1.9516,-1.8104,-1.7368,-1.6811,-1.6367,-1.6237,-1.623,-1.6316,-1.6459,-1.6842,-1.7673,-1.808,-1.8443,-1.8834,-1.9816,-2.0742,-2.16,-2.1257,-2.1861,-2.3364,-2.49,-2.6095,-2.6856,-2.8818,-2.9856,-3.0139,-3.0833,-3.166,-3.2431,-3.2342,-3.2675,-3.3349,-3.3729,-3.3834,-3.3882,-3.581,-3.6073,-3.5474,-3.5205,-3.4262,-3.314,-3.326,-3.2422,-3.1498,-3.2557,-3.2187,-3.1197,-3.053,-2.9127,0.0,0.0,0.0,0.0,0.0,0.0,0.0,0.0,0.0,-3.1867,-3.3474,-3.5095,-3.7078,-3.9833,-4.1196,-4.2537,-4.4619,-4.6122,-4.6485,-4.5032,-4.602,-4.6586,-4.5701,-4.5586,-4.5586,-4.5586,-4.5586,-4.5586,-4.5586,-4.5586,-4.5586,-4.5586,-4.5586,-4.5586,-4.5586,-4.4605,-4.3758,-4.3104,-4.2066,-4.1299,-4.0768,-3.9943,-3.9747,-4.0033,-3.9064,-3.8361,-3.7912,-3.8371,-3.8062,-3.7233,-3.707,-3.6577,-3.583,-3.4873,-3.4088,-3.3317,-3.1885,-3.1288,-3.1055,0.0,0.0,0.0,0.0,0.0,0.0,0.0,0.0,-1.8973,-1.7478,-1.6409,-1.5764,-1.572,-1.5293,-1.5199,-1.574,-1.6233,-1.7073,-1.8372,-1.9294,-1.9756,-1.9781,-2.1032,-2.1271,-2.0131,-2.0466,-2.146,-2.2977,-2.4525,-2.6039,-2.7418,-2.908,-3.0203,-3.1044,-3.118,-3.2005,-3.3431,-3.3431,-3.3776,-3.4327,-3.5293,-3.5339,-3.4866,-3.6043,-3.6073,-3.5355,-3.4143,-3.2871,-3.1839,-3.2422,-3.1734,-3.1071,-3.3556,-3.2902,-3.1214,-3.1115,0.0,-2.7755,-2.7587,-2.7654,0.0,-3.1123,-3.0869,-3.1343,0.0,0.0,-3.6637,-3.8802,-3.9761,-4.0739,-4.2334,-4.3166,-4.4098,-4.5535,-4.6477,-4.6693,-4.5779,-4.6383,-4.6586,-4.5701,-4.5586,-4.5586,-4.5586,-4.5586,-4.5586,-4.5586,-4.5586,-4.5586,-4.5586,-4.5586,-4.5586,-4.5586,-4.4066,-4.3181,-4.3104,-4.147,-4.0684,-4.0707,-3.9843,-3.9869,-4.0675,-3.9843,-3.9816,-4.0369,-3.9723,-3.8957,-3.8093,-3.7323,-3.6906,-3.661,-3.5096,-3.4361,-3.4089,-3.3332,-3.2627,-3.2031,0.0,0.0,0.0,0.0,0.0,0.0,0.0,0.0,0.0,-1.8293,-1.7233,-1.6459,-1.6139,-1.5911,-1.5874,-1.6128,-1.6384,-1.695,-1.8012,-1.8975,-1.9881,-2.063,-2.1745,-2.2261,-2.1967,-2.2498,-2.3068,-2.3722,-2.5592,-2.6889,-2.7502,-2.9118,-3.0279,-3.1254,-3.1742,-3.3132,-3.4995,-3.4937,-3.5291,-3.5815,-3.5913,-3.5497,-3.4934,-3.5251,-3.4666,-3.3694,-3.3125,-3.1839,0.0,-3.0717,-3.0178,-2.9803,-3.2092,-3.1869,-3.0699,-3.0597,-3.0192,0.0,-3.1219,0.0,0.0,0.0,-3.4354,-3.5182,-3.7246,-3.7889,-3.8582,-4.0375,-4.124,-4.2115,-4.3384,-4.4227,-4.4982,0.0,-4.7354,-4.7843,-4.6062,-4.6841,-4.6913,-4.5047,-4.5278,-4.5586,-4.5586,-4.5586,-4.5586,-4.5586,-4.5586,-4.5586,-4.5586,-4.5586,-4.5586,-4.5586,-4.397,-4.3104,-4.3104,-4.1373,-4.0574,-4.0703,-4.0846,-4.0867,-4.0793,-4.0937,-4.0854,-4.059,-3.9765,-3.9224,-3.8844,-3.8477,-3.7718,-3.671,-3.6037,-3.5482,-3.4914,-3.3726,-3.3099,-3.2782,0.0,0.0,0.0,0.0,0.0,0.0,0.0,0.0,0.0,0.0,-1.7905,-1.712,-1.6727,-1.671,-1.6795,-1.6909,-1.6951,-1.7333,-1.8216,-1.927,-2.0342,-2.1381,-2.2788,-2.3583,-2.3722,-2.4322,-2.4877,-2.5315,-2.6795,-2.7729,-2.813,-2.9553,-3.0696,-3.1609,-3.2593,-3.4129,-3.6108,-3.6067,-3.6314,-3.6677,-3.6241,-3.5572,-3.47,-3.4159,-3.3006,-3.1704,-3.1704,-3.0313,-2.8517,-2.8697,-2.8203,-2.7916,-3.0196,-3.043,-2.9891,-3.0302,-3.0692,-3.138,-3.2899,0.0,0.0,-3.559,-3.7033,-3.8108,-3.8021,-3.8988,-4.0206,-4.1288,-4.1931,-4.2655,-4.3885,-4.4395,-4.5033,-4.6065,-4.7876,-4.8466,-4.642,-4.728,-4.724,-4.4932,-4.4989,-4.5336,-4.5566,-4.5586,-4.5586,-4.5586,-4.5586,-4.5586,-4.5586,-4.5586,-4.5586,-4.5586,-4.397,-4.3104,-4.3104,-4.1373,-4.0545,-4.0649,-4.1287,-4.1272,-4.0752,-4.157,-4.1682,-4.1162,-4.0354,-3.9988,-3.995,-3.9488,-3.8565,-3.7373,-3.6892,-3.6517,-3.6082,-3.4503,-3.3823,-3.3581,0.0,0.0,0.0,0.0,0.0,0.0,0.0,0.0,0.0,0.0,0.0,0.0,0.0,-1.7231,-1.7504,-1.8027,-1.8066,-1.8549,-1.9669,-2.0871,-2.1686,-2.2057,-2.4268,-2.5126,-2.4405,-2.5163,-2.6287,-2.7751,-2.7572,-2.8256,-2.9767,-3.0683,-3.1669,-3.2593,-3.3518,-3.4908,-3.6507,-3.6507,-3.6522,-3.6537,-3.6522,-3.5714,-3.4397,-3.308,-3.136,-2.9669,-2.9669,-2.7979,-2.5824,-2.6467,-2.5809,-2.5289,-2.8458,-2.8974,0.0,-3.0603,-3.0902,-3.0681,0.0,0.0,-3.4323,-3.6876,-3.8105,-3.9105,-4.0713,-4.1644,-4.2202,-4.2252,-4.2269,-4.2655,-4.3885,-4.3554,-4.3942,-4.6651,-4.7783,-4.8041,-4.7071,-4.7621,-4.7471,-4.5759,-4.4836,-4.4662,0.0,-4.5586,-4.5586,-4.5586,-4.5586,-4.5586,-4.5586,-4.5586,-4.5586,-4.5586,-4.397,-4.3104,-4.3104,-4.1373,-4.0504,-4.0504,-4.0523,-4.0523,-4.0539,-4.1408,-4.2239,-4.297,-4.2104,-4.172,-4.1604,-3.9969,-3.9258,-3.9046,-3.7353,-3.7199,-3.7728,-3.6129,-3.5118,-3.458,0.0,0.0,0.0,0.0,0.0,0.0,0.0,0.0,0.0,0.0,0.0,0.0,0.0,0.0,0.0,0.0,-1.8106,-1.8617,-1.9803,-2.0598,-2.1445,-2.2237,-2.3797,-2.4922,-2.5482,-2.6107,-2.7367,-2.9146,-2.9016,-2.9425,-3.033,-3.1132,-3.2013,-3.2965,-3.3704,-3.4893,-3.6492,-3.6492,-3.6492,-3.6402,-3.5519,-3.4906,-3.4195,-3.1896,-3.0381,-2.9278,0.0,-2.6916,-2.5419,-2.5218,-2.5091,-2.5264,-2.6701,-2.6977,-2.7361,-3.032,-3.1578,-3.2806,-3.6481,0.0,-3.9332,-4.1382,-4.1845,-4.1902,-4.253,-4.2472,-4.2439,-4.2929,-4.1085,-3.9668,-4.0709,-4.0878,-4.15,-4.3577,-4.616,-4.7702,-4.7081,-4.7889,-4.7601,-4.5049,-4.5509,0.0,0.0,0.0,0.0,-4.5509,-4.5047,-4.4989,-4.5566,-4.5586,-4.5586,-4.5586,-4.397,-4.3355,-4.3893,-4.222,-4.1643,-4.222,-4.222,-4.2489,-4.3008,-4.2777,-4.2816,-4.3047,-4.2181,-4.1797,-4.172,-4.0566,-3.9777,-3.9181,-3.8027,-3.7392,-3.7002,-3.5983,-3.5499,-3.5265,0.0,0.0,0.0,0.0,0.0,0.0,0.0,0.0,0.0,0.0,0.0,0.0,0.0,0.0,0.0,0.0,0.0,-1.9155,-2.0304,-2.1037,-2.1845,-2.296,-2.4471,-2.5763,-2.6741,-2.7295,-2.8054,-2.899,-2.9097,-2.9108,-2.9154,-3.0373,-3.1475,-3.2387,-3.3135,-3.4441,-3.6166,-3.5639,-3.5396,-3.5232,-3.4103,-3.3326,-3.2633,-3.0363,-2.9093,0.0,-2.6987,-2.6109,-2.5527,-2.4909,-2.4894,-2.5346,-2.6163,-2.7267,-2.867,-3.0926,-3.3075,-3.5759,-4.0379,-4.2124,-4.3154,-4.5559,-4.5064,-4.406,-4.418,-4.3212,-4.2202,-4.1897,-3.9732,-3.7928,-3.8076,-3.8005,-3.8724,-4.1052,-4.3508,-4.5485,-4.6421,-4.7093,-4.6923,-4.5396,-4.5663,-4.5643,0.0,0.0,0.0,-4.547,-4.5066,-4.5009,-4.5566,-4.5586,-4.5586,-4.5586,-4.397,-4.3489,-4.4297,-4.2643,-4.2239,-4.3104,-4.3104,-4.3528,-4.4278,-4.3758,-4.3528,-4.347,-4.2624,-4.2085,-4.1739,-4.0854,-4.02,-3.9642,-3.8796,-3.8123,-3.7502,-3.6395,-3.6077,-3.6067,0.0,0.0,0.0,0.0,0.0,0.0,0.0,0.0,0.0,0.0,0.0,0.0,0.0,0.0,0.0,0.0,0.0,0.0,-2.1347,-2.2086,-2.2964,-2.4053,-2.603,-2.7418,-2.8045,-2.8434,-2.8301,-2.7655,-2.8001,-2.759,-2.6567,-2.8793,-3.0297,-3.1078,-3.2047,-3.3525,-3.5307,-3.3855,-3.324,-3.3097,-3.2352,-3.1274,-2.9943,-2.8573,-2.7721,-2.7086,-2.5757,-2.5615,-2.5977,-2.546,-2.5388,-2.5728,-2.7022,-2.9711,-3.2466,-3.2618,-3.548,-3.9372,-4.2625,-4.4252,-4.579,-4.9112,-4.7635,-4.547,-4.5593,-4.3837,-4.1559,-3.9377,-3.821,-3.716,0.0,0.0,-3.5862,-3.9223,-4.0314,-4.1921,-4.5383,-4.5542,-4.574,0.0,0.0,0.0,0.0,0.0,0.0,-4.547,0.0,-4.5547,-4.5586,-4.5586,-4.5586,-4.5586,-4.4008,-4.3547,-4.4355,-4.2797,-4.2412,-4.322,-4.322,-4.3624,-4.4374,-4.4374,-4.4374,-4.4316,-4.347,-4.2624,-4.1797,-4.0873,-4.0489,-4.0412,-3.9565,-3.9219,-3.9008,-3.7276,-3.6767,-3.6832,0.0,0.0,0.0,0.0,0.0,0.0,0.0,0.0,0.0,0.0,0.0,0.0,0.0,0.0,0.0,0.0,0.0,0.0,-2.2778,-2.3427,-2.3877,-2.4163,-2.5464,-2.6423,-2.7052,-2.7431,-2.802,-2.8702,-2.8072,-2.7847,-2.7982,-2.8824,-2.9648,-3.0382,-3.113,-3.1742,-3.2206,-3.1829,-3.1691,-3.1573,-3.0371,-2.995,-2.981,-2.7916,-2.7383,-2.7511,-2.6649,-2.6401,-2.652,0.0,0.0,0.0,0.0,-3.2782,-3.437,-3.662,-3.9559,-4.287,-4.6495,-4.8352,-4.9603,-5.1212,-4.9346,-4.683,-4.5837,-4.3049,-4.0206,-3.8531,-3.5368,-3.2793,0.0,0.0,0.0,-3.768,-4.1209,0.0,-4.6403,-4.7681,0.0,-4.7031,0.0,-4.6721,-4.5701,-4.5201,0.0,0.0,-4.4989,-4.4913,-4.5566,-4.5586,-4.5586,-4.5586,-4.4547,-4.4393,-4.5259,-4.4836,-4.4739,-4.4951,-4.4951,-4.5066,-4.5259,-4.5259,-4.5259,-4.5182,-4.372,-4.297,-4.2643,-4.1123,-4.0489,-4.0354,-3.8892,-3.8334,-3.8123,-3.643,-3.5867,-3.595,0.0,0.0,0.0,0.0,0.0,0.0,0.0,0.0,0.0,0.0,0.0,0.0,0.0,0.0,0.0,0.0,0.0,0.0,0.0,-2.4015,-2.4382,-2.4804,-2.5692,-2.6434,-2.696,-2.7165,-2.7555,-2.8101,-2.7861,-2.7509,-2.7163,-2.7956,-2.866,-2.9263,-2.9653,-3.0316,-3.1108,-3.0451,-3.019,0.0,0.0,-2.8566,-2.8406,-2.7254,-2.7021,-2.7266,-2.6843,0.0,0.0,0.0,0.0,-3.2899,-3.4421,-3.5825,-3.7533,-4.0561,0.0,-4.6048,-4.9521,-5.1447,-5.2474,-5.2673,-5.0463,-4.7444,-4.4335,-4.1283,-3.8176,-3.4692,-3.1985,0.0,0.0,0.0,0.0,0.0,0.0,0.0,-4.5563,-4.7078,-4.777,0.0,-4.7509,0.0,-4.6259,-4.6163,-4.6163,0.0,-4.5355,-4.5066,-4.5566,-4.5586,-4.5586,-4.5586,-4.4739,-4.4528,-4.5009,-4.5413,-4.5586,-4.5586,-4.5586,-4.5586,-4.5586,-4.5586,-4.5393,-4.4951,0.0,-4.2874,-4.2431,-4.1046,-4.0489,-4.0354,-3.9084,-3.8334,-3.7834,-3.6507,-3.5842,-3.5611,0.0,0.0,0.0,0.0,0.0,0.0,0.0,0.0,0.0,0.0,0.0,0.0,0.0,0.0,0.0,0.0,0.0,0.0,0.0,0.0,-2.49,-2.5711,-2.6419,-2.6971,-2.7348,-2.7409,-2.728,-2.6934,-2.753,-2.7046,-2.5615,-2.6759,-2.7561,-2.7987,-2.7881,-2.8845,-3.0432,-2.9145,-2.8594,-2.8547,-2.7908,-2.7283,-2.6691,0.0,-2.6691,-2.6691,0.0,0.0,0.0,0.0,-3.4827,-3.5537,-3.728,-3.9208,-4.139,-4.4316,-4.6589,-4.8743,-5.1772,-5.3472,-5.4338,-5.3602,-5.1172,-4.7594,-4.2317,-3.9203,-3.5808,-3.0023,0.0,-2.8135,-2.6742,-2.7313,-2.907,-3.2328,0.0,-3.9378,-4.4322,-4.5557,-4.6505,-4.7934,-4.749,-4.7028,-4.6913,-4.7009,-4.7009,-4.6913,-4.6201,-4.572,-4.5605,-4.5586,-4.5586,-4.5586,-4.4874,-4.447,-4.447,-4.522,-4.5586,-4.5586,-4.5586,-4.5586,-4.5586,-4.5586,-4.5182,-4.4412,-4.3508,0.0,-4.1912,-4.0912,-4.0489,-4.0412,-3.9604,-3.8757,-3.7892,-3.7026,-3.6235,-3.56,0.0,0.0,0.0,0.0,0.0,0.0,0.0,0.0,0.0,0.0,-2.115,-2.0698,0.0,0.0,0.0,0.0,0.0,0.0,0.0,0.0,0.0,-2.6505,-2.695,-2.7378,-2.7783,-2.8057,-2.8016,-2.7634,-2.7489,-2.7076,-2.6462,-2.645,-2.6612,-2.6926,-2.6528,-2.655,-2.6882,-2.6623,-2.6528,-2.6538,-2.6791,-2.681,-2.6691,-2.6691,0.0,0.0,0.0,0.0,0.0,0.0,-3.6569,-3.9631,-4.2371,-4.3927,-4.5196,-4.7547,-4.8955,-5.022,-5.2684,-5.3888,-5.4329,-5.3564,-5.1172,-4.7594,-4.2317,-3.7995,0.0,0.0,-2.7046,-2.6024,-2.549,-2.6831,0.0,-3.3579,0.0,0.0,0.0,0.0,-4.7125,0.0,0.0,0.0,0.0,0.0,0.0,0.0,0.0,-4.6355,-4.5624,-4.5586,-4.5586,-4.5586,-4.5451,-4.5355,-4.5355,-4.5509,-4.5586,-4.5586,-4.5586,-4.5586,-4.5586,-4.5586,-4.5509,-4.5278,-4.3758,0.0,-4.2758,-4.1162,-4.0489,-4.0412,-3.9604,-3.8757,-3.7892,-3.7026,-3.6194,-3.554,0.0,0.0,0.0,0.0,0.0,0.0,0.0,-2.2704,-2.2583,-2.2762,-2.2247,-2.1569,-2.0763,-2.1203,-2.1747,0.0,0.0,0.0,0.0,0.0,0.0,0.0,-2.6873,-2.7255,-2.7897,-2.8047,-2.8232,-2.8429,0.0,-2.7978,-2.7576,-2.7247,-2.7078,-2.6987,-2.6573,-2.6367,-2.6367,-2.612,-2.6013,-2.6046,-2.6643,-2.6683,0.0,0.0,0.0,0.0,0.0,0.0,0.0,0.0,-3.6096,-4.0121,-4.3504,-4.5094,-4.6143,-4.8359,-4.9509,-5.0532,-5.2357,-5.3679,-5.4161,-5.2656,-5.0038,-4.6262,-4.0233,0.0,0.0,0.0,-2.4949,-2.4386,-2.4147,0.0,0.0,0.0,0.0,0.0,0.0,0.0,0.0,0.0,0.0,0.0,0.0,0.0,0.0,0.0,0.0,-4.6528,-4.5643,-4.5586,-4.5586,-4.5586,-4.5586,-4.5586,-4.5586,-4.5419,-4.5419,-4.5586,-4.5419,-4.5438,-4.5586,-4.5586,-4.5282,-4.4653,-4.3388,0.0,-4.2066,-4.0821,-4.0372,-4.0412,-3.9604,-3.9027,-3.8527,-3.7199,-3.6469,-3.6073,0.0,0.0,0.0,0.0,0.0,0.0,0.0,-2.2972,-2.292,-2.3552,-2.295,-2.2176,-2.1388,-2.2049,-2.2445,0.0,0.0,0.0,0.0,0.0,0.0,0.0,0.0,0.0,0.0,0.0,0.0,0.0,0.0,0.0,0.0,0.0,0.0,0.0,0.0,-2.6505,-2.635,-2.5997,-2.5762,0.0,0.0,0.0,0.0,0.0,0.0,0.0,0.0,0.0,0.0,0.0,-3.4404,-3.7939,-4.1525,-4.4062,-4.6041,-4.7784,-4.9154,-5.0405,-5.1894,-5.3425,-5.4057,-5.1749,-4.898,-4.5026,-3.8346,-3.3761,0.0,0.0,-2.3274,-2.3153,-2.3095,0.0,0.0,0.0,0.0,0.0,0.0,0.0,0.0,0.0,0.0,0.0,0.0,0.0,0.0,0.0,0.0,0.0,-4.5624,-4.5531,-4.5495,-4.5495,-4.5419,-4.54,-4.54,-4.5118,-4.5118,-4.5381,-4.5118,-4.5118,-4.54,-4.54,-4.4804,-4.3719,-4.2859,0.0,0.0,-4.0425,-4.0269,-4.0431,-3.9796,-3.9335,-3.8854,-3.7488,-3.6757,-3.6348,0.0,0.0,0.0,0.0,0.0,0.0,0.0,-2.3117,-2.273,-2.2799,-2.2147,-2.1831,-2.2152,-2.2671,-2.2919,0.0,0.0,0.0,0.0,0.0,0.0,0.0,0.0,0.0,0.0,0.0,0.0,0.0,0.0,0.0,0.0,0.0,0.0,0.0,0.0,0.0,0.0,-2.5297,0.0,0.0,0.0,0.0,0.0,0.0,0.0,0.0,0.0,0.0,0.0,0.0,0.0,-3.2442,-3.5487,-4.0696,-4.5737,-4.594,0.0,0.0,-5.1894,-5.3425,-5.4057,-5.1749,-4.898,-4.5026,-3.8346,0.0,0.0,-2.434,-2.2868,-2.2473,-2.2686,-2.3119,-2.4528,0.0,0.0,-3.2863,0.0,0.0,0.0,0.0,0.0,0.0,0.0,0.0,0.0,0.0,0.0,0.0,-4.5586,-4.5322,-4.5159,-4.5159,-4.4849,-4.4682,-4.4682,-4.4657,-4.4657,-4.4682,-4.4657,-4.4657,-4.4682,-4.4682,-4.4209,-4.3315,-4.2497,0.0,0.0,-4.0425,-4.0269,-4.0489,-4.0412,-3.945,-3.8104,-3.795,-3.693,-3.5597,0.0,0.0,0.0,0.0,0.0,0.0,-2.3937,-2.3588,-2.346,-2.3916,-2.3388,-2.3073,-2.3247,-2.3248,-2.3069,-2.2488,0.0,0.0,0.0,0.0,0.0,0.0,0.0,0.0,0.0,0.0,0.0,-2.8994,0.0,0.0,0.0,0.0,0.0,0.0,0.0,0.0,0.0,0.0,0.0,0.0,0.0,0.0,0.0,0.0,0.0,0.0,0.0,0.0,0.0,0.0,0.0,0.0,-3.0852,-3.4624,0.0,0.0,-4.479,-4.7378,-5.0202,-5.2425,-5.3403,-5.1078,-4.7316,-4.2655,-3.7305,0.0,-2.7165,-2.4036,-2.2818,-2.2388,-2.266,-2.2972,-2.3732,-2.5348,-2.6166,0.0,0.0,0.0,0.0,0.0,0.0,0.0,0.0,0.0,0.0,0.0,0.0,0.0,-4.4988,-4.4872,-4.48,-4.48,-4.4657,-4.458,-4.458,-4.4346,-4.4346,-4.4599,-4.4346,-4.4364,-4.458,-4.458,-4.3766,-4.2256,-4.1938,0.0,0.0,-3.9708,-3.98,-4.025,-4.025,-3.9541,-3.8508,-3.8712,-3.8027,-3.7021,0.0,0.0,0.0,0.0,0.0,-2.3644,-2.4134,-2.3917,-2.3891,-2.4424,-2.4032,-2.3667,-2.3561,-2.3316,-2.2988,-2.2477,-2.3977,0.0,0.0,0.0,0.0,0.0,0.0,0.0,0.0,0.0,-2.8699,-2.9342,-2.9934,0.0,0.0,0.0,0.0,0.0,0.0,0.0,0.0,0.0,0.0,0.0,0.0,0.0,0.0,0.0,0.0,0.0,0.0,0.0,0.0,0.0,0.0,0.0,0.0,0.0,0.0,0.0,-4.1119,-4.4248,-4.7293,-4.9779,-5.1133,-4.9526,-4.5179,-4.0257,0.0,0.0,-2.6065,-2.3849,-2.2818,-2.2388,-2.266,-2.2972,-2.3323,-2.3649,-2.4196,-2.5983,0.0,0.0,0.0,0.0,0.0,0.0,0.0,0.0,0.0,0.0,0.0,0.0,-4.4447,-4.4337,-4.4308,-4.4419,-4.4337,-4.428,-4.428,-4.3986,-4.3986,-4.428,-4.4004,-4.4004,-4.428,-4.428,-4.3239,-4.1449,-4.1449,0.0,0.0,-3.9238,-3.9505,-4.0101,-4.0002,-3.9489,-3.8804,-3.8772,-3.8443,-3.793,0.0,0.0,0.0,0.0,0.0,0.0,-2.408,-2.3917,-2.3692,-2.371,-2.341,-2.3087,-2.2764,-2.2712,-2.2695,-2.2695,-2.3147,0.0,0.0,0.0,0.0,0.0,0.0,0.0,0.0,0.0,-2.8989,-3.0191,-3.021,-3.0595,-3.1347,-3.0158,0.0,0.0,0.0,0.0,0.0,0.0,0.0,0.0,0.0,0.0,0.0,0.0,0.0,0.0,0.0,0.0,0.0,0.0,0.0,0.0,0.0,0.0,0.0,0.0,-3.7161,-4.1559,-4.3081,-4.5128,-4.6853,-4.6836,-4.2895,-3.8227,0.0,0.0,-2.6065,-2.3849,-2.2818,-2.2388,-2.266,-2.2972,-2.3323,-2.3649,-2.4652,0.0,0.0,0.0,0.0,0.0,0.0,0.0,0.0,0.0,0.0,0.0,0.0,0.0,-4.4016,-4.3693,-4.3679,-4.4016,-4.366,-4.3513,-4.3513,-4.3532,-4.3532,-4.3513,-4.3532,-4.3532,-4.3513,-4.3513,-4.2616,0.0,0.0,0.0,0.0,-3.9238,-3.9505,-4.0081,-3.9712,-3.9286,-3.8709,-3.7832,-3.7723,-3.7757,0.0,0.0,0.0,0.0,0.0,0.0,0.0,-2.3958,-2.3976,-2.3714,-2.361,-2.35,-2.3392,-2.3165,-2.3045,-2.3045,-2.3732,0.0,0.0,0.0,0.0,0.0,0.0,0.0,0.0,0.0,-2.982,-3.021,-3.1311,-3.1696,-3.1384,-3.1009,-3.0399,-2.9539,0.0,0.0,0.0,0.0,0.0,0.0,0.0,0.0,0.0,0.0,0.0,0.0,0.0,0.0,0.0,0.0,0.0,0.0,0.0,0.0,0.0,-2.7807,0.0,0.0,-3.8328,-4.0138,-4.1102,-3.9529,-3.6383,-3.3,-3.0497,-2.708,-2.4103,-2.2902,-2.2462,-2.2338,-2.2398,-2.2857,-2.3236,-2.3346,-2.4508,-2.5976,0.0,0.0,0.0,0.0,0.0,0.0,0.0,0.0,0.0,0.0,0.0,0.0,-4.3679,-4.3582,-4.3548,-4.3646,-4.3548,-4.3497,-4.3497,-4.3497,-4.3497,-4.3479,-4.2928,-4.2671,-4.2653,-4.2121,-4.1277,0.0,0.0,0.0,0.0,-3.8952,-3.9073,-3.9408,-3.9289,-3.8802,-3.8268,-3.901,-3.8975,-3.8586,0.0,0.0,0.0,0.0,0.0,0.0,0.0,-2.3876,-2.3976,-2.3896,-2.3896,-2.3837,-2.3714,-2.3522,-2.3392,-2.3392,-2.4016,0.0,0.0,0.0,0.0,0.0,0.0,0.0,-2.8102,-2.9191,-3.0191,-3.1109,-3.2118,-3.2651,-3.2761,-3.2449,-3.1576,-3.0239,-2.9053,0.0,0.0,0.0,0.0,0.0,0.0,0.0,-2.6743,0.0,0.0,0.0,0.0,0.0,0.0,0.0,0.0,0.0,0.0,0.0,0.0,0.0,-2.759,-3.0683,0.0,-3.4912,-3.5774,-3.4641,-3.2121,-2.9482,-2.7774,-2.5321,-2.319,-2.2462,-2.231,-2.231,-2.231,-2.2695,-2.3045,-2.3165,-2.4086,0.0,0.0,0.0,0.0,0.0,0.0,0.0,0.0,0.0,0.0,0.0,0.0,0.0,-4.3513,-4.3497,-4.3351,-4.3057,-4.3332,-4.3497,-4.3497,-4.3497,-4.3332,-4.3039,-4.2543,-4.2139,-4.1827,-4.135,-4.0671,0.0,0.0,0.0,0.0,-3.8833,-3.8855,-3.9061,-3.8646,-3.8238,-3.7932,-3.8256,-3.8302,-3.8213,0.0,0.0,0.0,0.0,0.0,0.0,0.0,-2.3692,-2.3837,-2.4132,-2.419,-2.4074,-2.3774,-2.3753,-2.3753,-2.3753,0.0,0.0,0.0,0.0,0.0,0.0,0.0,0.0,-2.8394,-2.8925,-3.0283,-3.2522,-3.2761,-3.3642,-3.5064,-3.4394,-3.3201,-3.1604,-3.034,-2.9062,0.0,0.0,0.0,0.0,0.0,0.0,0.0,0.0,0.0,0.0,0.0,0.0,0.0,0.0,0.0,0.0,0.0,0.0,0.0,0.0,0.0,0.0,0.0,-2.955,0.0,-3.141,-2.9482,-2.7249,-2.6539,-2.4797,0.0,-2.2446,-2.231,-2.231,-2.231,-2.2554,-2.2848,-2.3141,-2.3611,0.0,0.0,0.0,0.0,0.0,0.0,0.0,0.0,0.0,0.0,0.0,0.0,0.0,-4.3406,-4.3406,-4.3094,-4.2415,-4.3039,-4.3387,-4.3314,-4.3387,-4.3002,-4.2213,-4.2158,-4.1754,-4.102,-4.0965,-4.0524,0.0,0.0,0.0,0.0,-3.8785,-3.877,-3.8821,-3.7864,-3.7618,-3.7601,-3.6137,-3.626,-3.6984,0.0,0.0,0.0,0.0,0.0,0.0,0.0,0.0,0.0,0.0,-2.4036,-2.417,-2.4094,-2.4074,-2.4074,0.0,0.0,0.0,0.0,0.0,0.0,0.0,0.0,0.0,-2.842,-2.9983,-3.1109,-3.1678,-3.4192,-3.5624,-3.6009,-3.6431,-3.5734,-3.4073,-3.231,-3.0166,0.0,0.0,0.0,0.0,0.0,0.0,0.0,0.0,0.0,0.0,-2.6488,-2.6336,0.0,0.0,0.0,0.0,0.0,0.0,0.0,0.0,-2.3621,-2.3289,-2.3745,0.0,-2.5135,-2.4746,-2.412,-2.3562,0.0,-2.2936,-2.2513,0.0,0.0,-2.231,-2.231,-2.2721,-2.3117,-2.3189,-2.4725,0.0,0.0,0.0,0.0,0.0,0.0,0.0,0.0,0.0,0.0,0.0,0.0,-4.258,-4.258,-4.258,-4.2782,-4.3185,-4.28,-4.2286,-4.168,-4.2268,-4.2176,-4.1387,-4.0763,-4.0359,-4.0157,-3.9551,-3.9166,0.0,0.0,0.0,-3.7919,-3.8462,-3.8015,-3.6998,-3.7371,-3.7151,-3.6657,-3.6489,-3.6584,-3.6817,0.0,0.0,0.0,0.0,0.0,0.0,0.0,0.0,0.0,0.0,0.0,0.0,0.0,0.0,0.0,0.0,0.0,0.0,0.0,0.0,0.0,0.0,0.0,-2.8905,-2.8682,-3.0094,-3.1384,-3.2485,-3.4651,-3.6285,-3.7404,-3.7459,-3.6597,-3.488,-3.2155,-2.989,0.0,0.0,0.0,0.0,-2.7051,0.0,0.0,0.0,0.0,0.0,-2.593,-2.5782,0.0,-2.4769,-2.421,-2.3599,0.0,0.0,0.0,0.0,-2.2654,-2.2376,-2.2308,-2.2835,-2.3291,-2.2902,-2.2801,-2.2801,-2.2801,0.0,0.0,0.0,0.0,0.0,-2.231,-2.2669,0.0,-2.3667,-2.5221,0.0,0.0,0.0,0.0,0.0,0.0,0.0,0.0,0.0,0.0,0.0,0.0,-4.1754,-4.1754,-4.1754,-4.1772,-4.1846,-4.1772,-4.1735,-4.1662,-4.1735,-4.135,-4.0543,-4.0102,-3.9585,-3.897,-3.8779,-3.8345,0.0,0.0,0.0,-3.7,-3.7808,-3.7422,-3.6303,-3.634,-3.6083,-3.5689,-3.5465,-3.5377,-3.5428,0.0,0.0,0.0,0.0,0.0,0.0,0.0,0.0,0.0,0.0,0.0,0.0,0.0,0.0,0.0,0.0,0.0,0.0,0.0,0.0,0.0,0.0,-2.8576,-2.9049,-2.9177,-2.9861,-3.1329,-3.3623,-3.4816,-3.6523,-3.8689,-3.8377,-3.7074,-3.4862,-3.141,-2.9347,0.0,0.0,0.0,0.0,-2.7195,0.0,0.0,0.0,0.0,0.0,0.0,0.0,0.0,-2.4023,-2.3586,-2.3002,-2.1892,0.0,0.0,0.0,0.0,0.0,-2.2141,-2.2946,-2.3646,-2.3325,-2.3308,-2.3359,-2.3257,0.0,0.0,0.0,0.0,0.0,0.0,0.0,0.0,0.0,0.0,0.0,0.0,0.0,0.0,0.0,0.0,0.0,0.0,0.0,0.0,0.0,0.0,-4.076,-4.0693,-4.0693,-4.0382,-3.9721,-4.0412,-4.1034,-4.1531,-4.1119,-4.0474,-3.9585,-3.9585,-3.8882,-3.7644,-3.8085,-3.7649,-3.6594,0.0,0.0,-3.6156,-3.6886,-3.6714,-3.5862,-3.5229,-3.4917,-3.4715,-3.4045,-3.3807,-3.3842,0.0,0.0,0.0,0.0,0.0,0.0,0.0,0.0,0.0,0.0,0.0,0.0,0.0,0.0,0.0,0.0,0.0,0.0,0.0,0.0,0.0,-2.775,-2.8576,-2.9305,-3.0008,-3.0136,-3.1054,-3.2797,-3.5679,-3.7661,-3.8744,-4.0653,-3.9258,-3.4981,-3.2305,-3.0302,-2.8863,0.0,0.0,0.0,0.0,0.0,0.0,0.0,0.0,0.0,0.0,0.0,0.0,-2.2687,-2.2316,-2.2074,-2.1122,0.0,0.0,0.0,0.0,0.0,-2.1601,-2.3455,-2.4814,-2.2953,-2.2936,-2.3241,-2.2615,0.0,0.0,0.0,0.0,0.0,0.0,0.0,0.0,0.0,0.0,0.0,0.0,0.0,0.0,0.0,0.0,0.0,0.0,0.0,0.0,0.0,0.0,-3.9229,-3.8843,-3.8806,-3.879,-3.872,-3.9175,-3.8977,-3.8077,-3.941,-3.9465,-3.8212,-3.8212,-3.7538,-3.6292,-3.6381,-3.6181,-3.576,0.0,-3.5367,-3.5247,-3.5721,-3.5235,-3.4247,-3.477,-3.4568,-3.3972,-3.3844,-3.3807,-3.3807,0.0,0.0,0.0,0.0,0.0,0.0,0.0,0.0,0.0,0.0,0.0,0.0,0.0,0.0,0.0,0.0,0.0,0.0,0.0,0.0,-2.7398,-2.8393,-2.8953,-2.9525,-3.0191,-3.1054,-3.2522,-3.4596,-3.6982,-3.8781,-3.9992,-3.935,-3.7165,-3.366,-3.1641,-3.0099,-2.8994,-2.8797,0.0,0.0,0.0,0.0,0.0,0.0,0.0,0.0,0.0,0.0,0.0,0.0,-2.1895,-2.1452,-2.0464,0.0,0.0,0.0,0.0,0.0,-2.115,-2.2633,-2.3794,-2.2762,-2.3866,-2.4983,-2.4255,0.0,0.0,0.0,0.0,0.0,0.0,0.0,0.0,0.0,0.0,0.0,0.0,0.0,0.0,0.0,0.0,0.0,0.0,0.0,0.0,0.0,0.0,0.0,-3.7104,-3.6751,-3.6503,-3.654,-3.6738,-3.6559,-3.6007,-3.6804,-3.7088,-3.6881,-3.6486,-3.5847,-3.5054,-3.5277,-3.496,-3.4234,0.0,-3.4401,-3.3718,-3.4573,-3.4353,-3.353,-3.411,-3.4137,-3.3807,-3.3807,-3.368,-3.3522,0.0,0.0,0.0,0.0,0.0,0.0,0.0,0.0,0.0,0.0,0.0,0.0,0.0,0.0,0.0,0.0,0.0,0.0,0.0,0.0,-2.7977,-2.9056,-2.9289,-2.9731,-3.0467,-3.1696,-3.3532,-3.6009,-3.7624,-3.9148,-4.0487,-3.7422,-3.478,-3.254,-3.0925,-2.9751,-2.8975,-2.8792,-2.8336,0.0,0.0,0.0,0.0,0.0,0.0,0.0,0.0,0.0,0.0,0.0,0.0,0.0,0.0,0.0,0.0,-2.0115,-2.0212,-2.0382,-2.0731,-2.1876,-2.2945,-2.2747,0.0,-2.5913,-2.5879,0.0,0.0,0.0,0.0,0.0,0.0,0.0,0.0,0.0,0.0,0.0,0.0,0.0,0.0,0.0,0.0,0.0,0.0,0.0,0.0,0.0,0.0,0.0,-3.5407,-3.4846,-3.4391,-3.4022,-3.4341,-3.4253,-3.3794,-3.4058,-3.4677,-3.5557,-3.4994,-3.4386,-3.377,-3.4119,-3.37,-3.276,-3.3668,-3.3459,-3.257,-3.3437,-3.349,-3.3075,-3.339,-3.3504,-3.3504,-3.3504,-3.3284,-3.3075,0.0,0.0,0.0,0.0,0.0,0.0,0.0,0.0,0.0,0.0,0.0,0.0,0.0,0.0,0.0,0.0,0.0,0.0,0.0,0.0,-2.8703,-2.9336,-2.9392,-2.999,-3.1299,-3.1421,-3.2669,-3.5082,-3.6762,-3.8028,-3.8836,-3.6274,-3.4183,-3.254,-3.0925,-2.9751,-2.8938,-2.8209,-2.7643,-2.7083,0.0,0.0,0.0,0.0,0.0,0.0,0.0,0.0,0.0,0.0,0.0,0.0,0.0,0.0,-2.0513,-1.9906,-2.0,-2.0314,-2.0348,-2.205,-2.3621,-2.2895,-2.319,0.0,-2.615,-2.6048,0.0,0.0,0.0,0.0,0.0,0.0,0.0,0.0,0.0,0.0,0.0,0.0,0.0,0.0,0.0,0.0,0.0,0.0,0.0,0.0,0.0,0.0,-3.3624,-3.3549,-3.287,-3.1494,-3.2614,-3.234,-3.0459,-3.156,-3.2837,-3.4349,-3.4297,-3.3628,-3.2439,-3.2462,-3.2256,-3.1875,-3.1585,-3.1854,-3.2484,-3.2127,-3.2214,-3.255,-3.2583,-3.2583,-3.2583,-3.2583,-3.2583,-3.255,0.0,0.0,0.0,0.0,0.0,0.0,0.0,0.0,0.0,0.0,0.0,0.0,0.0,0.0,0.0,0.0,0.0,0.0,0.0,-2.833,-2.9083,-2.957,-2.9713,-3.0133,-3.0876,-3.1225,-3.2339,-3.4266,-3.5404,-3.6376,-3.7147,-3.4688,-3.3175,-3.254,-3.0925,-2.9751,-2.8938,-2.8136,-2.757,-2.7042,-2.5169,0.0,0.0,0.0,0.0,0.0,0.0,0.0,0.0,0.0,-2.0872,-2.0551,-1.9929,-1.9869,-2.0034,-1.9765,-1.9818,-1.9945,-1.9945,-2.1673,-2.3271,-2.2541,0.0,0.0,0.0,0.0,0.0,0.0,0.0,0.0,0.0,0.0,0.0,0.0,0.0,0.0,0.0,0.0,0.0,0.0,0.0,0.0,0.0,0.0,0.0,0.0,0.0,0.0,-3.2002,-3.1157,-3.0395,-2.9837,-3.0299,-3.0199,-2.9414,-2.9856,-3.0392,-3.0974,-3.1914,-3.2105,-3.1613,-3.1613,-3.1562,-3.1411,-3.1269,-3.1406,-3.1694,-3.1752,-3.188,-3.2092,-3.2384,-3.2316,-3.2039,-3.187,-3.1927,-3.1969,0.0,0.0,0.0,0.0,0.0,0.0,0.0,0.0,0.0,0.0,0.0,0.0,0.0,0.0,0.0,0.0,0.0,0.0,-2.7574,-2.8545,-2.9194,-2.9415,-2.9559,-2.9696,-2.9905,-3.0278,-3.1426,-3.3421,-3.3733,-3.4302,-3.5073,-3.2871,-3.199,-3.2173,-3.0797,-2.9898,-2.9292,-2.7989,-2.7273,-2.6843,-2.4933,-2.3972,0.0,0.0,0.0,0.0,0.0,0.0,0.0,0.0,-2.0682,-2.0212,-1.9854,-1.969,-1.969,-1.969,-1.969,-1.969,-1.969,-2.0976,-2.2248,0.0,0.0,0.0,0.0,0.0,0.0,0.0,0.0,0.0,0.0,0.0,0.0,0.0,0.0,0.0,0.0,0.0,0.0,0.0,0.0,0.0,0.0,0.0,0.0,0.0,0.0,0.0,0.0,-2.9533,-2.8873,-2.8619,-2.8619,-2.8399,-2.7926,-2.8383,-2.8501,-2.8281,-2.977,-3.0497,-3.0497,-3.0497,-3.0497,-3.0497,-3.0497,-3.0497,-3.0535,-3.0805,-3.0934,-3.0953,-3.1272,-3.1202,-3.0884,-3.0697,-3.0785,-3.0815,0.0,0.0,0.0,0.0,0.0,0.0,0.0,0.0,0.0,0.0,0.0,0.0,0.0,0.0,0.0,0.0,0.0,0.0,-2.7832,-2.864,-2.9013,-2.8807,-2.8793,-2.8673,-2.8414,-2.8414,-2.9754,-3.2559,-3.1751,-3.177,-3.2559,-3.0962,-3.0632,-3.1366,-3.0577,-3.021,-3.0026,-2.7622,-2.6612,-2.6426,-2.449,-2.35,-2.3165,0.0,0.0,0.0,0.0,0.0,0.0,0.0,-2.0682,-2.0212,-1.9854,-1.969,-1.969,-1.969,-1.969,-1.969,-1.969,-2.0015,0.0,0.0,0.0,0.0,0.0,0.0,0.0,0.0,0.0,0.0,0.0,0.0,0.0,0.0,0.0,0.0,0.0,0.0,0.0,0.0,0.0,0.0,0.0,0.0,0.0,0.0,0.0,0.0,0.0,-2.8941,-2.8586,-2.7772,-2.7755,-2.7046,-2.5609,-2.7063,-2.7418,-2.6691,-2.8213,-2.8958,-2.9011,-2.9011,-2.9011,-2.9011,-2.9011,-2.9011,-2.9011,-2.9011,-2.9011,-2.9011,-2.9011,-2.9011,-2.9011,-2.8975,-2.8975,-2.9011,0.0,0.0,0.0,0.0,0.0,0.0,0.0,0.0,0.0,0.0,0.0,0.0,0.0,0.0,0.0,0.0,0.0,0.0,-2.7871,-2.864,-2.9071,-2.9025,-2.9013,-2.8919,-2.8688,-2.8363,-2.8595,-2.9437,-2.8504,-2.9017,-3.0907,-3.043,-3.0632,-3.1384,-3.1146,-3.0099,-2.8429,-2.7145,-2.6264,-2.5638,-2.4254,-2.3649,-2.35,0.0,0.0,0.0,0.0,0.0,0.0,0.0,0.0,0.0,-1.9854,-1.969,-1.969,-1.969,-1.969,-1.969,-1.969,-2.0773,0.0,0.0,0.0,0.0,0.0,0.0,0.0,0.0,0.0,0.0,0.0,0.0,0.0,0.0,0.0,0.0,0.0,0.0,0.0,0.0,0.0,0.0,0.0,0.0,0.0,0.0,0.0,0.0,0.0,-2.6099,-2.571,-2.549,-2.5473,-2.5253,-2.4814,-2.5253,-2.5226,-2.4746,-2.5196,-2.6687,-2.9011,-2.9011,-2.9011,-2.9011,-2.9011,-2.9011,-2.9011,-2.9011,-2.9011,-2.9011,-2.9011,-2.9011,-2.8924,-2.8366,-2.8518,-2.8822,0.0,0.0,0.0,0.0,0.0,0.0,0.0,0.0,0.0,0.0,0.0,0.0,0.0,0.0,0.0,0.0,0.0,0.0,0.0,-2.8037,-2.8258,-2.8656,-2.8307,-2.8057,-2.7943,-2.79,-2.7689,-2.7284,-2.6503,-2.7181,-2.9255,-2.9255,-2.9843,-3.0907,-3.0907,-2.9934,-2.8209,-2.709,-2.6135,-2.5309,-2.4306,-2.3816,-2.3649,0.0,0.0,0.0,0.0,0.0,0.0,0.0,0.0,0.0,-1.9874,-1.969,-1.969,-1.969,-1.969,-1.969,-1.969,0.0,0.0,0.0,0.0,0.0,0.0,0.0,0.0,0.0,0.0,0.0,0.0,0.0,0.0,0.0,0.0,0.0,0.0,0.0,0.0,0.0,0.0,0.0,0.0,0.0,0.0,0.0,0.0,0.0,0.0,-2.4232,-2.3983,-2.3983,-2.4176,-2.4043,-2.3551,-2.4026,-2.3898,-2.3177,-2.3471,-2.4691,-2.6692,-2.7188,-2.7649,-2.8078,-2.8078,-2.8078,-2.8078,-2.8078,-2.8078,-2.8078,-2.7883,-2.7811,-2.7707,-2.7005,-2.7085,-2.735,0.0,0.0,0.0,0.0,0.0,0.0,0.0,0.0,0.0,0.0,-2.5303,0.0,0.0,0.0,0.0,0.0,0.0,0.0,0.0,0.0,-2.7084,-2.7849,-2.7055,-2.664,-2.6717,-2.7216,-2.6991,-2.6012,-2.5616,-2.6213,-2.7677,-2.7842,-2.8686,-3.0099,-3.0099,-2.9604,-2.8663,-2.7145,-2.6025,-2.5237,-2.4483,-2.4016,-2.3714,-2.3346,0.0,0.0,0.0,0.0,0.0,0.0,0.0,0.0,-2.0015,-1.9726,-1.969,-1.969,-1.9645,-1.9615,-1.9675,0.0,0.0,0.0,0.0,0.0,0.0,0.0,0.0,0.0,0.0,0.0,0.0,0.0,0.0,0.0,0.0,0.0,0.0,0.0,0.0,0.0,0.0,0.0,0.0,0.0,0.0,0.0,0.0,0.0,0.0,-2.2999,-2.2999,-2.2999,-2.3406,-2.3096,-2.2001,-2.3079,-2.3079,-2.1919,-2.2625,-2.2962,-2.3093,-2.4274,-2.5428,-2.6472,-2.6472,-2.6522,-2.6573,-2.6505,-2.6522,-2.6505,-2.6104,-2.5924,-2.5852,-2.5309,-2.5125,-2.5125,0.0,0.0,0.0,0.0,0.0,0.0,0.0,0.0,0.0,0.0,0.0,0.0,0.0,0.0,0.0,0.0,0.0,0.0,0.0,0.0,-2.753,-2.7005,-2.6747,-2.6928,-2.7601,-2.6948,-2.6388,-2.6001,-2.5759,-2.604,-2.6888,-2.8154,-2.8943,-2.925,-2.925,-2.8466,-2.7053,-2.6062,-2.5181,-2.4428,-2.4263,-2.4151,-2.4016,-2.3414,-2.3165,0.0,0.0,0.0,0.0,0.0,0.0,0.0,-2.0364,-1.9929,-1.969,-1.969,-1.9316,-1.9031,0.0,-1.9794,0.0,0.0,0.0,0.0,0.0,0.0,0.0,0.0,0.0,0.0,0.0,0.0,0.0,0.0,0.0,0.0,0.0,0.0,0.0,0.0,0.0,0.0,0.0,0.0,0.0,0.0,0.0,0.0,-2.1471,-2.1471,-2.1471,-2.1471,-2.1585,-2.1504,-2.1247,-2.1504,-2.1293,0.0,-2.0842,-2.1252,-2.1918,-2.3077,-2.4016,-2.4733,-2.4733,-2.5041,-2.5475,-2.4944,-2.5058,-2.5524,-2.5411,-2.5373,-2.5309,-2.4633,-2.4441,-2.4441,0.0,0.0,0.0,0.0,0.0,0.0,0.0,0.0,0.0,0.0,0.0,0.0,0.0,0.0,0.0,0.0,0.0,0.0,0.0,0.0,-2.6623,-2.6095,-2.6831,-2.7085,-2.6659,-2.6527,-2.6142,-2.5508,-2.622,-2.6783,-2.72,-2.8026,-2.8631,-2.8975,-2.8613,-2.775,-2.6557,-2.5731,-2.4944,-2.419,-2.419,-2.419,-2.4132,-2.3477,-2.3189,-2.3117,-2.2508,0.0,0.0,0.0,0.0,0.0,0.0,0.0,-1.9945,-1.9747,-1.9435,-1.9181,0.0,0.0,0.0,0.0,0.0,0.0,0.0,0.0,0.0,0.0,0.0,0.0,0.0,0.0,0.0,0.0,0.0,0.0,0.0,0.0,0.0,0.0,0.0,0.0,0.0,0.0,0.0,0.0,0.0,-2.0379,-2.0379,-2.0379,-2.0379,-2.0379,-2.0565,-2.0565,-2.0379,-2.0565,-2.0465,-2.0,-2.0,-2.0233,-2.0702,-2.2413,-2.3385,-2.3703,-2.3703,-2.3911,-2.4216,-2.3863,-2.412,-2.4639,-2.4078,-2.4081,-2.4248,-2.3342,-2.2994,-2.2994,0.0,0.0,0.0,0.0,0.0,0.0,0.0,0.0,0.0,0.0,0.0,0.0,0.0,0.0,0.0,0.0,0.0,0.0,0.0,0.0,0.0,-2.5861,-2.6943,-2.6925,-2.5572,-2.6092,-2.599,-2.5208,-2.6606,-2.7563,-2.8123,-2.8098,-2.8401,-2.8957,-2.8007,-2.7218,-2.6539,-2.5585,-2.4795,-2.419,-2.419,-2.419,-2.4113,-2.3522,-2.3236,-2.3135,-2.2571,-2.2349,-2.2237,-2.1853,0.0,0.0,0.0,0.0,-2.0212,-1.9818,-1.96,-1.942,0.0,0.0,0.0,0.0,0.0,0.0,0.0,0.0,0.0,0.0,0.0,0.0,0.0,0.0,0.0,0.0,0.0,0.0,0.0,0.0,0.0,0.0,0.0,0.0,0.0,0.0,0.0,0.0,0.0,-1.969,-1.969,-1.969,-1.969,-1.969,-2.0035,-2.0035,-1.969,-2.0035,-2.0035,-1.969,-1.969,-1.969,-1.9756,-2.1706,-2.2643,-2.277,-2.277,-2.2833,-2.2929,-2.2817,-2.3147,-2.3681,-2.2667,-2.2601,-2.2978,-2.1898,-2.1476,-2.1396,0.0,0.0,0.0,0.0,0.0,0.0,0.0,0.0,0.0,0.0,0.0,0.0,0.0,0.0,0.0,0.0,0.0,0.0,-2.5776,0.0,0.0,-2.7768,-2.6481,-2.5998,-2.6497,-2.5822,-2.5653,-2.6028,-2.6256,-2.7437,-2.9438,-2.9286,-2.9132,-2.892,-2.7438,-2.6704,-2.6502,-2.4997,-2.43,-2.419,-2.419,-2.419,-2.417,-2.3774,-2.3437,-2.3141,-2.2772,-2.25,-2.2282,-2.2237,-2.1928,0.0,0.0,0.0,-2.0212,-1.9818,-1.9286,-1.8942,0.0,0.0,0.0,0.0,0.0,0.0,0.0,0.0,0.0,0.0,0.0,0.0,0.0,0.0,0.0,0.0,0.0,0.0,0.0,0.0,0.0,0.0,0.0,0.0,0.0,0.0,0.0,0.0,-1.969,-1.969,-1.969,-1.969,-1.969,-1.969,-1.9747,-1.9747,-1.969,-1.9747,-1.9747,-1.969,-1.969,-1.969,-1.9726,-2.0035,-2.0479,-2.1039,-2.1039,-2.1371,-2.187,-2.1281,-2.1447,-2.2037,-2.1868,-2.1858,-2.1858,-2.1081,-2.0557,-2.0135,0.0,0.0,0.0,0.0,0.0,0.0,0.0,0.0,0.0,0.0,0.0,0.0,0.0,0.0,0.0,-2.5558,-2.5629,-2.5659,-2.5659,-2.5659,-2.5987,-2.6713,-2.5956,-2.5662,-2.5967,-2.5572,-2.5476,-2.5696,-2.6186,-2.6874,-2.7744,-2.8647,-2.9608,-3.0469,-2.8261,-2.7273,-2.7145,-2.5071,-2.419,-2.419,-2.419,-2.419,-2.417,-2.3816,-2.35,-2.3165,-2.2822,-2.2527,-2.231,-2.231,-2.2163,-2.1869,-2.1229,0.0,0.0,0.0,0.0,0.0,0.0,0.0,0.0,0.0,0.0,0.0,0.0,0.0,0.0,0.0,0.0,0.0,0.0,0.0,0.0,0.0,0.0,0.0,0.0,0.0,0.0,0.0,0.0,0.0,0.0,0.0,0.0,0.0,-1.969,-1.969,-1.969,-1.969,-1.969,-1.969,-1.969,-1.969,-1.969,-1.969,-1.969,-1.969,-1.969,-1.969,-1.969,-1.969,-1.9854,-2.0139,-2.0139,-2.0303,-2.0543,-2.0258,-2.0376,-2.0676,-2.0593,-2.046,-2.0189,-1.9841,-1.9363,-1.888,0.0,0.0,0.0,0.0,0.0,0.0,0.0,0.0,0.0,0.0,0.0,0.0,0.0,0.0,0.0,0.0,-2.5662,-2.5703,-2.5703,-2.5703,-2.5683,-2.5633,-2.5605,-2.5547,-2.5428,-2.5413,-2.5371,-2.5303,-2.5947,-2.6384,-2.6657,-2.7897,-2.9507,-3.1238,-2.8897,-2.7635,-2.7071,-2.5273,-2.4392,-2.419,-2.419,-2.419,-2.417,-2.3816,-2.3544,-2.3259,-2.2848,-2.2573,-2.2388,-2.2321,-2.231,-2.218,-2.1385,-2.1086,0.0,0.0,0.0,0.0,0.0,0.0,0.0,0.0,0.0,0.0,0.0,0.0,0.0,0.0,0.0,0.0,0.0,0.0,0.0,0.0,0.0,0.0,0.0,0.0,0.0,0.0,0.0,0.0,0.0,0.0,0.0,0.0,-1.969,-1.969,-1.969,-1.9525,-1.951,-1.9675,-1.9361,-1.9346,-1.969,-1.969,-1.9639,-1.9479,-1.9479,-1.9442,-1.9281,-1.9281,-1.9281,-1.9281,-1.9442,-1.9479,-1.9479,-1.9369,-1.9348,-1.9412,-1.9322,-1.9104,-1.8836,-1.8744,-1.838,-1.7907,0.0,0.0,0.0,0.0,0.0,0.0,0.0,0.0,0.0,0.0,0.0,0.0,-2.5683,-2.5683,-2.5683,-2.5683,-2.5703,-2.5703,-2.5703,-2.5703,-2.5703,-2.5683,-2.5634,0.0,-2.5508,-2.5428,-2.5371,-2.5303,-2.5341,-2.6206,-2.7822,-2.765,-2.8474,-3.0022,-2.8707,-2.7136,-2.5531,0.0,0.0,0.0,0.0,0.0,0.0,0.0,0.0,0.0,0.0,0.0,-2.2634,-2.2388,-2.231,-2.2209,-2.1718,-2.1306,0.0,0.0,0.0,0.0,0.0,0.0,0.0,0.0,0.0,0.0,0.0,0.0,0.0,0.0,0.0,0.0,0.0,0.0,0.0,0.0,0.0,0.0,0.0,0.0,0.0,0.0,0.0,0.0,0.0,0.0,0.0,0.0,-1.969,-1.969,-1.969,-1.9091,-1.9031,-1.966,-1.8478,-1.8418,-1.9675,-1.969,-1.9442,-1.893,-1.893,-1.8688,-1.8185,-1.8185,-1.8185,-1.8224,-1.8727,-1.893,-1.8893,-1.838,-1.8198,-1.8187,-1.8198,-1.8159,-1.8133,-1.8145,-1.7787,-1.7353,0.0,0.0,0.0,0.0,0.0,0.0,0.0,0.0,0.0,0.0,0.0,0.0,0.0,-2.5703,-2.5703,-2.5703,-2.5703,-2.5703,-2.5703,-2.5703,-2.5703,-2.5703,-2.5682,-2.5607,-2.5493,-2.5482,-2.542,-2.5303,-2.5303,-2.561,-2.6236,-2.671,-2.6878,-2.6822,-2.7169,-2.6972,-2.6301,-2.5131,0.0,0.0,0.0,0.0,0.0,0.0,0.0,0.0,0.0,0.0,0.0,-2.2599,-2.2436,0.0,0.0,0.0,0.0,0.0,0.0,0.0,0.0,0.0,0.0,0.0,0.0,0.0,0.0,0.0,0.0,0.0,0.0,0.0,0.0,0.0,0.0,0.0,0.0,0.0,0.0,0.0,0.0,0.0,0.0,0.0,0.0,0.0,0.0,0.0,0.0,-1.9031,-1.8693,-1.8108,-1.7748,-1.7648,-1.7168,-1.7319,-1.8164,-1.8178,-1.8229,-1.838,-1.838,-1.8302,-1.8106,-1.8106,-1.8106,-1.8106,-1.7947,-1.8066,-1.838,-1.8185,-1.7907,-1.7626,-1.7987,-1.7666,-1.7118,-1.7463,-1.7229,-1.6795,0.0,0.0,0.0,0.0,0.0,0.0,0.0,0.0,0.0,-2.5564,0.0,0.0,0.0,0.0,-2.5703,-2.5703,-2.5703,-2.5703,-2.5703,-2.5703,-2.5703,-2.5703,-2.5703,-2.5658,-2.5543,-2.552,-2.5477,-2.533,-2.533,-2.5312,-2.5303,-2.589,-2.5781,-2.5126,-2.5914,-2.6201,0.0,0.0,0.0,-2.419,0.0,0.0,-2.417,0.0,0.0,0.0,0.0,0.0,0.0,0.0,0.0,0.0,0.0,0.0,0.0,0.0,0.0,0.0,0.0,0.0,0.0,0.0,0.0,0.0,0.0,0.0,0.0,0.0,0.0,0.0,0.0,0.0,0.0,0.0,0.0,0.0,0.0,0.0,0.0,0.0,0.0,0.0,0.0,0.0,0.0,0.0,0.0,0.0,-1.7849,-1.7273,-1.6687,-1.6125,-1.6376,-1.6633,-1.6964,-1.7172,-1.746,-1.7827,-1.7827,-1.7747,-1.7544,-1.7544,-1.7544,-1.7544,-1.7188,-1.7353,-1.7827,-1.7626,-1.7353,-1.7076,-1.7435,-1.7008,-1.6238,-1.6587,-1.6386,-1.5888,0.0,0.0,0.0,0.0,0.0,0.0,0.0,0.0,-2.5508,-2.5508,0.0,0.0,0.0,0.0,0.0,-2.5683,-2.5683,-2.5683,-2.5683,-2.5703,-2.5703,-2.5703,-2.5703,-2.5662,-2.5603,-2.5601,-2.552,-2.5394,-2.5394,-2.5371,-2.5303,-2.5303,-2.5303,-2.5284,-2.5099,-2.4818,-2.4568,0.0,-2.5097,-2.4209,0.0,-2.419,-2.4132,0.0,0.0,0.0,-2.1857,-2.1884,0.0,-2.1574,0.0,0.0,0.0,0.0,0.0,0.0,0.0,0.0,0.0,0.0,0.0,0.0,0.0,0.0,0.0,0.0,0.0,0.0,0.0,0.0,0.0,0.0,0.0,0.0,0.0,0.0,0.0,0.0,0.0,0.0,0.0,0.0,0.0,0.0,0.0,0.0,-1.6786,-1.6703,-1.7214,-1.6587,-1.5909,-1.5264,-1.6021,-1.6375,-1.6261,-1.6913,-1.7268,-1.7271,-1.7271,-1.6993,-1.6466,-1.6479,-1.6466,-1.6436,-1.6466,-1.6752,-1.7188,-1.6667,-1.6479,-1.6436,-1.6436,-1.6095,-1.5588,-1.5588,-1.5186,-1.4698,0.0,0.0,0.0,0.0,0.0,0.0,-2.5421,-2.5421,-2.5421,0.0,0.0,0.0,-2.5535,-2.5547,-2.5558,-2.5558,-2.5558,-2.5558,-2.5558,-2.5601,-2.5633,-2.5633,-2.5662,-2.5662,-2.5603,-2.5601,-2.552,-2.5394,-2.5394,-2.5371,-2.5303,-2.5303,-2.5303,-2.5303,-2.5234,-2.5077,-2.4864,-2.4832,0.0,0.0,-2.4266,-2.419,0.0,0.0,0.0,0.0,0.0,-2.2887,-2.266,0.0,-2.2156,-2.1967,0.0,0.0,0.0,0.0,0.0,0.0,-1.8882,0.0,0.0,0.0,0.0,0.0,0.0,0.0,0.0,0.0,0.0,0.0,0.0,0.0,0.0,0.0,0.0,0.0,0.0,0.0,0.0,0.0,0.0,0.0,0.0,0.0,0.0,0.0,-1.6423,-1.5982,-1.6143,-1.4813,-1.3981,-1.3792,-1.4003,-1.4505,-1.5297,-1.5452,-1.5956,-1.671,-1.671,-1.6398,-1.5864,-1.6281,-1.602,-1.5197,-1.5644,-1.5676,-1.5443,-1.572,-1.5599,-1.5197,-1.5197,-1.5107,-1.4971,-1.4971,-1.4835,-1.4698,0.0,0.0,0.0,0.0,0.0,-2.5725,-2.5234,-2.5582,-2.5743,0.0,0.0,0.0,-2.5508,-2.5493,-2.5493,-2.5493,-2.5493,-2.5493,-2.5493,-2.5561,-2.5595,-2.5558,-2.5611,-2.5643,-2.5605,-2.5605,-2.5551,-2.5473,-2.5465,-2.542,-2.5339,-2.5313,-2.5303,-2.5303,0.0,0.0,0.0,0.0,0.0,0.0,-2.4375,0.0,0.0,-2.3896,-2.3473,0.0,0.0,0.0,-2.2056,-2.2056,-2.218,0.0,0.0,0.0,0.0,0.0,0.0,0.0,0.0,0.0,0.0,0.0,0.0,0.0,-1.5799,-1.5448,-1.4982,0.0,0.0,0.0,0.0,0.0,0.0,0.0,0.0,0.0,0.0,0.0,0.0,0.0,0.0,0.0,0.0,-1.4673,-1.4948,-1.5872,-1.5165,-1.4865,-1.5346,-1.4001,-1.3511,-1.4237,-1.381,-1.4099,-1.5203,-1.4965,-1.5274,-1.6139,-1.5876,-1.5555,-1.5231,-1.5611,-1.5389,-1.4698,-1.505,-1.4869,-1.4329,-1.4687,-1.4778,-1.4698,-1.4698,-1.456,-1.4329,-1.4329,-1.4154,-1.3931,0.0,0.0,-2.4911,-2.4832,-2.5697,-2.6048,-2.496,-2.5716,-2.6055,0.0,-2.5236,-2.542,-2.5463,-2.5488,-2.5488,-2.5488,-2.5488,-2.5488,-2.5488,-2.5543,-2.5551,-2.5484,-2.5554,-2.5595,-2.5595,-2.5595,-2.5581,-2.5586,-2.5535,-2.5473,-2.5413,-2.5348,-2.5313,-2.5331,0.0,0.0,0.0,0.0,0.0,-2.4412,-2.4379,-2.4263,0.0,0.0,-2.2584,-2.1887,-2.1368,-2.1121,-2.1059,-2.117,-2.1634,0.0,0.0,0.0,0.0,0.0,-2.0379,0.0,0.0,0.0,0.0,0.0,0.0,0.0,-1.5799,-1.5448,-1.4982,-1.4596,0.0,0.0,0.0,0.0,0.0,0.0,0.0,0.0,0.0,0.0,0.0,0.0,0.0,0.0,-1.3946,-1.3509,-1.3458,-1.4035,-1.3596,-1.3747,-1.4765,-1.3797,-1.3899,-1.5467,-1.4513,-1.4475,-1.5511,-1.4995,-1.4971,-1.5499,-1.4971,-1.4652,-1.4606,-1.4652,-1.4606,-1.4525,-1.456,-1.4236,-1.3684,-1.3684,-1.4014,-1.4525,-1.4525,-1.4143,-1.3684,-1.3684,-1.3324,-1.2774,0.0,0.0,-2.4636,-2.4775,-2.4993,-2.5077,-2.4837,-2.4993,-2.5107,-2.5018,-2.5194,-2.5312,-2.5339,-2.5339,-2.5339,-2.5339,-2.5339,-2.5339,-2.5339,-2.5406,-2.5428,-2.5427,-2.5473,-2.5526,-2.5526,-2.5526,-2.5515,-2.5526,-2.5506,-2.5483,-2.5488,-2.542,-2.5413,-2.5465,-2.5394,0.0,0.0,0.0,0.0,-2.3904,-2.3649,0.0,-2.337,-2.2447,-2.167,-2.1118,-2.1009,-2.0638,-2.0322,-2.0974,-2.1305,-2.1465,0.0,0.0,0.0,0.0,0.0,0.0,0.0,0.0,0.0,0.0,0.0,0.0,-1.5799,-1.5448,-1.4982,0.0,0.0,0.0,0.0,0.0,0.0,0.0,0.0,0.0,0.0,0.0,0.0,0.0,0.0,0.0,-1.3421,-1.3261,-1.3458,-1.4035,-1.3984,-1.4022,-1.4236,-1.3584,-1.3584,-1.4387,-1.369,-1.3617,-1.4341,-1.4163,-1.4349,-1.488,-1.4755,-1.4468,-1.4003,-1.4468,-1.4154,-1.3296,-1.3779,-1.3647,-1.3055,-1.3055,-1.3152,-1.3248,-1.3248,-1.32,-1.3055,-1.3055,-1.2647,-1.2021,0.0,0.0,-2.4264,-2.4264,-2.4888,-2.5201,-2.4601,-2.5008,-2.5238,-2.4823,-2.4936,-2.5056,-2.5056,-2.5056,-2.5056,-2.5056,-2.5056,-2.5072,-2.5152,-2.5197,-2.5288,-2.5357,-2.5401,-2.5453,-2.5453,-2.5453,-2.5488,-2.5541,-2.5527,-2.5521,-2.5551,-2.5488,-2.5238,-2.4861,-2.5277,0.0,0.0,0.0,-2.5013,-2.4357,-2.3776,0.0,-2.2566,-2.191,-2.1115,-2.0395,-2.0574,-2.0625,-2.0534,-2.0179,-2.0805,0.0,0.0,-2.1081,-2.0991,0.0,-2.0379,-1.9465,0.0,0.0,0.0,-1.6503,0.0,0.0,0.0,-1.561,-1.5255,-1.4627,0.0,0.0,0.0,0.0,0.0,0.0,0.0,0.0,0.0,0.0,0.0,0.0,0.0,0.0,-1.3188,-1.2978,-1.3053,-1.3622,-1.342,-1.3423,-1.3692,-1.2938,-1.2984,-1.407,-1.3476,-1.3432,-1.4032,-1.3917,-1.3878,-1.3878,-1.3814,-1.3647,-1.3372,-1.3658,-1.3266,-1.2344,-1.2657,-1.2463,-1.19,-1.2197,-1.2147,-1.19,-1.2627,-1.2666,-1.2344,-1.2344,-1.1931,-1.1316,-2.3021,0.0,-2.379,-2.3631,-2.4615,-2.5165,-2.4225,-2.4928,-2.53,-2.4586,-2.4801,-2.5035,-2.5035,-2.5035,-2.5167,-2.5473,-2.5073,-2.4974,-2.5393,-2.5217,-2.5061,-2.5004,-2.5252,-2.531,-2.5143,-2.5298,-2.5453,-2.5573,-2.5537,-2.5547,-2.5629,-2.5554,-2.5141,-2.4487,-2.4514,0.0,0.0,0.0,0.0,-2.4476,0.0,-2.3037,-2.2179,-2.1545,-2.068,-1.9808,-1.9894,-2.0174,-2.0382,-1.9435,-2.0331,-2.1674,-2.0728,-2.0619,0.0,0.0,0.0,0.0,0.0,0.0,0.0,0.0,0.0,-1.6114,0.0,0.0,0.0,-1.4811,0.0,0.0,0.0,0.0,0.0,0.0,0.0,0.0,0.0,0.0,0.0,0.0,0.0,0.0,0.0,-1.2459,-1.2436,-1.2896,-1.2483,-1.2507,-1.3132,-1.2304,-1.2406,-1.3752,-1.3226,-1.3109,-1.3465,-1.3359,-1.3073,-1.2569,-1.2531,-1.251,-1.251,-1.251,-1.2197,-1.1616,-1.1616,-1.1316,-1.0864,-1.1366,-1.1266,-1.0922,-1.2197,-1.2246,-1.1616,-1.1616,-1.1166,-1.0618,-2.2548,-2.3052,0.0,-2.3259,-2.3405,-2.3576,-2.3732,-2.3871,-2.4074,-2.4461,-2.5292,-2.5853,0.0,0.0,0.0,0.0,0.0,0.0,-2.6849,0.0,-2.471,-2.3992,-2.484,-2.4985,-2.4263,-2.4947,-2.5387,-2.5503,-2.5507,-2.5556,-2.5683,-2.5629,-2.557,-2.5409,-2.2403,0.0,0.0,0.0,-2.1717,0.0,-2.277,-2.2912,0.0,-2.1263,-2.0282,-1.9646,-1.8503,-1.8138,-1.8369,0.0,-2.0052,-2.0475,0.0,-2.1143,-2.0093,0.0,0.0,0.0,0.0,0.0,0.0,0.0,-1.7162,0.0,0.0,0.0,-1.6306,-1.525,0.0,0.0,0.0,0.0,0.0,0.0,0.0,0.0,0.0,0.0,0.0,0.0,0.0,0.0,0.0,-1.1285,-1.1433,-1.1923,-1.1501,-1.1659,-1.2612,-1.2118,-1.2092,-1.2738,-1.2178,-1.1684,-1.1264,-1.1412,-1.1226,-1.0707,-1.0937,-1.1023,-1.1023,-1.1023,-1.0965,-1.0914,-1.0914,-1.0864,-1.0813,-1.0864,-1.0864,-1.0864,-1.1616,-1.1516,-1.0914,-1.0914,-1.0466,-0.9909,-2.1622,-2.2163,0.0,0.0,-2.293,-2.3253,-2.3392,-2.3566,-2.3717,-2.3744,-2.4278,0.0,0.0,0.0,0.0,0.0,0.0,-2.5296,0.0,0.0,-2.4657,-2.4503,-2.4897,-2.502,-2.4793,-2.5139,-2.5357,-2.5441,-2.5468,-2.5551,-2.5637,-2.5644,-2.5409,-2.4824,-2.1872,0.0,-2.3893,0.0,-2.1524,0.0,0.0,0.0,0.0,-2.083,-1.9605,-1.8988,-1.8117,-1.8082,-1.8471,0.0,-1.9421,0.0,0.0,0.0,0.0,0.0,0.0,0.0,0.0,0.0,0.0,0.0,0.0,0.0,-1.6642,0.0,-1.6437,0.0,0.0,0.0,0.0,0.0,0.0,0.0,-1.2318,0.0,0.0,0.0,0.0,0.0,0.0,0.0,0.0,0.0,0.0,0.0,-1.0948,-1.0981,-1.1654,-1.121,-1.1123,-1.1621,-1.1348,-1.0981,-1.0424,-1.0792,-1.0619,-1.0018,-1.0383,-1.0665,-1.0813,-1.0813,-1.0568,-1.0218,-1.0218,-1.0012,-0.9666,-1.0064,-1.0012,-0.9658,-0.9931,-1.0084,-1.0218,-1.0218,-0.9814,-0.9159,-2.0632,0.0,0.0,0.0,0.0,0.0,-2.3045,0.0,0.0,0.0,0.0,0.0,-2.458,-2.489,0.0,0.0,-2.5308,-2.5061,0.0,0.0,-2.4316,0.0,0.0,0.0,0.0,-2.4973,-2.5245,-2.5321,-2.5446,-2.552,-2.5603,-2.5662,-2.5234,-2.4277,0.0,-2.1276,-2.2842,0.0,0.0,-2.3042,-2.2835,-2.2557,-2.2077,-2.0332,-1.9246,-1.8623,-1.8014,-1.8195,-1.8654,-1.824,-1.9052,0.0,-1.924,0.0,0.0,0.0,0.0,0.0,-1.7833,0.0,0.0,0.0,0.0,0.0,0.0,0.0,0.0,0.0,0.0,0.0,0.0,0.0,0.0,0.0,0.0,0.0,0.0,0.0,0.0,0.0,0.0,0.0,0.0,0.0,0.0,-1.0666,-1.0256,-1.0231,-1.0771,-1.0351,-1.0302,-1.0723,-1.0447,-1.0164,-0.9844,-1.01,-0.9935,-0.9338,-0.9785,-1.0077,-1.0261,-1.0261,-0.9969,-0.951,-0.9295,-0.8935,-0.8533,-0.8823,-0.8613,-0.8203,-0.8119,-0.8429,-0.8915,-0.8915,-0.8613,-0.8103,-1.9747,-2.0748,0.0,0.0,0.0,0.0,0.0,0.0,0.0,0.0,0.0,0.0,0.0,0.0,0.0,0.0,0.0,-2.4824,-2.5977,0.0,-2.3436,0.0,0.0,-2.4049,0.0,0.0,-2.5034,-2.5111,-2.5363,-2.552,-2.5603,-2.5662,-2.5234,-2.4258,-2.0859,-2.071,-2.276,-1.9198,-1.9043,-2.1166,-2.0969,-2.0425,-1.9713,0.0,-1.945,-1.8896,-1.81,0.0,0.0,-1.8716,-1.9119,0.0,0.0,0.0,0.0,0.0,0.0,0.0,0.0,0.0,0.0,-1.7262,0.0,0.0,0.0,0.0,-1.6899,0.0,0.0,0.0,0.0,0.0,0.0,0.0,0.0,0.0,0.0,0.0,0.0,0.0,0.0,0.0,0.0,0.0,-0.9224,-0.9636,-0.9293,-0.943,-1.0273,-0.9804,-0.9765,-1.0303,-0.9297,-0.8898,-0.9117,-0.8898,-0.8673,-0.8464,-0.8703,-0.885,-0.8857,-0.8857,-0.8857,-0.8804,-0.8096,-0.7777,-0.767,-0.6966,-0.6696,-0.6696,-0.6642,-0.6696,-0.6691,-0.6691,-0.6696,-0.6642,0.0,0.0,0.0,0.0,0.0,0.0,0.0,-2.2262,0.0,0.0,0.0,0.0,0.0,-2.5496,-2.5545,0.0,0.0,-2.43,-2.4195,-2.375,0.0,0.0,0.0,-2.3894,0.0,0.0,0.0,0.0,-2.535,-2.5503,-2.5543,-2.5658,-2.5234,-2.4258,0.0,-1.9427,0.0,0.0,0.0,0.0,0.0,-2.0563,-2.0142,0.0,0.0,-1.8806,-1.8255,-1.8014,0.0,-1.8121,-1.8393,-1.8598,-1.8178,-1.8149,-1.8084,-1.7115,-1.6771,0.0,0.0,0.0,-1.6718,-1.6744,0.0,0.0,0.0,0.0,0.0,0.0,0.0,0.0,0.0,0.0,0.0,0.0,0.0,0.0,0.0,0.0,0.0,0.0,0.0,0.0,0.0,0.0,0.0,-0.8529,-0.8425,-0.8769,-0.9728,-0.9436,-0.9412,-0.9765,-0.9238,-0.8832,-0.8568,-0.8461,-0.8432,-0.8427,-0.8477,-0.8617,-0.8804,-0.8321,-0.8049,-0.8049,-0.7289,-0.6966,-0.6966,-0.6696,-0.6588,-0.6534,-0.6036,-0.5869,-0.5928,-0.6421,-0.6588,-0.6534,-1.7786,0.0,0.0,0.0,0.0,0.0,0.0,0.0,0.0,0.0,-2.3749,0.0,-2.5431,0.0,-2.4513,0.0,-2.4087,-2.3571,-2.3074,-2.2775,0.0,-2.2131,-2.2738,0.0,0.0,0.0,0.0,0.0,0.0,-2.4966,-2.4966,-2.483,-2.4316,-2.3418,0.0,-1.9195,-1.7431,0.0,-1.6686,0.0,0.0,-1.9467,0.0,0.0,-1.9196,-1.9201,0.0,-1.8082,-1.7927,-1.7833,-1.8026,-1.8189,-1.7552,-1.7571,-1.7685,-1.674,-1.6723,-1.6913,-1.6367,-1.6478,0.0,-1.6552,-1.6752,0.0,-1.7034,0.0,0.0,0.0,0.0,0.0,0.0,0.0,0.0,0.0,0.0,0.0,0.0,-1.0118,0.0,0.0,0.0,0.0,0.0,0.0,-0.8016,-0.8016,-0.8016,-0.8365,0.0,0.0,-0.8976,-0.936,-0.8909,-0.8671,-0.8616,-0.8147,-0.8023,-0.8159,-0.7895,-0.7826,-0.7996,-0.7509,-0.7289,-0.7289,-0.6529,-0.6199,-0.6204,-0.5932,-0.5828,-0.5828,-0.5328,-0.5164,-0.5218,-0.566,-0.5828,-0.5769,0.0,0.0,0.0,0.0,-2.0249,0.0,0.0,0.0,-2.2921,0.0,-2.3533,-2.4252,-2.4925,-2.3872,-2.3259,-2.3605,-2.3028,-2.2622,-2.26,-2.196,0.0,0.0,-2.1211,-2.106,-2.021,0.0,0.0,0.0,0.0,-2.3971,-2.392,-2.3354,-2.2676,-2.1894,-2.1894,0.0,-1.6401,-1.6324,-1.4728,-1.2461,-1.4692,-1.7143,-1.9443,-1.9346,-1.9601,-1.9867,-1.8658,-1.8208,-1.8146,-1.79,-1.8017,-1.8266,-1.8248,-1.7807,-1.7262,-1.7262,-1.7085,-1.6801,-1.6261,-1.6686,-1.7188,-1.671,-1.6552,0.0,0.0,0.0,-1.6522,0.0,0.0,0.0,0.0,0.0,0.0,0.0,0.0,0.0,0.0,0.0,0.0,0.0,0.0,0.0,0.0,-0.7964,-0.7964,-0.7964,-0.7964,0.0,0.0,0.0,-0.8511,-0.9063,-0.8339,-0.8318,-0.9138,-0.7942,-0.7419,-0.767,-0.6966,-0.6588,-0.6588,-0.6588,-0.6534,-0.648,-0.5764,-0.5433,-0.5378,-0.4732,-0.446,-0.446,-0.446,-0.446,-0.446,-0.4463,-0.4519,-0.4519,-1.66,-1.7146,-1.7585,0.0,-1.8416,-1.9082,0.0,0.0,0.0,0.0,-2.3686,-2.4678,-2.4002,-2.3496,-2.3054,-2.2536,-2.2131,0.0,0.0,0.0,0.0,-1.9752,-2.1135,-2.1384,-2.0228,-2.2807,0.0,-2.2327,0.0,0.0,-2.303,-2.3082,-2.2671,-2.1894,0.0,0.0,-1.3882,-1.445,-1.3051,-1.0665,-1.2938,-1.535,0.0,0.0,-1.8528,-1.755,-1.8249,-1.8249,-1.7883,-1.7833,-1.7861,-1.788,-1.7641,-1.7277,-1.6876,-1.6632,-1.6711,-1.687,-1.6732,-1.6992,-1.7353,-1.7626,-1.7394,-1.7076,0.0,0.0,0.0,0.0,0.0,0.0,0.0,0.0,0.0,0.0,0.0,0.0,0.0,0.0,0.0,0.0,0.0,0.0,0.0,-0.7278,-0.7278,-0.7278,-0.7278,0.0,0.0,0.0,0.0,-0.8807,-0.8483,-0.8396,-0.8614,-0.7753,-0.7419,-0.767,-0.6966,-0.6588,-0.6588,-0.6036,-0.576,-0.576,-0.5058,-0.4732,-0.4677,-0.3956,-0.368,-0.368,-0.3622,-0.3622,-0.368,-0.4294,-0.4519,-0.4405,-1.5656,0.0,0.0,-1.7323,0.0,0.0,-1.9555,0.0,0.0,-2.1577,-2.2687,0.0,-2.2513,-2.2073,-2.1614,-2.1039,-2.0782,0.0,-2.0096,0.0,0.0,-1.9144,-1.993,-2.0124,-1.9523,-2.1534,0.0,-2.1353,0.0,0.0,-2.2033,-2.1986,-2.1731,-2.1328,0.0,-1.8809,0.0,-1.2601,-1.1073,-1.0061,-1.1999,0.0,0.0,-1.7874,-1.7927,-1.6222,-1.811,-1.7743,-1.6509,-1.7473,-1.7811,-1.7726,-1.7415,-1.7076,-1.6738,-1.6394,-1.6744,-1.719,-1.6972,-1.7441,-1.8027,-1.8066,-1.7867,-1.7585,-1.7353,-1.7312,-1.7146,0.0,-1.6271,-1.5657,0.0,0.0,0.0,0.0,0.0,0.0,0.0,0.0,0.0,0.0,0.0,0.0,0.0,-0.6641,-0.6556,-0.6289,0.0,0.0,0.0,0.0,0.0,-0.7578,-0.7619,-0.7616,-0.7616,-0.6869,-0.6617,-0.674,-0.6041,-0.5664,-0.566,-0.5277,-0.5058,-0.5003,-0.4288,-0.4012,-0.3959,-0.3178,-0.2899,-0.2899,-0.2843,-0.2843,-0.2899,-0.3345,-0.3511,-0.3456,0.0,0.0,0.0,0.0,0.0,0.0,0.0,-2.0024,0.0,-2.1336,0.0,-2.1091,-2.0834,-2.0189,-1.9672,-1.9417,0.0,-1.928,-1.9219,-1.8703,-1.8502,-1.867,-1.8486,-1.8435,-1.8603,-1.974,-2.039,0.0,0.0,0.0,-2.1193,-2.0709,-2.0536,-2.0605,0.0,0.0,0.0,-1.0641,-0.8946,-0.9622,-1.0882,-1.1002,-1.1018,-1.6324,-1.7103,-1.563,-1.7758,-1.6976,-1.5282,-1.7216,-1.7833,-1.7726,-1.7415,-1.7076,-1.6738,-1.6394,-1.6878,-1.74,-1.7026,-1.7712,-1.8513,-1.8196,-1.8066,-1.7867,-1.7435,-1.7312,-1.7146,-1.6595,-1.6311,-1.5654,0.0,0.0,0.0,0.0,0.0,0.0,0.0,0.0,0.0,0.0,0.0,0.0,0.0,0.0,0.0,0.0,0.0,0.0,0.0,0.0,0.0,-0.6226,-0.6483,-0.6588,-0.6588,-0.5869,-0.5429,-0.5374,-0.4673,-0.4294,-0.4184,-0.4184,-0.4184,-0.4181,-0.3456,-0.3176,-0.3178,-0.2399,-0.2063,-0.2063,-0.1952,-0.1953,-0.2063,-0.1952,-0.1898,-0.1952,0.0,0.0,0.0,0.0,0.0,-1.7456,-1.8682,-2.036,-2.1199,-2.0271,-2.1067,-2.1167,-1.956,-1.9275,-1.8962,-1.8274,-1.855,0.0,0.0,0.0,0.0,-1.7607,-1.8608,-1.9,-1.8603,-2.0297,-2.0953,0.0,0.0,0.0,-2.1193,-2.0662,0.0,0.0,0.0,0.0,-1.1211,-0.8144,0.0,-0.6965,-0.7111,-1.0235,-1.4696,-1.3727,-1.4304,-1.5663,-1.5875,-1.6641,-1.761,-1.8004,-1.7992,-1.7726,-1.7415,-1.7076,-1.6738,-1.6394,-1.6323,-1.6456,-1.6795,-1.6895,-1.7099,-1.7903,-1.7787,-1.7435,-1.7312,-1.7312,-1.7146,-1.6595,-1.5426,-1.4506,-1.4462,0.0,0.0,0.0,0.0,0.0,0.0,0.0,0.0,0.0,0.0,0.0,0.0,0.0,0.0,0.0,0.0,0.0,0.0,0.0,0.0,0.0,-0.6568,0.0,0.0,0.0,-0.5206,-0.459,-0.3892,-0.3234,-0.2619,-0.2619,-0.2619,-0.2621,-0.2454,-0.2397,-0.2343,-0.1619,-0.1284,-0.1229,-0.0615,-0.0783,-0.1229,-0.0615,-0.0392,-0.0448,0.0,0.0,0.0,0.0,0.0,0.0,0.0,-1.9012,0.0,-1.8912,-1.8929,-1.8681,-1.7791,-1.7978,-1.7855,-1.7126,-1.747,-1.7471,-1.691,-1.716,-1.7307,-1.7296,-1.7943,0.0,-1.8603,-1.9502,-1.9921,-1.9877,0.0,0.0,0.0,0.0,0.0,-2.0483,0.0,-1.7457,0.0,0.0,0.0,-1.0135,-0.9587,-0.9928,-1.0858,-1.1755,-1.204,-1.2257,-1.449,-1.5839,-1.6707,-1.783,-1.791,-1.7479,-1.715,-1.6799,-1.6474,-1.6136,-1.6084,-1.6175,-1.6397,-1.6683,-1.7049,-1.7567,-1.7714,-1.7626,-1.7353,-1.7312,-1.7063,-1.6225,-1.5235,-1.4245,-1.3247,-1.1426,0.0,0.0,0.0,0.0,0.0,0.0,0.0,0.0,0.0,0.0,0.0,0.0,0.0,0.0,0.0,0.0,0.0,0.0,0.0,0.0,0.0,0.0,-0.55,0.0,-0.422,-0.3831,-0.3118,-0.2565,-0.2174,-0.2174,-0.2174,-0.2174,-0.1786,-0.1619,-0.1563,-0.0838,-0.0504,-0.0504,-0.0112,-0.0224,-0.0504,-0.0112,0.0,-0.0056,0.0,-1.6243,0.0,0.0,-1.7353,0.0,-1.7346,-1.7291,-1.7444,-1.7845,-1.6877,-1.6207,-1.646,-1.6761,-1.6788,-1.6349,-1.651,-1.6502,-1.6264,-1.6185,-1.6443,-1.7044,-1.7134,-1.7614,-1.8489,-1.8491,-1.8556,0.0,0.0,0.0,0.0,0.0,0.0,0.0,0.0,0.0,0.0,0.0,-1.36,-1.346,-1.2152,-0.9703,-0.705,-0.9209,-0.9276,-0.8651,-1.2079,-1.3793,-1.4779,-1.6822,-1.7398,-1.7248,-1.6917,-1.6581,-1.6246,-1.5898,-1.577,-1.5802,-1.6042,-1.6416,-1.684,-1.7176,-1.7477,-1.7624,-1.7354,-1.7188,-1.6841,-1.5808,-1.5042,-1.3885,-1.1628,-1.0284,0.0,0.0,0.0,0.0,0.0,0.0,0.0,0.0,0.0,0.0,0.0,0.0,0.0,0.0,0.0,0.0,0.0,0.0,0.0,0.0,0.0,-0.4181,-0.4015,0.0,-0.3065,-0.2843,-0.2232,-0.1898,-0.173,-0.173,-0.173,-0.1675,-0.1118,-0.0838,-0.0839,-0.0224,0.0,0.0,0.0,0.0,0.0,0.0168,0.0224,0.028,0.0,0.0,0.0,0.0,0.0,0.0,-1.6079,-1.5818,-1.6177,-1.7632,-1.6486,-1.5797,-1.6347,-1.5996,-1.5893,-1.627,-1.5889,-1.5586,-1.5426,-1.5577,-1.5874,-1.6285,-1.6638,-1.728,-1.8229,-1.818,-1.7679,0.0,0.0,-1.9084,0.0,0.0,0.0,0.0,0.0,0.0,0.0,-1.5472,-1.4904,-1.2598,-1.0136,-0.9269,-0.8998,-0.4875,-0.495,-0.719,-0.6887,-0.9344,-1.2993,-1.4641,-1.6129,-1.7248,-1.6917,-1.6581,-1.6246,-1.5898,-1.5238,-1.4868,-1.5752,-1.5482,-1.5278,-1.6746,-1.6792,-1.6626,-1.7152,-1.6909,-1.6411,-1.572,-1.4372,-1.2661,-1.0629,-0.9943,-0.9636,0.0,0.0,0.0,0.0,0.0,0.0,0.0,0.0,0.0,0.0,-0.2906,0.0,0.0,-0.3416,0.0,0.0,0.0,0.0,-0.3379,-0.345,-0.3176,-0.2397,-0.2343,-0.1953,-0.1284,-0.1229,-0.0838,-0.0224,-0.0224,-0.0224,-0.0224,-0.0112,-0.0112,-0.0112,-0.0056,0.0,0.0,0.0,0.0,0.0056,0.0727,0.1006,0.1118,0.0,0.0,0.0,0.0,0.0,0.0,0.0,-1.4363,-1.4473,-1.5153,-1.5009,-1.4978,-1.5349,-1.5482,-1.568,-1.5849,-1.5645,-1.5491,-1.5434,-1.5129,-1.5108,-1.5461,-1.589,-1.6543,-1.7519,-1.7747,-1.7622,0.0,0.0,0.0,0.0,0.0,0.0,0.0,0.0,-1.7838,-1.7262,-1.676,-1.5867,-1.45,-1.099,-0.8749,-0.7034,-0.2548,-0.1619,-0.2852,-0.3854,-0.6698,-1.0287,-1.2249,-1.4733,-1.6993,-1.6841,-1.6421,-1.5983,-1.5856,-1.5359,-1.4932,-1.5344,-1.5552,-1.5815,-1.6473,-1.7019,-1.7449,-1.7733,-1.7394,-1.6714,-1.576,-1.3475,-1.124,-0.977,-0.9152,-0.8708,-0.8214,0.0,0.0,0.0,0.0,0.0,0.0,0.0,0.0,0.0,0.0,0.0,0.0,0.0,0.0,0.0,0.0,0.0,-0.2543,0.0,-0.2508,-0.223,-0.1786,-0.1396,-0.1062,-0.0223,0.0391,0.0671,0.1118,0.134,0.134,0.134,0.134,0.134,0.134,0.134,0.134,0.134,0.134,0.1341,0.1675,0.1786,0.1842,-1.2538,0.0,-1.296,0.0,-1.323,-1.325,-1.3017,-1.2967,-1.2927,-1.3008,-1.3254,-1.3717,-1.4351,-1.4824,-1.5219,-1.5588,-1.5253,-1.5133,-1.5297,-1.4707,-1.4474,-1.4807,-1.5242,0.0,-1.6954,-1.7353,-1.7266,-1.6642,-1.8198,0.0,0.0,0.0,0.0,0.0,-1.8123,-1.8228,-1.9039,-1.7728,-1.6781,-1.5798,-1.1951,-0.8329,-0.4873,-0.119,0.0806,0.1245,-0.1828,-0.4925,-0.8032,-1.1109,-1.4166,-1.6659,-1.6659,-1.6274,-1.5799,-1.5799,-1.5477,-1.5134,-1.5255,-1.5609,-1.6061,-1.6564,-1.7239,-1.7855,-1.8257,-1.7907,-1.7098,-1.5453,-1.2829,-1.0476,-0.9296,-0.8733,-0.8172,-0.7416,0.0,0.0,0.0,0.0,0.0,0.0,-0.3539,-0.3144,-0.2692,-0.2534,0.0,0.0,0.0,0.0,0.0,0.0,0.0,0.0,0.0,0.0,-0.089,-0.039,-0.0112,-0.0112,0.0949,0.1396,0.1452,0.1952,0.2174,0.2174,0.2174,0.2174,0.2174,0.2174,0.2174,0.2174,0.2174,0.2174,0.2232,0.2454,0.2565,0.2619,-1.2439,-1.2044,-1.1768,-1.2464,-1.2337,-1.1969,-1.1592,-1.1525,-1.1601,-1.1769,-1.149,-1.1912,-1.3622,-1.3815,-1.4318,-1.5499,-1.4618,-1.4277,-1.4864,-1.4271,-1.4057,0.0,0.0,-1.5607,-1.6677,-1.7036,-1.6353,-1.4638,0.0,0.0,-1.5705,0.0,-1.8762,-1.6468,-1.9082,-1.8799,-1.6452,-1.8075,-1.771,-1.5702,-1.241,-0.806,-0.3256,-0.0747,0.2222,0.4375,-0.0688,-0.3943,-0.6618,-1.1752,-1.4742,-1.6301,-1.6301,-1.6067,-1.5799,-1.5799,-1.5477,-1.5195,-1.5668,-1.5463,-1.5527,-1.7258,-1.7305,-1.7247,-1.8605,-1.8496,-1.7328,-1.4742,-1.2451,-1.0539,-0.9332,-0.8882,-0.8371,-0.7446,0.0,0.0,0.0,0.0,0.0,0.0,-0.3249,-0.2549,-0.2054,-0.2027,0.0,0.0,0.0,0.0,0.0,0.0,0.0,-0.0056,0.0666,0.0,0.2119,0.2174,0.2174,0.2174,0.2174,0.2174,0.2174,0.2174,0.2174,0.2174,0.2174,0.2174,0.2174,0.2174,0.2174,0.2174,0.2174,0.2174,0.2286,0.3067,0.3345,0.34,-1.0538,-1.0458,-1.0322,-1.0588,-1.0744,-1.081,-1.0701,-1.0898,-1.0964,-1.0842,-1.1072,-1.1323,-1.1727,-1.2426,-1.3053,0.0,-1.3229,-1.3143,0.0,-1.3095,-1.2859,-1.2636,-1.3683,-1.4387,-1.4576,-1.5585,-1.5836,-1.5277,0.0,0.0,0.0,-1.9171,-1.9426,-1.8991,-1.9902,-1.9857,-1.911,-1.9465,-1.8184,-1.5729,-1.3407,-0.9421,-0.4525,-0.1499,0.1239,0.3259,0.173,-0.1674,-0.5865,-0.8559,-1.2375,-1.5898,-1.5565,-1.5624,-1.5799,-1.5799,-1.5697,-1.561,-1.577,-1.5995,-1.6335,-1.6889,-1.7584,-1.8239,-1.8652,-1.7833,-1.6481,-1.4939,-1.2617,-1.0749,-1.032,-0.9402,-0.8341,-0.7261,-0.7006,0.0,0.0,0.0,0.0,0.0,-0.2522,-0.2453,-0.1456,-0.132,0.0,0.0,0.0,0.0,0.0,0.0,0.0,0.0,0.1448,0.0,0.2174,0.2174,0.2174,0.223,0.273,0.3234,0.379,0.379,0.379,0.379,0.379,0.379,0.379,0.379,0.379,0.379,0.379,0.379,0.379,0.407,0.4125,0.4181,-0.9459,-0.9432,-0.9385,-0.9499,-0.9653,-0.9707,-0.9707,-0.9896,-1.0043,-1.0043,-1.0161,-1.0262,-1.025,-1.0761,0.0,-1.2415,-1.234,-1.2346,-1.2591,-1.239,-1.2102,-1.1811,-1.2812,-1.3432,-1.3598,-1.4586,0.0,-1.5567,-1.6551,-1.758,-1.8646,-1.892,-1.9381,-1.9978,-2.0207,-2.0319,-2.0284,-1.972,-1.8575,-1.6916,-1.4463,-1.1334,-0.7807,-0.4811,-0.2429,-0.0828,-0.1949,-0.4567,-0.7776,-0.9754,-1.2809,-1.5697,-1.5074,-1.5165,-1.5551,-1.5551,-1.5551,-1.558,-1.5741,-1.6069,-1.6413,-1.6652,-1.7324,-1.8089,-1.8597,-1.7842,-1.668,-1.5424,-1.3346,-1.1592,-1.1063,-0.9777,-0.8435,-0.7309,-0.6699,-0.5582,-0.3324,0.0,0.0,0.0,0.0,0.0,0.0,-0.0542,0.0,0.0,0.0,0.0,0.0,0.0,0.0,0.1952,0.2676,0.3065,0.3065,0.3065,0.3065,0.3065,0.3511,0.4015,0.4519,0.4519,0.4519,0.4519,0.4519,0.4519,0.4519,0.4519,0.4519,0.4519,0.4519,0.4519,0.4519,0.4519,0.4519,0.4519,-0.9048,-0.8883,-0.8784,0.0,-0.8823,0.0,-0.8646,-0.8646,-0.8788,-0.9146,-0.8831,-0.8693,-0.9117,-0.8832,-0.9585,-1.2005,0.0,0.0,0.0,-1.1908,-1.1653,-1.1627,-1.2044,-1.2645,-1.3402,-1.3902,-1.4544,-1.5369,-1.5694,-1.6447,-1.7596,-1.7969,-1.8682,-1.962,-2.0038,-2.0211,-2.0146,-1.9116,-1.8846,-1.8877,-1.5666,-1.3647,-1.2309,-0.9886,-0.789,-0.6797,-0.9773,-1.0925,-1.1414,-1.401,-1.5272,-1.5551,-1.4721,-1.4721,-1.5013,-1.5043,-1.5074,-1.5195,-1.5639,-1.577,-1.5919,-1.6457,-1.6605,-1.6977,-1.8242,-1.8188,-1.7427,-1.5891,-1.427,-1.274,-1.1498,-0.9925,-0.8544,-0.7524,-0.6515,-0.5167,-0.3105,0.0,0.0,0.0,0.0,0.0,-0.0947,0.0335,0.1174,0.0,0.0,0.0,0.0,0.0,0.3345,0.3287,0.407,0.4519,0.4519,0.4519,0.4519,0.4519,0.4529,0.4532,0.4532,0.4543,0.4549,0.4549,0.4549,0.4543,0.4532,0.4532,0.4532,0.4588,0.4588,0.4643,0.4698,0.4709,0.4698,0.4629,0.0,0.0,-0.7794,-0.7312,-0.7166,-0.7128,-0.7128,-0.7128,-0.7029,-0.6838,-0.705,-0.7333,-0.7532,-0.7814,-0.8447,-0.9518,-0.9497,-0.9484,-0.9596,-0.9834,-0.9982,-1.005,-1.0805,-1.138,-1.1611,-1.2412,-1.3201,-1.3898,-1.4893,-1.5758,-1.6562,-1.6702,-1.7789,-1.9582,-1.9397,-1.9708,-2.0318,-1.9755,-1.9191,-1.8583,-1.7559,-1.5592,-1.3063,-1.1253,-0.922,-0.7464,-0.8168,-0.9197,-1.0451,-1.2265,-1.3728,-1.4721,-1.4214,-1.4117,-1.4246,-1.4564,-1.4845,-1.5134,-1.5225,-1.5551,-1.5742,-1.5534,-1.5616,-1.6009,-1.6844,-1.6264,-1.5354,-1.4575,-1.3176,-1.1865,-1.105,-0.952,-0.8067,-0.708,-0.5663,-0.4028,-0.2282,-0.225,0.0,0.0,-0.033,0.0,0.0502,0.1395,0.2174,0.0,0.0,0.0,0.3901,0.4125,0.3956,0.3345,0.407,0.4519,0.4519,0.4519,0.4519,0.4519,0.4579,0.4636,0.464,0.4758,0.4809,0.4809,0.4809,0.4745,0.4636,0.4636,0.503,0.5644,0.5644,0.5984,0.652,0.6736,0.6478,0.6123,-0.7289,-0.7182,-0.7074,-0.6696,-0.6588,-0.6588,-0.6588,-0.6588,-0.6428,-0.6036,-0.6251,-0.6393,-0.6251,-0.647,-0.6807,-0.7113,-0.8088,-0.8716,-0.8716,-0.8941,-0.9093,-0.9119,-0.963,-1.0128,-1.0619,-1.1143,-1.199,-1.3258,-1.374,-1.4555,-1.5644,-1.6169,-1.7078,-1.8358,-1.9043,-1.9537,-1.9763,-1.9257,-1.8822,-1.8428,-1.7698,-1.6447,-1.4908,-1.4035,-1.2939,-1.1815,-1.1398,-1.1777,-1.2525,-1.2593,-1.3435,-1.436,-1.3522,-1.3555,-1.3901,-1.3901,-1.4214,-1.4596,-1.4783,-1.5013,-1.5206,-1.5198,-1.5538,-1.5965,-1.6333,-1.6122,-1.5527,-1.4312,-1.3159,-1.2074,-1.1031,-0.9243,-0.766,-0.6944,-0.547,-0.3797,-0.2055,-0.2002,-0.1603,-0.0164,0.0277,0.0669,0.1062,0.2063,0.2899,0.3345,0.3677,0.0,0.4562,0.4565,0.4363,0.3849,0.4294,0.4553,0.4565,0.4636,0.467,0.467,0.5155,0.5373,0.5376,0.5887,0.5872,0.5514,0.5932,0.5815,0.5432,0.5843,0.6249,0.6706,0.6706,0.6827,0.7115,0.7395,0.7203,0.688,-0.648,-0.6421,-0.6421,-0.6317,-0.6263,-0.6263,-0.6263,-0.6234,-0.613,-0.5736,-0.5702,-0.5533,-0.5217,-0.5173,-0.5216,-0.5303,-0.7078,-0.8211,-0.83,-0.83,-0.839,-0.8553,-0.8602,-0.9022,-0.9943,-1.0079,-1.0941,-1.2663,-1.2379,-1.3059,-1.4683,-1.5635,-1.6308,-1.6801,-1.857,-1.9145,-1.873,-1.8129,-1.7982,-1.8057,-1.684,-1.6432,-1.6538,-1.647,-1.6443,-1.6374,-1.5677,-1.533,-1.5006,-1.3572,-1.3557,-1.3894,-1.2754,-1.2975,-1.3602,-1.3151,-1.3331,-1.3789,-1.4278,-1.4475,-1.4607,-1.487,-1.5459,-1.587,-1.5658,-1.5982,-1.5809,-1.3914,-1.2974,-1.2075,-1.058,-0.8715,-0.7127,-0.6439,-0.5245,-0.3795,-0.1929,0.0,-0.1384,0.0,0.0824,0.1284,0.1396,0.2689,0.3538,0.3538,0.4176,0.4589,0.4718,0.4724,0.4667,0.4535,0.4587,0.4596,0.4724,0.4853,0.4918,0.4918,0.5775,0.6207,0.6267,0.714,0.7159,0.6489,0.728,0.714,0.6504,0.7225,0.7589,0.7714,0.7714,0.7651,0.7564,0.786,0.7773,0.7515,-0.5814,-0.5651,-0.5492,-0.4952,-0.4846,-0.4846,-0.4846,-0.4681,-0.4528,-0.4339,-0.4193,-0.4264,-0.4499,-0.4522,-0.4735,-0.526,-0.5642,-0.6033,-0.6556,-0.6598,-0.7021,-0.7995,-0.8036,-0.8316,-0.891,-0.9422,-1.0015,-1.0658,-1.0935,-1.1783,-1.3165,-1.3883,-1.4967,-1.6332,-1.7025,-1.7309,-1.7217,-1.6885,-1.672,-1.6547,-1.5628,-1.5285,-1.533,-1.497,-1.4847,-1.4847,-1.4724,-1.4164,-1.3439,-1.3183,-1.2706,-1.2187,-1.1982,-1.2282,-1.2638,-1.2174,-1.2354,-1.2906,-1.3756,-1.4312,-1.4475,-1.3642,-1.3889,-1.4012,-1.2765,-1.2483,-1.2164,-1.1023,-1.0342,-0.9502,-0.7893,-0.6901,-0.581,-0.4287,-0.3538,-0.2668,-0.1245,0.0,-0.0697,0.0774,0.1558,0.2286,0.2899,0.3889,0.448,0.448,0.4716,0.486,0.488,0.4884,0.4874,0.485,0.485,0.486,0.4884,0.4908,0.4918,0.4921,0.5902,0.6341,0.6408,0.7453,0.7861,0.7728,0.7861,0.7744,0.7506,0.7629,0.8126,0.8749,0.8749,0.9096,0.9646,0.9998,0.9771,0.9356,-0.5003,-0.4948,-0.4842,-0.4581,-0.4402,-0.4351,-0.4466,-0.4337,-0.4134,-0.4035,-0.3952,-0.3937,-0.395,-0.3976,-0.4064,-0.4372,-0.4364,-0.4482,-0.4774,-0.5389,-0.5953,-0.6459,-0.6501,-0.6917,-0.775,-0.895,-0.9601,-0.9772,-1.0242,-1.0917,-1.1812,-1.3604,-1.4385,-1.4386,-1.6475,-1.6464,-1.4913,-1.4969,-1.466,-1.41,-1.3753,-1.3638,-1.3641,-1.3695,-1.3671,-1.3671,-1.3444,-1.3107,-1.2659,-1.2129,-1.1875,-1.1737,-1.1468,-1.1726,-1.2066,-1.1847,-1.1957,-1.2268,-1.2914,-1.3265,-1.3456,-1.3536,-1.3726,-1.3678,-1.2609,-1.2307,-1.1758,-1.0034,-0.9188,-0.8393,-0.7025,-0.6054,-0.5074,-0.3877,-0.3279,0.0,-0.1113,-0.0647,-0.0055,0.1086,0.2236,0.3115,0.3523,0.4293,0.4813,0.4813,0.4877,0.4952,0.503,0.5033,0.507,0.5155,0.5077,0.5216,0.5713,0.5797,0.6093,0.6598,0.7511,0.7942,0.8011,0.8948,0.9128,0.8748,0.9198,0.9064,0.857,0.9074,0.9519,0.9843,0.9843,0.994,1.0154,1.0448,1.0287,0.996,-0.4525,-0.4525,-0.4473,-0.448,-0.405,-0.3859,-0.4326,-0.4032,-0.3686,-0.3602,-0.3507,-0.3395,-0.3197,-0.3185,-0.3185,-0.3185,-0.3179,-0.3303,-0.3602,-0.4439,-0.5009,-0.5303,-0.5303,-0.5743,-0.6722,-0.7941,-0.87,-0.8998,-0.9328,-0.9945,-1.0761,-1.126,-1.1836,-1.2446,-1.4176,-1.3881,-1.2113,-1.2584,-1.2388,-1.1723,-1.1452,-1.1447,-1.164,-1.2011,-1.2142,-1.2119,-1.1916,-1.1807,-1.16,-1.0864,-1.0847,-1.0998,-1.058,-1.0809,-1.126,-1.1271,-1.1319,-1.1518,-1.2196,-1.258,-1.2862,-1.342,-1.3608,-1.3429,-1.2562,-1.2052,-1.1217,-0.9213,-0.8242,-0.7339,-0.6164,-0.5229,-0.4317,-0.329,0.0,-0.2344,-0.0915,-0.0274,0.0395,0.1462,0.2755,0.3738,0.4044,0.4577,0.4982,0.502,0.5053,0.5135,0.5277,0.5284,0.547,0.5858,0.5639,0.6004,0.683,0.7086,0.7513,0.8179,0.9046,0.9486,0.9427,1.0271,1.0302,0.9658,1.0301,1.0238,0.9658,1.0301,1.0624,1.0624,1.0624,1.0421,1.0247,1.0537,1.0414,1.0254,-0.4494,-0.4494,-0.4494,-0.4494,-0.3292,-0.2751,-0.3853,-0.3095,-0.2333,-0.234,-0.2115,-0.1971,-0.1921,-0.1919,-0.1919,-0.1919,-0.1919,-0.2413,-0.3547,-0.3681,-0.42,-0.5265,-0.5303,-0.5497,-0.5991,-0.5853,-0.6435,-0.7717,-0.7524,-0.8388,-1.0122,-0.3976,-0.479,-1.1258,-0.7907,-0.728,-0.8804,-0.9707,-1.0075,-0.9961,-0.8668,-0.8597,-0.9291,-0.9506,-0.9571,-0.9619,-1.0088,-0.9983,-0.9603,-0.9533,-0.9244,-0.891,-0.8878,-0.9204,-0.9582,-0.9658,-0.9844,-1.0386,-1.1959,-1.3081,-1.3553,-1.2658,-1.265,-1.252,-1.1076,-0.9652,-0.8483,-0.7828,-0.6781,-0.5585,-0.4242,-0.3946,-0.3288,-0.1421,0.0,0.0,-0.0278,-0.0056,0.062,0.2219,0.3105,0.3918,0.4719,0.4974,0.5176,0.5318,0.546,0.5603,0.5745,0.5752,0.6179,0.7099,0.6996,0.7373,0.824,0.8526,0.8708,0.8777,0.9621,0.9923,0.9693,1.056,1.0815,1.0498,1.0561,1.0561,1.0498,1.0561,1.0624,1.0624,1.0624,1.0611,1.0598,1.0618,1.0611,1.0598,-0.3074,-0.3074,-0.3357,-0.4333,-0.3248,-0.2037,-0.16,-0.2401,-0.2528,-0.1012,-0.0769,-0.0672,-0.0672,-0.0672,-0.0403,0.0358,0.0446,0.0223,-0.0223,-0.0934,-0.2222,-0.4152,-0.4224,-0.4303,-0.4477,-0.49,-0.4747,-0.3998,-0.4108,-0.3877,-0.3265,-0.0713,-0.1578,-0.5251,-0.4356,-0.4658,-0.5914,-0.6775,-0.6594,-0.5776,-0.6028,-0.6369,-0.6799,-0.715,-0.7724,-0.8391,-0.86,-0.8802,-0.8973,-0.8973,-0.8861,-0.8716,-0.8716,-0.8947,-0.9241,-0.9434,-0.9771,-1.024,-1.0849,-1.1296,-1.1556,-1.1422,-1.1474,-1.1163,-0.9745,-0.899,-0.812,-0.6634,-0.557,-0.4632,-0.3691,-0.3106,-0.2422,-0.1204,0.0,-0.0936,0.0502,0.1193,0.1977,0.3188,0.405,0.4744,0.5311,0.5382,0.5477,0.5623,0.5688,0.5745,0.5796,0.6365,0.7425,0.8974,0.9173,0.9346,0.9468,0.9558,0.9881,1.0441,1.0723,1.0878,1.0782,1.1121,1.1102,1.0828,1.0828,1.0828,1.0815,1.0698,1.0732,1.0808,1.0628,1.0624,1.0624,1.0624,1.0624,1.0624,-0.1676,-0.1507,-0.1845,-0.2919,-0.219,-0.1175,-0.0152,-0.1388,-0.1596,0.081,0.1123,0.0988,0.0627,0.0583,0.0897,0.1706,0.1789,0.1964,0.2324,0.1495,-0.0087,-0.2449,-0.2529,-0.2515,-0.2483,-0.2887,-0.2374,-0.0918,-0.012,0.1137,0.2857,0.5363,0.4839,0.1828,0.1196,-0.032,-0.2482,-0.3513,-0.3373,-0.2518,-0.3159,-0.3644,-0.4033,-0.4488,-0.5408,-0.6469,-0.6649,-0.7127,-0.7619,-0.7619,-0.7619,-0.7682,-0.796,-0.8301,-0.8655,-0.8837,-0.9029,-0.9185,-0.9185,-0.9111,-0.9292,-1.0226,-1.0289,-0.982,-0.8619,-0.8041,-0.7186,-0.5525,-0.4597,-0.3773,-0.2785,-0.2174,-0.1619,-0.0895,-0.0727,-0.0281,0.0964,0.1909,0.2858,0.3781,0.4624,0.525,0.5559,0.5589,0.5671,0.5861,0.5874,0.6037,0.6375,0.7676,0.897,1.0266,1.0881,1.1075,1.0975,1.0818,1.1057,1.1697,1.1697,1.165,1.1563,1.1563,1.1403,1.1129,1.1129,1.1129,1.1102,1.0815,1.0815,1.0975,1.0775,1.0641,1.0631,1.0661,1.0641,1.0624,-0.0561,0.0056,0.0056,-0.0,-0.0,-0.0,-0.0,-0.0,0.0894,0.3266,0.3615,0.3149,0.1966,0.183,0.183,0.183,0.183,0.2324,0.3551,0.3285,0.2136,-0.0083,-0.0166,-0.0081,0.0039,0.0629,0.0975,0.1072,0.4271,0.6253,0.7241,1.5249,1.5561,0.9417,0.9499,0.6619,0.1616,0.0081,-0.066,-0.0784,-0.0084,-0.0213,-0.0929,-0.1542,-0.2468,-0.3585,-0.4152,-0.4769,-0.5303,-0.5308,-0.5308,-0.5435,-0.6304,-0.705,-0.7585,-0.7585,-0.7291,-0.6985,-0.6985,-0.6822,-0.7106,-0.9165,-0.9179,-0.8462,-0.7764,-0.6494,-0.5261,-0.4539,-0.3831,-0.2899,-0.1397,-0.1118,-0.0838,-0.0112,0.0,0.034,0.1171,0.1996,0.2881,0.3885,0.468,0.5254,0.5562,0.5593,0.5715,0.601,0.603,0.6543,0.7774,0.9739,1.0783,1.0789,1.1774,1.2452,1.2822,1.2452,1.2305,1.2305,1.2305,1.2151,1.187,1.187,1.171,1.143,1.143,1.143,1.141,1.1116,1.0995,1.1002,1.0995,1.0822,1.0665,1.0895,1.0815,1.0624,0.2581,0.3147,0.2805,0.1732,0.1384,0.1274,0.1261,0.1285,0.1542,0.2241,0.3054,0.3462,0.3093,0.3766,0.426,0.426,0.4508,0.4617,0.4517,0.4275,0.3885,0.3338,0.3364,0.383,0.4834,0.5014,0.5931,0.759,0.9687,1.1124,1.2004,1.5807,1.5343,1.1307,1.1518,0.9035,0.455,0.3368,0.2811,0.2686,0.2169,0.1572,0.0925,0.0309,-0.0925,-0.2378,-0.2988,-0.3829,-0.4744,-0.5261,-0.545,-0.556,-0.6126,-0.6436,-0.6672,-0.6851,-0.6797,-0.6744,-0.6744,-0.664,-0.6745,-0.7368,-0.7368,-0.7052,-0.6288,-0.5416,-0.4542,-0.3834,-0.2672,-0.1619,-0.1174,-0.0671,-0.0282,-0.0058,0.0522,0.1171,0.2052,0.296,0.3836,0.4671,0.5186,0.5528,0.5722,0.5837,0.6271,0.7227,0.7921,0.8769,0.9879,1.0484,1.1247,1.2138,1.2454,1.2759,1.3066,1.2559,1.2405,1.2612,1.2405,1.2258,1.2171,1.2171,1.2011,1.1737,1.1737,1.1737,1.1717,1.1416,1.1416,1.159,1.1376,1.1243,1.1176,1.1263,1.1109,1.0862,0.3254,0.4104,0.4219,0.3246,0.2853,0.262,0.252,0.2499,0.2504,0.2499,0.3135,0.3677,0.3891,0.4517,0.5057,0.5281,0.5567,0.5553,0.5176,0.5001,0.5086,0.5496,0.5825,0.6288,0.6841,0.7497,0.8759,1.072,1.2622,1.4062,1.5088,1.6975,1.6439,1.3863,1.3678,1.141,0.764,0.6448,0.5728,0.5244,0.4375,0.3557,0.2762,0.2163,0.0838,-0.0793,-0.141,-0.2228,-0.3131,-0.3826,-0.4274,-0.4613,-0.4864,-0.5028,-0.5104,-0.5271,-0.5089,-0.4875,-0.4875,-0.4875,-0.4875,-0.4875,-0.5311,-0.5479,-0.4436,-0.3828,-0.3332,-0.2619,-0.173,-0.101,-0.074,-0.0286,0.0116,0.0477,0.0958,0.1693,0.2925,0.3653,0.4389,0.5173,0.5525,0.5732,0.5878,0.6338,0.7159,0.8485,0.9586,1.049,1.11,1.1566,1.2113,1.2919,1.2926,1.3073,1.338,1.2779,1.2565,1.2822,1.2565,1.2418,1.2305,1.2305,1.2204,1.2037,1.2037,1.2037,1.2017,1.1724,1.171,1.185,1.167,1.153,1.1443,1.1557,1.1343,1.0995,0.2399,0.3583,0.4601,0.4584,0.4341,0.4093,0.3823,0.3775,0.3766,0.3755,0.3755,0.3921,0.4409,0.4509,0.4774,0.5277,0.5586,0.567,0.5561,0.5594,0.5934,0.6658,0.745,0.7671,0.7233,0.8691,1.0143,1.1526,1.3768,1.5511,1.6788,1.8455,1.8294,1.6617,1.5737,1.3622,1.0655,0.9235,0.8085,0.7121,0.6523,0.5583,0.4547,0.3923,0.2615,0.1069,0.0402,-0.0229,-0.0902,-0.1579,-0.2357,-0.3016,-0.3016,-0.3081,-0.3209,-0.3209,-0.2722,-0.2174,-0.2174,-0.2174,-0.2174,-0.212,-0.3053,-0.371,-0.245,-0.2174,-0.1898,-0.1229,-0.1064,-0.0794,0.0,0.0118,0.0418,0.1292,0.1486,0.2129,0.3798,0.4175,0.4633,0.552,0.5735,0.5881,0.6183,0.7182,0.8463,0.9781,1.1124,1.1822,1.1822,1.2718,1.3213,1.3213,1.3213,1.334,1.3519,1.306,1.2869,1.2862,1.2808,1.2565,1.2305,1.2305,1.2305,1.2305,1.2305,1.2305,1.2278,1.2017,1.1911,1.1911,1.1911,1.1744,1.1536,1.181,1.155,1.1069,0.4027,0.486,0.5479,0.5051,0.5305,0.5441,0.5137,0.4997,0.4923,0.4918,0.4918,0.49,0.4817,0.5418,0.5752,0.5646,0.6698,0.7022,0.6194,0.6745,0.7215,0.7456,0.867,0.9756,1.0614,1.1194,1.2341,1.4114,1.5443,1.6764,1.804,1.8934,1.8535,1.7025,1.6092,1.4528,1.2409,1.062,0.9711,0.9349,0.7977,0.7037,0.6331,0.5315,0.4188,0.3023,0.1952,0.086,-0.0249,-0.1541,-0.2133,-0.2369,-0.2369,-0.2435,-0.2449,-0.2449,-0.2339,-0.2174,-0.2174,-0.2174,-0.2063,-0.1507,-0.1169,-0.1166,-0.2006,-0.173,-0.1284,-0.1118,-0.0628,0.0,0.088,0.102,0.1293,0.2277,0.3045,0.3718,0.4097,0.4908,0.5503,0.5752,0.5888,0.6406,0.7471,0.9534,1.0897,1.1243,1.2282,1.2883,1.2883,1.3048,1.3213,1.3213,1.3213,1.324,1.3307,1.3173,1.3113,1.3106,1.2625,1.2365,1.2305,1.2305,1.2305,1.2305,1.2305,1.2305,1.2298,1.2231,1.2204,1.2204,1.2204,1.2171,1.2118,1.2184,1.1984,1.1643,0.4846,0.5535,0.5951,0.5672,0.5839,0.5909,0.5558,0.537,0.5303,0.5303,0.5303,0.5307,0.5289,0.6056,0.6739,0.7118,0.8103,0.8336,0.7484,0.8594,0.9235,0.917,1.0737,1.2154,1.3329,1.4182,1.4998,1.5798,1.7082,1.8144,1.9044,1.9517,1.9143,1.805,1.671,1.5316,1.3792,1.2035,1.1175,1.0836,0.9476,0.8584,0.7962,0.6626,0.5717,0.4956,0.3429,0.1909,0.0518,-0.0269,-0.0826,-0.1174,-0.1174,-0.1174,-0.1174,-0.1174,-0.0893,-0.0613,-0.0613,-0.039,0.0,0.039,0.078,0.0668,-0.0837,-0.0559,-0.0168,-0.0514,0.0058,0.0772,0.1222,0.1679,0.2291,0.3251,0.3857,0.4412,0.4886,0.5522,0.5911,0.5911,0.6488,0.7555,0.9351,1.0976,1.2095,1.2588,1.3215,1.3627,1.3627,1.3627,1.3627,1.3627,1.3627,1.3627,1.3627,1.3487,1.3414,1.3407,1.2799,1.2512,1.2512,1.2512,1.2599,1.2726,1.2579,1.2512,1.2505,1.2365,1.2305,1.2305,1.2305,1.2305,1.2305,1.2305,1.2118,1.1824,0.5379,0.5882,0.6283,0.623,0.6212,0.6139,0.5795,0.5666,0.5647,0.5728,0.5728,0.5851,0.6089,0.6693,0.7533,0.8556,0.9226,0.943,0.9037,1.0289,1.1089,1.113,1.2691,1.4082,1.5288,1.6741,1.735,1.7067,1.8449,1.9326,1.9718,1.9961,1.9701,1.895,1.725,1.5877,1.4728,1.315,1.2246,1.17,1.0723,0.9944,0.9195,0.7765,0.7011,0.6532,0.4871,0.3118,0.161,0.1382,0.0895,0.0392,0.0392,0.0392,0.0392,0.0392,0.0783,0.1284,0.1284,0.173,0.2174,0.2174,0.2286,0.2066,0.0733,0.0898,0.1129,0.0526,0.1003,0.1569,0.173,0.2394,0.3292,0.4317,0.4496,0.4818,0.5676,0.5973,0.6143,0.6289,0.7592,0.9261,1.1143,1.1996,1.2787,1.3632,1.3948,1.4088,1.4088,1.4088,1.4062,1.4015,1.4008,1.3988,1.3941,1.3694,1.3567,1.3567,1.3066,1.2903,1.2903,1.2903,1.2966,1.32,1.2939,1.2946,1.303,1.2777,1.2707,1.2806,1.2806,1.2806,1.2806,1.2592,1.2297,1.1911,0.5716,0.625,0.6625,0.6252,0.6826,0.7199,0.6828,0.6793,0.6959,0.7473,0.7551,0.7613,0.7857,0.7669,0.7754,0.8308,0.9135,0.9787,1.0235,1.0634,1.1357,1.2483,1.3063,1.4114,1.5775,1.74,1.8234,1.8172,1.9141,1.9662,1.9783,1.9931,1.9522,1.8596,1.7159,1.5914,1.487,1.32,1.2246,1.1737,1.1121,1.0312,0.9368,0.8408,0.7799,0.7364,0.6381,0.5153,0.3744,0.2502,0.2009,0.1898,0.1898,0.1898,0.1898,0.1898,0.1953,0.2063,0.2063,0.212,0.2174,0.2174,0.2676,0.2977,0.2315,0.2109,0.2084,0.2156,0.2279,0.2613,0.3624,0.3794,0.4201,0.5364,0.5555,0.5679,0.5902,0.6132,0.6608,0.7443,0.9693,1.1416,1.1916,1.306,1.3853,1.4028,1.4062,1.4088,1.4088,1.4088,1.3968,1.3707,1.3701,1.3581,1.3333,1.3293,1.3267,1.3267,1.3186,1.3146,1.3146,1.3146,1.3173,1.3206,1.3166,1.3452,1.4013,1.3969,1.4294,1.4807,1.4807,1.4807,1.4665,1.381,1.2997,1.2238,0.6252,0.6765,0.7144,0.7006,0.7537,0.7867,0.7638,0.7803,0.8054,0.8325,0.8341,0.823,0.7899,0.8202,0.8887,1.0031,1.1011,1.1626,1.1833,1.2884,1.3614,1.3906,1.5093,1.6215,1.7216,1.8408,1.9127,1.9356,1.9776,1.9986,1.996,1.9948,1.9507,1.8645,1.7082,1.5988,1.5169,1.357,1.2768,1.2508,1.1763,1.1318,1.0924,0.9308,0.8852,0.8878,0.759,0.594,0.4316,0.366,0.2892,0.2174,0.2174,0.2174,0.2174,0.2174,0.2508,0.2843,0.2843,0.3178,0.3527,0.3594,0.384,0.405,0.3884,0.3752,0.3507,0.2759,0.2993,0.3507,0.3987,0.4543,0.5067,0.5694,0.5874,0.5983,0.6135,0.6747,0.7744,0.9468,1.0999,1.2168,1.2877,1.3658,1.4088,1.4088,1.4088,1.4088,1.4088,1.4088,1.4028,1.3895,1.3895,1.3828,1.3701,1.3701,1.4015,1.4565,1.4015,1.3614,1.3454,1.3454,1.3547,1.3694,1.3527,1.3607,1.3845,1.3564,1.3925,1.4652,1.4464,1.4736,1.5163,1.4665,1.3954,1.3091]},{"header":{"parameterUnit":"m.s-1","parameterCategory":1,"la1":30.6,"la2":28.766,"lo1":-90.7593,"lo2":-88.6598,"dy":0.0162,"dx":0.0183,"nx":116,"ny":114,"refTime":"2023-08-24T00:00:00:Z","depth":0,"parameterNumber":3,"parameterNumberName":"V-component_of_WINDS"},"data":[0.0,0.0,0.0,0.0,0.0,0.0,0.0,0.0,0.0,0.0,0.0,0.0,0.0,0.0,0.0,0.0,0.0,0.0,0.0,0.0,0.0,0.0,0.0,0.0,0.0,0.0,0.0,0.0,0.0,0.0,0.0,0.0,0.0,0.0,0.0,0.0,0.0,0.0,0.0,0.0,0.0,0.0,0.0,0.0,0.0,0.0,0.0,0.0,0.0,0.0,0.0,0.0,0.0,0.0,0.0,0.0,0.0,0.0,0.0,0.0,0.0,0.0,0.0,0.0,0.0,0.0,0.0,0.0,0.0,0.0,0.0,0.0,0.0,0.0,0.0,0.0,0.0,0.0,0.0,0.0,0.0,0.0,0.0,0.0,0.0,0.0,0.0,0.0,0.0,0.0,0.0,0.0,0.0,0.0,0.0,0.0,0.0,0.0,0.0,0.0,0.0,0.0,0.0,0.0,0.0,0.0,0.0,0.0,0.0,0.0,0.0,0.0,0.0,0.0,0.0,0.0,0.0,0.0,0.0,0.0,0.0,0.0,0.0,0.0,0.0,0.0,0.0,0.0,0.0,0.0,0.0,0.0,0.0,0.0,0.0,0.0,0.0,0.0,0.0,0.0,0.0,0.0,0.0,0.0,0.0,0.0,0.0,0.0,0.0,0.0,0.0,0.0,0.0,0.0,0.0,0.0,0.0,0.0,0.0,0.0,0.0,0.0,0.0,0.0,0.0,0.0,0.0,0.0,0.0,0.0,0.0,0.0,0.0,0.0,0.0,0.0,0.0,0.0,0.0,0.0,0.0,0.0,0.0,0.0,0.0,0.0,0.0,0.0,0.0,0.0,0.0,0.0,0.0,0.0,0.0,0.0,0.0,0.0,0.0,0.0,0.0,0.0,0.0,0.0,0.0,0.0,0.0,0.0,0.0,0.0,0.0,0.0,0.0,0.0,0.0,0.0,0.0,0.0,0.0,0.0,0.0,0.0,0.0,0.0,0.0,0.0,0.0,0.0,0.0,0.0,0.0,0.0,0.0,0.0,0.0,0.0,0.0,0.0,0.0,0.0,0.0,0.0,0.0,0.0,0.0,0.0,0.0,0.0,0.0,0.0,0.0,0.0,0.0,0.0,0.0,0.0,0.0,0.0,0.0,0.0,0.0,0.0,0.0,0.0,0.0,0.0,0.0,0.0,0.0,0.0,0.0,0.0,0.0,0.0,0.0,0.0,0.0,0.0,0.0,0.0,0.0,0.0,0.0,0.0,0.0,0.0,0.0,0.0,0.0,0.0,0.0,0.0,0.0,0.0,0.0,0.0,0.0,0.0,0.0,0.0,0.0,0.0,0.0,0.0,0.0,0.0,0.0,0.0,0.0,0.0,0.0,0.0,0.0,0.0,0.0,0.0,0.0,0.0,0.0,0.0,0.0,0.0,0.0,0.0,0.0,0.0,0.0,0.0,0.0,0.0,0.0,0.0,0.0,0.0,0.0,0.0,0.0,0.0,0.0,0.0,0.0,0.0,0.0,0.0,0.0,0.0,0.0,0.0,0.0,0.0,0.0,0.0,0.0,0.0,0.0,0.0,0.0,0.0,0.0,0.0,0.0,0.0,0.0,0.0,0.0,0.0,0.0,0.0,0.0,0.0,0.0,0.0,0.0,0.0,0.0,0.0,0.0,0.0,0.0,0.0,0.0,0.0,0.0,0.0,0.0,0.0,0.0,0.0,0.0,0.0,0.0,0.0,0.0,0.0,0.0,0.0,0.0,0.0,0.0,0.0,0.0,0.0,0.0,0.0,0.0,0.0,0.0,0.0,0.0,0.0,0.0,0.0,0.0,0.0,0.0,0.0,0.0,0.0,0.0,0.0,0.0,0.0,0.0,0.0,0.0,0.0,0.0,0.0,0.0,0.0,0.0,0.0,0.0,0.0,0.0,0.0,0.0,0.0,0.0,0.0,0.0,0.0,0.0,0.0,0.0,0.0,0.0,0.0,0.0,0.0,0.0,0.0,0.0,0.0,0.0,0.0,0.0,0.0,0.0,0.0,0.0,0.0,0.0,0.0,0.0,0.0,0.0,0.0,0.0,0.0,0.0,0.0,0.0,0.0,0.0,0.0,0.0,0.0,0.0,0.0,0.0,0.0,0.0,0.0,0.0,0.0,0.0,0.0,0.0,0.0,0.0,0.0,0.0,0.0,0.0,0.0,0.0,0.0,0.0,0.0,0.0,0.0,0.0,0.0,0.0,0.0,0.0,0.0,0.0,0.0,0.0,0.0,0.0,0.0,0.0,0.0,0.0,0.0,0.0,0.0,0.0,0.0,0.0,0.0,0.0,0.0,0.0,0.0,0.0,0.0,0.0,0.0,0.0,0.0,0.0,0.0,0.0,0.0,0.0,0.0,0.0,0.0,0.0,0.0,0.0,0.0,0.0,0.0,0.0,0.0,0.0,0.0,0.0,0.0,0.0,0.0,0.0,0.0,0.0,0.0,0.0,0.0,0.0,0.0,0.0,0.0,0.0,0.0,0.0,0.0,0.0,0.0,0.0,0.0,0.0,0.0,0.0,0.0,0.0,0.0,0.0,0.0,0.0,0.0,0.0,0.0,0.0,0.0,0.0,0.0,0.0,0.0,0.0,0.0,0.0,0.0,0.0,0.0,0.0,0.0,0.0,0.0,0.0,0.0,0.0,0.0,0.0,0.0,0.0,0.0,0.0,0.0,0.0,0.0,0.0,0.0,0.0,0.0,0.0,0.0,0.0,0.0,0.0,0.0,0.0,0.0,0.0,0.0,0.0,0.0,0.0,0.0,0.0,0.0,0.0,0.0,0.0,0.0,0.0,0.0,0.0,0.0,0.0,0.0,0.0,0.0,0.0,0.0,0.0,0.0,0.0,0.0,0.0,0.0,0.0,0.0,0.0,0.0,0.0,0.0,0.0,0.0,0.0,0.0,0.0,0.0,0.0,0.0,0.0,0.0,0.0,0.0,0.0,0.0,0.0,0.0,0.0,0.0,0.0,0.0,0.0,0.0,0.0,0.0,0.0,0.0,0.0,0.0,0.0,0.0,0.0,0.0,0.0,0.0,0.0,0.0,0.0,0.0,0.0,0.0,0.0,0.0,0.0,0.0,0.0,0.0,0.0,0.0,0.0,0.0,0.0,0.0,0.0,0.0,0.0,0.0,0.0,0.0,0.0,0.0,0.0,0.0,0.0,0.0,0.0,0.0,0.0,0.0,0.0,0.0,0.0,0.0,0.0,0.0,0.0,0.0,0.0,0.0,0.0,0.0,0.0,0.0,0.0,0.0,0.0,0.0,0.0,0.0,0.0,0.0,0.0,0.0,0.0,0.0,0.0,0.0,0.0,0.0,0.0,0.0,0.0,0.0,0.0,0.0,0.0,0.0,0.0,0.0,0.0,0.0,0.0,0.0,0.0,0.0,0.0,0.0,0.0,0.0,0.0,0.0,0.0,0.0,0.0,0.0,0.0,0.0,0.0,0.0,0.0,0.0,0.0,0.0,0.0,0.0,0.0,0.0,0.0,0.0,0.0,0.0,0.0,0.0,0.0,0.0,0.0,0.0,0.0,0.0,0.0,0.0,0.0,0.0,0.0,0.0,0.0,0.0,0.0,0.0,0.0,0.0,0.0,0.0,0.0,0.0,0.0,0.0,0.0,0.0,0.0,0.0,0.0,0.0,0.0,0.0,0.0,0.0,0.0,0.0,0.0,0.0,0.0,0.0,0.0,0.0,0.0,0.0,0.0,0.0,0.0,0.0,0.0,0.0,0.0,0.0,0.0,0.0,0.0,0.0,0.0,0.0,0.0,0.0,0.0,0.0,0.0,0.0,0.0,0.0,0.0,0.0,0.0,0.0,0.0,0.0,0.0,0.0,0.0,0.0,0.0,0.0,0.0,0.0,0.0,0.0,0.0,0.0,0.0,0.0,0.0,0.0,0.0,0.0,0.0,0.0,0.0,0.0,0.0,0.0,0.0,0.0,0.0,0.0,0.0,0.0,0.0,0.0,0.0,0.0,0.0,0.0,0.0,0.0,0.0,0.0,0.0,0.0,0.0,0.0,0.0,0.0,0.0,0.0,0.0,0.0,0.0,0.0,0.0,0.0,0.0,0.0,0.0,0.0,0.0,0.0,0.0,0.0,0.0,0.0,0.0,0.0,0.0,0.0,0.0,0.0,0.0,0.0,0.0,0.0,0.0,0.0,0.0,0.0,0.0,0.0,0.0,0.0,0.0,0.0,0.0,0.0,0.0,0.0,0.0,0.0,0.0,0.0,0.0,0.0,0.0,0.0,0.0,0.0,0.0,0.0,0.0,0.0,0.0,0.0,0.0,0.0,0.0,0.0,0.0,0.0,0.0,0.0,0.0,0.0,0.0,0.0,0.0,0.0,0.0,0.0,0.0,0.0,0.0,0.0,0.0,0.0,0.0,0.0,0.0,0.0,0.0,0.0,0.0,0.0,0.0,0.0,0.0,0.0,0.0,0.0,0.0,0.0,0.0,0.0,0.0,0.0,0.0,0.0,0.0,0.0,0.0,0.0,0.0,0.0,0.0,0.0,0.0,0.0,0.0,0.0,0.0,0.0,0.0,0.0,0.0,0.0,0.0,0.0,0.0,0.0,0.0,0.0,0.0,0.0,0.0,0.0,0.0,0.0,0.0,0.0,0.0,0.0,0.0,0.0,0.0,0.0,0.0,0.0,0.0,0.0,0.0,0.0,0.0,0.0,0.0,0.0,0.0,0.0,0.0,0.0,0.0,0.0,0.0,0.0,0.0,0.0,0.0,0.0,0.0,0.0,0.0,0.0,0.0,0.0,0.0,0.0,0.0,0.0,0.0,0.0,0.0,0.0,0.0,0.0,0.0,0.0,0.0,0.0,0.0,0.0,0.0,0.0,0.0,0.0,0.0,0.0,0.0,0.0,0.0,0.0,0.0,0.0,0.0,0.0,0.0,0.0,0.0,0.0,0.0,0.0,0.0,0.0,0.0,0.0,0.0,0.0,0.0,0.0,0.0,0.0,0.0,0.0,0.0,0.0,0.0,0.0,0.0,0.0,0.0,0.0,0.0,0.0,0.0,0.0,0.0,0.0,0.0,0.0,0.0,0.0,0.0,0.0,0.0,0.0,0.0,0.0,0.0,0.0,0.0,0.0,0.0,0.0,0.0,0.0,0.0,0.0,0.0,0.0,0.0,0.0,0.0,0.0,0.0,0.0,0.0,0.0,0.0,0.0,0.0,0.0,0.0,0.0,0.0,0.0,0.0,0.0,0.0,0.0,0.0,0.0,0.0,0.0,0.0,0.0,0.0,0.0,0.0,0.0,0.0,0.0,0.0,0.0,0.0,0.0,0.0,0.0,0.0,0.0,0.0,0.0,0.0,0.0,0.0,0.0,0.0,0.0,0.0,0.0,0.0,0.0,0.0,0.0,0.0,0.0,0.0,0.0,0.0,0.0,0.0,0.0,0.0,0.0,0.0,0.0,0.0,0.0,0.0,0.0,0.0,0.0,0.0,0.0,0.0,0.0,0.0,0.0,0.0,0.0,0.0,0.0,0.0,0.0,0.0,0.0,0.0,0.0,0.0,0.0,0.0,0.0,0.0,0.0,0.0,0.0,0.0,0.0,0.0,0.0,0.0,0.0,0.0,0.0,0.0,0.0,0.0,0.0,0.0,0.0,0.0,0.0,0.0,0.0,0.0,0.0,0.0,0.0,0.0,0.0,0.0,0.0,0.0,0.0,0.0,0.0,0.0,0.0,0.0,0.0,0.0,0.0,0.0,0.0,0.0,0.0,0.0,0.0,0.0,0.0,0.0,0.0,0.0,0.0,0.0,0.0,0.0,0.0,0.0,0.0,0.0,0.0,0.0,0.0,0.0,0.0,0.0,0.0,0.0,0.0,0.0,0.0,0.0,0.0,0.0,0.0,0.0,0.0,0.0,0.0,0.0,0.0,0.0,0.0,0.0,0.0,0.0,0.0,0.0,0.0,0.0,0.0,0.0,0.0,0.0,0.0,0.0,0.0,0.0,0.0,0.0,0.0,0.0,0.0,0.0,0.0,0.0,0.0,0.0,0.0,0.0,0.0,0.0,0.0,0.0,0.0,0.0,0.0,-0.0846,0.0,0.0,0.0,0.0,0.0,0.0,0.0,0.0,0.0,0.0,0.0,0.0,0.0,0.0,0.0,0.0,0.0,0.0,0.0,0.0,0.0,0.0,0.0,0.0,0.0,0.0,0.0,0.0,0.0,0.0,0.0,0.0,0.0,0.0,0.0,0.0,0.0,0.0,0.0,1.9965,2.0536,2.1104,2.1329,2.1362,2.1341,0.0,0.0,0.0,0.0,0.0,0.0,0.0,0.0,0.0,0.0,0.0,0.0,0.0,0.0,0.0,0.0,0.0,0.0,0.0,0.0,0.0,0.0,0.0,0.0,0.0,0.0,0.0,0.0,0.0,0.0,0.0,0.0,0.0,0.0,0.0,0.0,0.0,0.0,0.0,0.0,0.0,0.0,0.0,0.0,0.0,0.0,0.0,0.0,0.0,0.0,0.0,0.0,0.0,0.0,0.0,0.0,0.0,0.0,0.0,0.0,0.0,0.0,0.0,0.0,0.0,0.0,0.0,0.0,0.0,0.0,0.0,-0.0795,0.0,0.0,0.0,0.0,0.0,0.0,0.0,0.0,0.0,0.0,0.0,0.0,0.0,0.0,0.0,0.0,0.0,0.0,0.0,0.0,0.0,0.0,0.0,2.1758,2.1568,2.1175,2.0494,2.0127,0.0,0.0,0.0,0.0,0.0,0.0,0.0,1.8932,1.9371,1.9813,2.0018,2.0799,2.2131,2.3403,2.3757,2.3436,2.4432,0.0,0.0,0.0,0.0,0.0,0.0,0.0,0.0,0.0,0.0,0.0,0.0,0.0,0.0,0.0,0.0,0.0,0.0,0.0,0.0,0.0,0.0,0.0,0.0,0.0,0.0,0.0,0.0,0.0,0.0,0.0,0.0,0.0,0.0,0.0,0.0,0.0,0.0,0.0,0.0,0.0,0.0,0.0,0.0,0.0,0.0,0.0,0.0,0.0,0.0,0.0,0.0,0.0,0.0,0.0,0.0,0.0,0.0,0.0,0.0,0.0,0.0,0.0,0.0,0.0,0.0,0.0,0.0,0.0,0.0,0.0,-0.0057,-0.0792,0.0,0.0,0.0,0.0,0.0,0.0,0.0,0.0,0.0,0.0,0.0,0.0,0.0,0.0,0.0,0.0,0.0,0.0,0.0,0.0,0.0,2.2053,2.1899,2.242,2.1384,2.0717,2.0763,0.0,0.0,0.0,0.0,0.0,1.9585,1.966,1.9749,1.9817,2.0896,2.2349,2.414,2.5531,2.6032,2.5779,2.4281,2.4231,2.5201,0.0,0.0,0.0,0.0,0.0,0.0,0.0,0.0,0.0,0.0,0.0,0.0,0.0,0.0,0.0,0.0,0.0,0.0,0.0,0.0,0.0,0.0,0.0,0.0,0.0,0.0,0.0,0.0,0.0,0.0,0.0,0.0,0.0,0.0,0.0,0.0,0.0,0.0,0.0,0.0,0.0,0.5923,0.5753,0.0,0.0,0.0,0.0,0.0,0.0,0.0,0.0,0.0,0.0,0.0,0.0,0.0,0.0,0.0,0.0,0.0,0.0,0.0,0.0,0.0,0.0,0.0,0.0,0.0,0.0,-0.0061,-0.0768,0.0,0.0,0.0,0.0,0.0,0.0,0.0,0.0,0.0,0.0,0.0,0.0,0.0,0.0,0.0,0.0,0.0,0.0,0.0,0.0,0.0,2.2756,2.2756,2.2694,2.2583,2.2033,2.0983,2.047,0.0,0.0,0.0,1.8995,1.8907,1.9208,1.9716,2.0441,2.2041,2.3615,2.5158,2.6128,2.6768,2.6975,2.5734,2.4836,2.4229,2.3199,0.0,0.0,0.0,0.0,0.0,0.0,0.0,0.0,0.0,0.0,0.0,0.0,0.0,0.0,0.0,0.0,0.0,0.0,0.0,0.0,0.0,0.0,0.0,0.0,0.0,0.0,0.0,0.0,0.0,0.0,0.0,0.0,0.0,0.0,0.0,0.0,0.0,0.0,0.0,0.6508,0.588,0.5238,0.5234,0.5169,0.0,0.0,0.0,0.0,0.0,0.0,0.0,0.0,0.0,0.2273,0.2278,0.2243,0.2167,0.1457,0.1084,0.1016,0.0342,0.0,0.0,0.0,0.0,0.0,0.0,0.0,0.0,-0.0375,-0.0469,-0.0615,0.0,0.0,0.0,0.0,-0.4615,-0.4263,0.0,0.0,0.0,0.0,0.0,0.0,0.0,0.0,0.0,0.0,0.0,0.0,2.3378,2.3784,2.3985,2.3911,2.3896,2.3259,2.1735,2.1219,2.0007,1.7856,1.8711,1.8965,1.843,1.9274,2.0245,2.1349,2.3256,2.4849,2.6123,2.6797,2.7455,2.8068,2.7393,2.6202,2.4641,2.3151,2.227,2.1817,0.0,0.0,0.0,0.0,0.0,0.0,0.0,0.0,0.0,0.0,0.0,0.0,0.0,0.0,0.0,0.0,0.0,0.0,0.0,0.0,0.0,0.0,0.0,0.0,0.0,0.0,0.0,0.0,0.0,0.0,0.0,0.0,0.0,0.0,0.0,0.0,0.0,0.6337,0.5886,0.4913,0.5369,0.5569,0.0,0.0,0.0,0.0,0.0,0.0,0.3765,0.374,0.3801,0.3966,0.3973,0.3936,0.3773,0.2644,0.1924,0.1804,0.0537,0.0,0.0,0.0,0.0,0.0,0.0,0.0,0.0,0.0,0.0,-0.0116,-0.1437,-0.1947,-0.2058,-0.3398,-0.3517,-0.3006,0.0,0.0,0.0,0.0,0.0,0.0,0.0,0.0,0.0,0.0,0.0,2.3788,2.5226,2.5226,2.5671,2.7038,2.532,2.4013,2.3694,2.1704,2.0073,1.9057,1.9628,1.9651,1.8982,2.0668,2.1918,2.2606,2.456,2.6213,2.7535,2.8173,2.8846,2.9475,2.87,2.8349,2.8196,2.6213,2.5051,2.4543,2.515,0.0,0.0,0.0,0.0,0.0,0.0,0.0,0.0,0.0,0.0,0.0,0.0,0.0,0.0,0.0,0.0,0.0,0.0,0.0,0.0,0.0,0.0,0.0,0.0,0.0,0.0,0.0,0.0,0.0,0.0,0.0,0.0,0.0,0.0,0.0,0.0,0.0,0.0,0.5162,0.5769,0.0,0.0,0.0,0.0,0.5674,0.4517,0.4144,0.497,0.4356,0.3988,0.399,0.3985,0.3937,0.3844,0.2571,0.1932,0.1752,0.0564,0.0,0.0,0.0,0.0,0.0,0.0,0.0,0.0,0.0,0.0,-0.0064,-0.0868,-0.1164,-0.1221,-0.1892,-0.2206,-0.2247,0.0,0.0,0.0,0.0,0.0,0.0,0.0,0.0,2.0707,2.1575,2.2317,2.3413,2.531,2.5733,2.6318,2.7306,2.6606,2.5607,2.4323,2.2712,2.1322,2.0288,2.0048,2.0035,2.0207,2.162,2.2698,2.3406,2.5749,2.756,2.8876,2.952,3.0193,3.0821,3.0048,2.9792,2.96,2.6387,2.4639,2.3956,2.3055,2.2409,0.0,0.0,0.0,0.0,0.0,0.0,0.0,0.0,0.0,0.0,0.0,0.0,0.0,0.0,0.0,0.0,0.0,0.0,0.0,0.0,0.0,0.0,0.0,0.0,0.0,0.0,0.0,0.0,0.0,0.0,0.0,0.0,0.0,0.0,0.0,0.0,0.0,0.6013,0.6573,0.0,0.6271,0.595,0.5983,0.6369,0.5913,0.5936,0.6589,0.6427,0.6438,0.6553,0.6602,0.6452,0.6293,0.5069,0.3917,0.2948,0.1743,0.0735,0.0,0.0,0.0,0.0,0.0,0.0,0.0,0.0,0.0,-0.0068,-0.084,-0.1078,-0.1199,-0.1895,-0.185,-0.1507,0.0,0.0,0.0,0.0,0.0,0.0,0.0,0.0,2.0146,2.1207,2.2101,2.3441,2.5554,2.6382,2.7218,2.8223,2.7412,2.6246,2.4855,2.3093,2.1655,2.0602,2.0358,2.0515,2.117,2.2812,2.3902,2.4403,2.6783,2.8592,2.9909,3.0313,3.0986,3.1839,3.115,3.0851,3.0675,2.8071,2.6048,2.4474,2.3364,2.2956,2.2879,0.0,0.0,0.0,0.0,0.0,0.0,0.0,0.0,0.0,0.0,0.0,0.0,0.0,0.0,0.0,0.0,0.0,0.0,0.0,0.0,0.0,0.0,0.0,0.0,0.0,0.0,0.0,0.0,0.0,0.0,0.0,0.0,0.0,0.0,0.0,0.6661,0.6563,0.7082,0.7272,0.682,0.6776,0.6837,0.6993,0.7048,0.7227,0.758,0.7692,0.7838,0.8031,0.8038,0.7899,0.7604,0.6355,0.5053,0.3554,0.2357,0.1181,0.0,0.0,0.0,0.0,0.0,0.0,0.0,0.0,0.0,-0.0073,-0.0545,-0.0726,-0.0783,-0.1278,-0.1156,-0.0713,0.0,0.0,0.0,0.0,0.0,0.0,0.0,1.8656,2.0016,2.0593,2.2082,2.3887,2.6085,2.7164,2.8345,2.9867,2.7564,2.5835,2.5281,2.2734,2.0886,2.0049,2.0626,2.1257,2.1873,2.4298,2.5643,2.5704,2.7664,2.928,3.0537,3.0552,3.127,3.2512,3.1884,3.1541,3.1541,3.1541,2.9572,2.6465,2.6529,2.5481,2.3871,0.0,0.0,0.0,0.0,0.0,0.0,0.0,0.0,0.0,0.0,0.0,0.0,0.0,0.0,0.0,0.0,0.0,0.0,0.0,0.0,0.0,0.0,0.0,0.0,0.0,0.0,0.0,0.0,0.0,0.0,0.0,0.0,0.0,0.6279,0.6688,0.7044,0.6766,0.7255,0.7441,0.7007,0.7224,0.7455,0.76,0.774,0.7882,0.8031,0.8038,0.8038,0.8038,0.8035,0.7892,0.7604,0.6446,0.5106,0.3571,0.2373,0.1188,0.0,0.0,0.0,0.0,0.0,0.0,0.0,0.0,0.0,0.0,0.0,0.0,0.0,0.0,0.0,0.0,0.0,0.0,0.0,0.0,0.0,0.0,0.0,1.7089,1.8479,1.9933,2.1248,2.284,2.4822,2.6037,2.6912,2.7398,2.5777,2.4542,2.4106,2.1884,2.1188,2.2532,2.3147,2.4228,2.5879,2.5704,2.6287,2.7784,2.8801,2.9983,3.127,3.1734,3.2422,3.3215,3.3036,3.2961,3.2961,3.2961,3.162,2.9408,2.7743,2.6233,2.48,0.0,0.0,0.0,0.0,0.0,0.0,0.0,0.0,0.0,0.0,0.0,0.0,0.0,0.0,0.0,0.0,0.0,0.0,0.0,0.0,0.0,0.0,0.0,0.0,0.0,0.0,0.0,0.0,0.0,0.0,0.0,0.0,0.8613,0.6908,0.7041,0.7356,0.7489,0.775,0.7872,0.7746,0.7807,0.7872,0.7916,0.7953,0.7994,0.8038,0.8038,0.8038,0.8038,0.7933,0.7787,0.76,0.7204,0.5863,0.357,0.3233,0.2053,0.0,0.0,0.0,0.0,0.0,0.0,0.0,0.0,0.0,0.0,0.0,0.0,0.0,0.0,0.0,0.0,0.0,0.0,0.0,0.0,0.0,0.0,0.0,1.6286,1.7475,1.9241,2.0522,2.1896,2.3507,2.475,2.5458,2.5535,2.4569,2.3607,2.2758,2.1817,2.2191,2.4268,2.5487,2.6706,2.7938,2.7517,2.783,2.9011,2.9654,3.0642,3.1958,3.2617,3.3275,3.3903,3.3619,3.3499,3.3514,3.3784,3.3294,3.2154,3.0289,2.843,2.6608,2.4532,2.3778,2.3778,2.2774,2.2661,2.2887,2.1995,0.0,0.0,0.0,0.0,0.0,0.0,0.0,0.0,0.0,0.0,0.0,0.0,0.0,0.0,0.0,0.0,0.0,0.0,0.0,0.0,0.0,0.0,0.0,0.0,1.0044,0.9528,0.8333,0.7809,0.7641,0.7879,0.7984,0.8038,0.8038,0.8038,0.8038,0.8038,0.8038,0.8038,0.8038,0.8038,0.8038,0.8038,0.7953,0.7807,0.76,0.7512,0.6156,0.357,0.3629,0.2369,0.0,0.0,0.0,0.0,0.0,0.0,0.0,0.0,0.0,0.0,0.0,0.0,0.0,0.0,0.0,0.0,0.0,0.0,0.0,0.0,0.0,0.0,0.0,1.5922,1.6915,1.8598,1.987,2.1076,2.2242,2.3301,2.3871,2.3871,2.3415,2.2736,2.1693,2.2426,2.3777,2.5778,2.7777,2.8942,2.914,2.9576,2.9898,3.0045,3.0493,3.1414,3.2751,3.3351,3.3963,3.4562,3.3978,3.3724,3.3754,3.4337,3.4558,3.4456,3.3198,3.1275,2.8895,2.6697,2.6427,2.6992,2.546,2.4682,2.4268,2.3627,0.0,0.0,0.0,0.0,0.0,0.0,0.0,0.0,0.0,0.0,0.0,0.0,0.0,0.0,0.0,0.0,0.0,0.0,0.0,0.0,0.0,0.0,0.0,0.0,1.1356,1.0496,0.9884,0.8698,0.7885,0.8024,0.8038,0.8038,0.8038,0.8038,0.8038,0.8038,0.8038,0.8038,0.8038,0.0,0.0,0.0,0.0,0.7865,0.76,0.7567,0.6202,0.357,0.3585,0.2342,0.0,0.0,0.0,0.0,0.0,0.0,0.0,0.0,0.0079,0.0157,0.0076,0.0,0.0,0.0,0.0,0.0,0.0,0.0,0.0,0.0,0.0,0.0,0.0,1.5318,1.6286,1.8039,1.9298,2.0308,2.0971,2.1243,2.1394,2.1394,2.0818,2.0981,2.229,2.393,2.5972,2.852,3.0037,3.1368,3.2523,3.1646,3.1722,3.2839,3.2415,3.2859,3.4109,3.4257,3.4651,3.5295,3.5175,3.5115,3.513,3.525,3.5156,3.4824,3.3716,3.2173,3.0391,2.8389,2.7205,2.6584,2.5737,2.5963,2.649,2.5473,2.4871,2.4202,2.2136,2.0202,0.0,0.0,0.0,0.0,0.0,0.0,0.0,0.0,0.0,0.0,0.0,0.0,0.0,0.0,0.0,0.0,0.0,0.0,0.0,1.2632,1.1695,1.0715,1.0082,0.8776,0.8007,0.8035,0.8038,0.8038,0.8038,0.8038,0.8038,0.8038,0.8038,0.8038,0.8038,0.8038,0.8038,0.8038,0.7807,0.7658,0.76,0.7353,0.6025,0.357,0.0,0.0,0.0,0.0,0.0,0.0,0.0,0.0,0.0,0.0,0.0471,0.1171,0.0374,0.0,0.0,0.0,0.0,0.0,0.0,0.0,0.0,0.0,0.0,0.0,0.0,1.5139,1.6145,1.788,1.8857,1.9589,2.0161,2.0198,2.0198,2.0198,1.9884,2.0904,2.3755,2.5249,2.7453,3.0704,3.2211,3.3278,3.4032,3.3107,3.2919,3.3582,3.3208,3.3522,3.4527,3.4848,3.5175,3.5504,3.4986,3.4949,3.5204,3.5257,3.5321,3.5353,3.3994,3.3038,3.2081,3.0132,2.885,2.8084,2.7795,2.7695,2.7607,2.7042,2.6457,2.5517,2.3294,2.1677,2.0107,0.0,0.0,0.0,0.0,0.0,0.0,0.0,0.0,0.0,0.0,0.0,0.0,0.0,0.0,1.7097,0.0,0.0,1.5297,1.4536,1.2942,1.1643,1.1068,0.9291,0.8126,0.8048,0.8038,0.8038,0.8038,0.8038,0.8038,0.8038,0.8038,0.8038,0.8038,0.8038,0.8038,0.8038,0.7821,0.7672,0.76,0.737,0.6039,0.357,0.3585,0.2342,0.0,0.0594,0.0835,0.0827,0.1486,0.1722,0.162,0.1682,0.1977,0.2261,0.1729,0.1241,0.0712,0.0205,0.0,0.0,0.0,0.0,0.0,0.0,0.0,0.0,0.0,1.5217,1.6303,1.8025,1.8788,1.9339,1.9767,1.9697,1.9602,1.9531,1.9615,2.1268,2.4891,2.6062,2.8265,3.1974,3.364,3.4521,3.4568,3.4184,3.3986,3.3995,3.3959,3.4162,3.4685,3.5271,3.5424,3.5133,3.4394,3.4249,3.4626,3.4682,3.5039,3.5451,3.4025,3.3394,3.3151,3.1267,3.0269,2.9767,2.9541,2.875,2.7808,2.7908,2.7205,2.5965,2.3872,2.2748,2.1642,1.8435,1.6816,0.0,0.0,0.0,0.0,0.0,0.0,0.0,0.0,0.0,1.8398,1.9326,1.9354,1.8994,1.8469,1.7913,1.7294,1.6461,1.4211,1.2456,1.2066,0.9887,0.8214,0.8058,0.8038,0.8038,0.8038,0.8038,0.8038,0.8038,0.8038,0.8038,0.8038,0.8038,0.8038,0.8038,0.7865,0.7716,0.76,0.7417,0.6172,0.3926,0.3934,0.2779,0.0699,0.1706,0.2094,0.207,0.3104,0.3497,0.3339,0.3406,0.3441,0.345,0.3204,0.2758,0.2038,0.0765,0.0205,0.0,0.0,0.0,0.0,0.0,0.0,0.0,0.0,0.0,1.6785,1.8498,1.9555,2.0177,2.0212,1.9752,1.928,1.8841,1.9346,2.1083,2.438,2.5837,2.8083,3.1351,3.3495,3.4542,3.452,3.5093,3.5365,3.5381,3.5353,3.5351,3.5411,3.5435,3.5052,3.4177,3.4027,3.3873,3.3578,3.3578,3.3924,3.4477,3.3346,3.2667,3.223,3.1057,3.0269,2.9666,2.8649,2.7582,2.6716,2.7205,2.6628,2.55,2.4492,2.336,2.1755,1.8788,0.0,1.6105,1.6007,1.6047,0.0,1.7969,1.7822,1.8096,0.0,0.0,2.1152,2.2402,2.1814,2.0758,1.9853,1.8769,1.7705,1.6799,1.432,1.2511,1.2374,0.9965,0.8214,0.8058,0.8038,0.8038,0.8038,0.8038,0.8038,0.8038,0.8038,0.8038,0.8038,0.8038,0.8038,0.8038,0.777,0.7614,0.76,0.7312,0.6444,0.5179,0.5157,0.4454,0.3201,0.3311,0.3396,0.3354,0.3563,0.358,0.3584,0.343,0.3879,0.4576,0.3534,0.3612,0.411,0.2112,0.0783,0.0,0.0,0.0,0.0,0.0,0.0,0.0,0.0,0.0,0.0,1.7665,1.8806,1.9615,1.9929,1.9737,1.9515,1.9306,1.9525,2.0931,2.3795,2.5295,2.749,3.0729,3.2544,3.3632,3.3988,3.4644,3.5018,3.5004,3.5387,3.5521,3.5519,3.548,3.4986,3.3959,3.3449,3.3132,3.3064,3.3154,3.349,3.3987,3.3198,3.2669,3.2011,3.0241,2.9089,2.8273,2.7795,2.6716,0.0,2.5774,2.5322,2.4459,2.3316,2.2419,2.1297,1.8475,1.7432,0.0,1.7039,0.0,0.0,0.0,1.9239,2.0312,2.1504,2.1875,2.2275,2.331,2.3332,2.2511,2.0693,2.0039,1.9094,0.0,1.4591,1.282,1.245,1.0063,0.8272,0.7943,0.7984,0.8038,0.8038,0.8038,0.8038,0.8038,0.8038,0.8038,0.8038,0.8038,0.8038,0.8038,0.7753,0.76,0.76,0.7295,0.6517,0.5359,0.5468,0.4837,0.3659,0.4393,0.5107,0.5614,0.5589,0.5513,0.5546,0.5493,0.5553,0.5814,0.5305,0.4908,0.4442,0.2358,0.13,0.0858,0.0,0.0,0.0,0.0,0.0,0.0,0.0,0.0,0.0,0.0,1.814,1.9014,1.9413,1.9479,1.9406,1.9281,1.9244,2.0205,2.2495,2.3903,2.592,2.8763,3.0516,3.1726,3.2352,3.363,3.4241,3.4211,3.5078,3.5491,3.5523,3.522,3.4543,3.3602,3.2593,3.2246,3.2228,3.2332,3.2554,3.288,3.2489,3.1889,3.1107,2.9174,2.7695,2.6603,2.6603,2.5435,2.3929,2.4079,2.3665,2.291,2.1939,2.1307,2.0543,1.8207,1.7542,1.7394,1.7126,0.0,0.0,1.8428,2.0003,2.1451,2.1841,2.251,2.3213,2.3838,2.4209,2.3644,2.105,2.0702,1.9815,1.7223,1.4752,1.2986,1.2547,1.0158,0.833,0.7923,0.7933,0.7994,0.8035,0.8038,0.8038,0.8038,0.8038,0.8038,0.8038,0.8038,0.8038,0.8038,0.7753,0.76,0.76,0.7295,0.6694,0.5894,0.5986,0.5525,0.4643,0.5657,0.6509,0.7258,0.7115,0.7051,0.7044,0.6963,0.68,0.659,0.6505,0.6029,0.4991,0.317,0.2069,0.1466,0.0,0.0,0.0,0.0,0.0,0.0,0.0,0.0,0.0,0.0,0.0,0.0,0.0,1.8887,1.8688,1.8185,1.8145,1.8712,2.0103,2.1332,2.2852,2.4713,2.719,2.8777,2.9214,3.1919,3.3345,3.3366,3.4819,3.5523,3.5474,3.4528,3.3518,3.2593,3.1669,3.102,3.0633,3.0633,3.0645,3.0658,3.0645,2.9967,2.8863,2.7758,2.6314,2.4895,2.4895,2.3477,2.1669,2.2209,2.1656,2.0754,2.0676,2.0288,0.0,1.8388,1.7129,1.6057,0.0,0.0,1.6279,1.8789,1.9731,2.0683,2.3152,2.4043,2.4365,2.4394,2.4404,2.3644,2.105,2.0194,1.9335,1.7442,1.4723,1.276,1.2833,1.0339,0.837,0.8069,0.7906,0.7875,0.0,0.8038,0.8038,0.8038,0.8038,0.8038,0.8038,0.8038,0.8038,0.8038,0.7753,0.76,0.76,0.7295,0.7051,0.7051,0.7054,0.7054,0.6966,0.7208,0.7448,0.7577,0.7424,0.7356,0.7336,0.7048,0.6922,0.6885,0.6586,0.6559,0.6483,0.5078,0.3304,0.1434,0.0,0.0,0.0,0.0,0.0,0.0,0.0,0.0,0.0,0.0,0.0,0.0,0.0,0.0,0.0,0.0,1.8106,1.8617,1.9889,2.0778,2.1918,2.3433,2.5076,2.6378,2.7326,2.8741,2.9997,3.1119,3.1665,3.2112,3.2525,3.252,3.2013,3.1146,3.1156,3.1007,3.062,3.062,3.062,3.0545,2.9804,2.8647,2.7322,2.5599,2.3737,2.2063,0.0,2.0747,2.022,1.997,1.934,1.8525,1.801,1.7771,1.7684,1.7949,1.6702,1.556,1.7108,0.0,1.7204,1.9627,2.0863,2.2163,2.4185,2.4521,2.4502,2.4785,2.3721,2.2102,1.9855,1.8953,1.8045,1.6293,1.4998,1.3904,1.2946,1.1276,0.9576,0.8045,0.8024,0.0,0.0,0.0,0.0,0.8024,0.7943,0.7933,0.8035,0.8038,0.8038,0.8038,0.7753,0.7645,0.774,0.7444,0.7343,0.7444,0.7444,0.7492,0.7584,0.7543,0.755,0.759,0.7438,0.737,0.7356,0.7153,0.7014,0.6909,0.6705,0.6593,0.6441,0.5137,0.3809,0.2466,0.0,0.0,0.0,0.0,0.0,0.0,0.0,0.0,0.0,0.0,0.0,0.0,0.0,0.0,0.0,0.0,0.0,1.7862,1.8605,1.9193,1.993,2.0764,2.2034,2.3197,2.4184,2.5342,2.639,2.739,2.8098,2.873,2.9154,2.9588,2.948,2.9034,2.9574,2.9415,2.8639,2.886,2.8664,2.8151,2.7249,2.6154,2.4815,2.3089,2.1527,0.0,1.9073,1.8623,1.8462,1.8348,1.8004,1.7501,1.691,1.6956,1.7397,1.8035,1.7126,1.6296,1.8402,1.788,1.7435,1.9928,2.1253,2.2329,2.4113,2.4448,2.4365,2.4189,2.2939,2.1132,1.8571,1.7722,1.6838,1.5349,1.4558,1.3689,1.2765,1.1415,0.9867,0.8209,0.8052,0.8048,0.0,0.0,0.0,0.8018,0.7946,0.7936,0.8035,0.8038,0.8038,0.8038,0.7753,0.7668,0.7811,0.7519,0.7448,0.76,0.76,0.7675,0.7807,0.7716,0.7675,0.7665,0.7516,0.7421,0.736,0.7204,0.7088,0.699,0.6841,0.6722,0.6528,0.5683,0.443,0.2997,0.0,0.0,0.0,0.0,0.0,0.0,0.0,0.0,0.0,0.0,0.0,0.0,0.0,0.0,0.0,0.0,0.0,0.0,1.6455,1.6871,1.707,1.6999,1.8396,1.9377,1.9912,2.1818,2.2714,2.2395,2.4234,2.5282,2.5544,2.5699,2.5876,2.6194,2.6771,2.6311,2.5068,2.5627,2.5048,2.3826,2.329,2.2514,2.1556,2.0381,1.9591,1.8966,1.7868,1.7034,1.6549,1.7335,1.7612,1.76,1.7381,1.794,1.865,1.8737,1.847,1.8255,1.9313,1.8104,1.7234,1.9842,2.0836,2.1445,2.3105,2.3926,2.3994,2.2734,2.206,2.0704,0.0,0.0,1.5779,1.4665,1.3391,1.2517,1.2267,1.0934,0.9514,0.0,0.0,0.0,0.0,0.0,0.0,0.8018,0.0,0.8031,0.8038,0.8038,0.8038,0.8038,0.776,0.7678,0.7821,0.7546,0.7478,0.7621,0.7621,0.7692,0.7824,0.7824,0.7824,0.7814,0.7665,0.7516,0.737,0.7207,0.7139,0.7126,0.6976,0.6915,0.6878,0.6573,0.5167,0.3222,0.0,0.0,0.0,0.0,0.0,0.0,0.0,0.0,0.0,0.0,0.0,0.0,0.0,0.0,0.0,0.0,0.0,0.0,1.7478,1.7099,1.6875,1.6841,1.7014,1.7406,1.7906,1.7899,1.8283,1.9269,1.9839,2.0419,2.0991,2.1918,2.2545,2.2999,2.3565,2.3595,2.3292,2.3445,2.3237,2.2834,2.1864,2.0971,2.0107,1.8653,1.7613,1.6859,1.6171,1.5864,1.5856,0.0,0.0,0.0,0.0,1.9118,1.9844,2.1143,2.1367,2.1258,2.1558,2.0899,2.0293,2.0951,2.1456,2.2087,2.3229,2.3495,2.3213,2.2246,2.042,1.8271,0.0,0.0,0.0,1.3994,1.4694,0.0,1.276,1.2442,0.0,0.8611,0.0,0.8238,0.8058,0.797,0.0,0.0,0.7933,0.7919,0.8035,0.8038,0.8038,0.8038,0.7855,0.7828,0.798,0.7906,0.7889,0.7926,0.7926,0.7946,0.798,0.798,0.798,0.7967,0.7709,0.7577,0.7519,0.7251,0.7139,0.7115,0.6858,0.6759,0.6722,0.6424,0.552,0.4175,0.0,0.0,0.0,0.0,0.0,0.0,0.0,0.0,0.0,0.0,0.0,0.0,0.0,0.0,0.0,0.0,0.0,0.0,0.0,1.7051,1.6523,1.5954,1.5976,1.5961,1.588,1.5448,1.5352,1.5576,1.5843,1.6447,1.7305,1.8416,1.9331,2.0112,2.1054,2.1129,2.059,2.0831,2.0556,0.0,0.0,1.8374,1.775,1.6866,1.6236,1.5742,1.5498,0.0,0.0,0.0,0.0,1.8994,1.9873,2.0684,2.167,2.3418,0.0,2.3589,2.4287,2.3175,2.2139,2.2766,2.26,2.225,2.2347,2.2531,2.2041,2.0029,1.8467,0.0,0.0,0.0,0.0,0.0,0.0,0.0,1.2422,1.2505,1.1689,0.0,0.8377,0.0,0.8157,0.814,0.814,0.0,0.7997,0.7946,0.8035,0.8038,0.8038,0.8038,0.7889,0.7851,0.7936,0.8007,0.8038,0.8038,0.8038,0.8038,0.8038,0.8038,0.8004,0.7926,0.0,0.756,0.7482,0.7238,0.7139,0.7115,0.6892,0.6759,0.6671,0.6437,0.5677,0.453,0.0,0.0,0.0,0.0,0.0,0.0,0.0,0.0,0.0,0.0,0.0,0.0,0.0,0.0,0.0,0.0,0.0,0.0,0.0,0.0,1.6093,1.4919,1.51,1.4874,1.4085,1.3965,1.3305,1.2062,1.2546,1.3338,1.4419,1.5371,1.6397,1.7573,1.8984,1.8912,1.7836,1.83,1.7781,1.6648,1.6194,1.5752,1.541,0.0,1.541,1.541,0.0,0.0,0.0,0.0,2.0107,2.0518,2.1523,2.2637,2.3896,2.5586,2.5692,2.5645,2.6807,2.5219,2.3345,2.4569,2.359,2.2067,2.1098,2.1286,2.0674,1.7334,0.0,1.5676,1.3115,1.2736,1.264,1.2248,0.0,1.3176,1.1773,1.1994,1.1272,0.8776,0.8374,0.8292,0.8272,0.8289,0.8289,0.8272,0.8147,0.8062,0.8041,0.8038,0.8038,0.8038,0.7913,0.7841,0.7841,0.7974,0.8038,0.8038,0.8038,0.8038,0.8038,0.8038,0.7967,0.7831,0.7672,0.0,0.739,0.7214,0.7139,0.7126,0.6983,0.6834,0.6681,0.6529,0.582,0.4766,0.0,0.0,0.0,0.0,0.0,0.0,0.0,0.0,0.0,0.0,1.4468,1.5107,0.0,0.0,0.0,0.0,0.0,0.0,0.0,0.0,0.0,1.5303,1.4709,1.4025,1.3252,1.2565,1.1676,1.047,1.1106,1.1984,1.2978,1.3696,1.4676,1.5861,1.6738,1.6995,1.6798,1.6879,1.6738,1.6502,1.5781,1.5478,1.541,1.541,0.0,0.0,0.0,0.0,0.0,0.0,2.1113,2.2881,2.4463,2.5361,2.6094,2.7451,2.798,2.8124,2.7719,2.6428,2.5046,2.4977,2.359,2.2067,2.1098,2.0523,0.0,0.0,1.5615,1.4649,1.3128,1.2798,0.0,1.3396,0.0,0.0,0.0,0.0,1.1531,0.0,0.0,0.0,0.0,0.0,0.0,0.0,0.0,0.8174,0.8045,0.8038,0.8038,0.8038,0.8014,0.7997,0.7997,0.8024,0.8038,0.8038,0.8038,0.8038,0.8038,0.8038,0.8024,0.7984,0.7716,0.0,0.7539,0.7258,0.7139,0.7126,0.6983,0.6834,0.6681,0.6529,0.6301,0.5709,0.0,0.0,0.0,0.0,0.0,0.0,0.0,1.1882,1.2518,1.3075,1.3969,1.4686,1.5085,1.6417,1.6991,0.0,0.0,0.0,0.0,0.0,0.0,0.0,1.505,1.4264,1.3009,1.2634,1.1766,1.0347,0.0,1.1304,1.2205,1.2923,1.3797,1.4805,1.5575,1.5921,1.5921,1.6322,1.6492,1.6513,1.6407,1.6191,0.0,0.0,0.0,0.0,0.0,0.0,0.0,0.0,2.084,2.3164,2.5117,2.6035,2.6641,2.792,2.8584,2.8881,2.9022,2.8093,2.7151,2.7265,2.5221,2.2814,2.1392,0.0,0.0,0.0,1.4404,1.3657,1.2105,0.0,0.0,0.0,0.0,0.0,0.0,0.0,0.0,0.0,0.0,0.0,0.0,0.0,0.0,0.0,0.0,0.8204,0.8048,0.8038,0.8038,0.8038,0.8038,0.8038,0.8038,0.8726,0.8726,0.8038,0.8726,0.8627,0.8038,0.8038,0.829,0.8781,0.8532,0.0,0.8368,0.812,0.7665,0.7126,0.6983,0.6881,0.6793,0.6559,0.643,0.6198,0.0,0.0,0.0,0.0,0.0,0.0,0.0,1.1266,1.1931,1.2326,1.3451,1.4264,1.4291,1.5873,1.6457,0.0,0.0,0.0,0.0,0.0,0.0,0.0,0.0,0.0,0.0,0.0,0.0,0.0,0.0,0.0,0.0,0.0,0.0,0.0,0.0,1.569,1.5911,1.6482,1.681,0.0,0.0,0.0,0.0,0.0,0.0,0.0,0.0,0.0,0.0,0.0,1.9863,2.1904,2.3975,2.5439,2.6582,2.7588,2.8379,2.9101,2.9961,2.931,2.8591,2.9427,2.6733,2.3439,2.1585,1.9492,0.0,0.0,1.3437,1.29,1.1326,0.0,0.0,0.0,0.0,0.0,0.0,0.0,0.0,0.0,0.0,0.0,0.0,0.0,0.0,0.0,0.0,0.0,0.8045,0.8233,0.8432,0.8432,0.8726,0.8825,0.8825,0.9899,0.9899,0.8821,0.9899,0.9899,0.8825,0.8825,0.9217,0.9893,0.9796,0.0,0.0,0.8962,0.8193,0.7129,0.7017,0.6936,0.6851,0.661,0.6481,0.6327,0.0,0.0,0.0,0.0,0.0,0.0,0.0,1.0965,1.1832,1.1868,1.3045,1.3641,1.3113,1.5006,1.5825,0.0,0.0,0.0,0.0,0.0,0.0,0.0,0.0,0.0,0.0,0.0,0.0,0.0,0.0,0.0,0.0,0.0,0.0,0.0,0.0,0.0,0.0,1.7468,0.0,0.0,0.0,0.0,0.0,0.0,0.0,0.0,0.0,0.0,0.0,0.0,0.0,1.873,2.0488,2.3496,2.6406,2.6523,0.0,0.0,2.9961,2.931,2.8591,2.9427,2.6733,2.3439,2.1585,0.0,0.0,1.4053,1.3203,1.2715,1.1873,1.1276,1.0985,0.0,0.0,1.0916,0.0,0.0,0.0,0.0,0.0,0.0,0.0,0.0,0.0,0.0,0.0,0.0,0.8038,0.9118,0.9805,0.9805,1.0974,1.1556,1.1556,1.1653,1.1653,1.1556,1.1653,1.1653,1.1556,1.1556,1.1433,1.1303,1.1189,0.0,0.0,0.8962,0.8193,0.7139,0.7126,0.6956,0.6719,0.6692,0.6512,0.6197,0.0,0.0,0.0,0.0,0.0,0.0,0.9309,1.0012,1.0691,1.0962,1.2175,1.2922,1.2688,1.3831,1.4276,1.3579,0.0,0.0,0.0,0.0,0.0,0.0,0.0,0.0,0.0,0.0,0.0,1.0624,0.0,0.0,0.0,0.0,0.0,0.0,0.0,0.0,0.0,0.0,0.0,0.0,0.0,0.0,0.0,0.0,0.0,0.0,0.0,0.0,0.0,0.0,0.0,0.0,1.7812,1.999,0.0,0.0,2.5859,2.7353,2.8984,2.9661,2.9754,2.9342,2.6634,2.3644,2.1322,0.0,1.5684,1.3877,1.3174,1.2666,1.1922,1.1266,1.0753,1.0564,1.0044,0.0,0.0,0.0,0.0,0.0,0.0,0.0,0.0,0.0,0.0,0.0,0.0,0.0,1.0386,1.0877,1.117,1.117,1.1653,1.1945,1.1945,1.2716,1.2716,1.195,1.2716,1.2721,1.1945,1.1945,1.2035,1.2417,1.2323,0.0,0.0,1.0733,0.9831,0.8189,0.8189,0.8045,0.7835,0.7088,0.6705,0.6445,0.0,0.0,0.0,0.0,0.0,0.9254,0.8844,0.9361,0.9896,1.0242,1.127,1.2059,1.2265,1.2725,1.2874,1.2588,1.3704,0.0,0.0,0.0,0.0,0.0,0.0,0.0,0.0,0.0,1.145,1.0752,1.0895,0.0,0.0,0.0,0.0,0.0,0.0,0.0,0.0,0.0,0.0,0.0,0.0,0.0,0.0,0.0,0.0,0.0,0.0,0.0,0.0,0.0,0.0,0.0,0.0,0.0,0.0,0.0,2.374,2.5547,2.7305,2.874,2.9521,2.8594,2.6084,2.3242,0.0,0.0,1.5049,1.3769,1.3174,1.2666,1.1922,1.1266,1.0568,0.9917,0.9288,0.8947,0.0,0.0,0.0,0.0,0.0,0.0,0.0,0.0,0.0,0.0,0.0,0.0,1.2431,1.2818,1.2915,1.2528,1.2818,1.3011,1.3011,1.3974,1.3974,1.3011,1.398,1.398,1.3011,1.3011,1.322,1.3568,1.3568,0.0,0.0,1.1809,1.0956,0.889,0.9235,0.9117,0.8603,0.7712,0.7038,0.6688,0.0,0.0,0.0,0.0,0.0,0.0,0.8764,0.9361,0.9814,0.9821,1.0423,1.1074,1.1724,1.1823,1.1814,1.1814,1.283,0.0,0.0,0.0,0.0,0.0,0.0,0.0,0.0,0.0,1.1565,1.0989,1.0995,1.1136,1.141,1.1956,0.0,0.0,0.0,0.0,0.0,0.0,0.0,0.0,0.0,0.0,0.0,0.0,0.0,0.0,0.0,0.0,0.0,0.0,0.0,0.0,0.0,0.0,0.0,0.0,2.1455,2.3994,2.4873,2.6055,2.7051,2.7041,2.4766,2.207,0.0,0.0,1.5049,1.3769,1.3174,1.2666,1.1922,1.1266,1.0568,0.9917,0.9463,0.0,0.0,0.0,0.0,0.0,0.0,0.0,0.0,0.0,0.0,0.0,0.0,0.0,1.3878,1.5045,1.5146,1.3878,1.514,1.573,1.573,1.5737,1.5737,1.573,1.5737,1.5737,1.573,1.573,1.5511,0.0,0.0,0.0,0.0,1.1809,1.0956,0.8978,1.0178,0.9795,0.867,0.8474,0.7675,0.6658,0.0,0.0,0.0,0.0,0.0,0.0,0.0,0.9256,0.9263,0.9762,0.9961,1.0218,1.0415,1.0864,1.1116,1.1116,1.2818,0.0,0.0,0.0,0.0,0.0,0.0,0.0,0.0,0.0,1.1149,1.0995,1.1396,1.1536,1.1423,1.1594,1.1822,1.2235,0.0,0.0,0.0,0.0,0.0,0.0,0.0,0.0,0.0,0.0,0.0,0.0,0.0,0.0,0.0,0.0,0.0,0.0,0.0,0.0,0.0,1.6055,0.0,0.0,2.2129,2.3174,2.373,2.2822,2.1006,1.9053,1.7607,1.5635,1.3916,1.3223,1.2969,1.2832,1.2608,1.1584,1.0712,1.0517,0.9778,0.9262,0.0,0.0,0.0,0.0,0.0,0.0,0.0,0.0,0.0,0.0,0.0,0.0,1.5146,1.554,1.5635,1.5242,1.5635,1.5832,1.5832,1.5832,1.5832,1.5825,1.5625,1.5531,1.5524,1.5331,1.5023,0.0,0.0,0.0,0.0,1.3033,1.2601,1.13,1.1638,1.1494,1.0883,0.9276,0.8462,0.7938,0.0,0.0,0.0,0.0,0.0,0.0,0.0,0.9465,0.9263,0.9413,0.9413,0.951,0.9762,1.0167,1.0415,1.0415,1.2105,0.0,0.0,0.0,0.0,0.0,0.0,0.0,1.2512,1.1425,1.0989,1.1323,1.169,1.1884,1.1924,1.181,1.1806,1.1911,1.2482,0.0,0.0,0.0,0.0,0.0,0.0,0.0,1.6873,0.0,0.0,0.0,0.0,0.0,0.0,0.0,0.0,0.0,0.0,0.0,0.0,0.0,1.6578,1.8255,0.0,2.0156,2.0654,2.0,1.8545,1.7021,1.6035,1.4619,1.3389,1.2969,1.2881,1.2881,1.2881,1.194,1.1116,1.0864,1.0038,0.0,0.0,0.0,0.0,0.0,0.0,0.0,0.0,0.0,0.0,0.0,0.0,0.0,1.573,1.5832,1.5778,1.5671,1.5772,1.5832,1.5832,1.5832,1.5772,1.5665,1.5484,1.5337,1.5224,1.505,1.4803,0.0,0.0,0.0,0.0,1.3561,1.3379,1.2316,1.265,1.2517,1.1869,1.034,0.9461,0.891,0.0,0.0,0.0,0.0,0.0,0.0,0.0,0.9814,0.951,0.8962,0.8804,0.9061,0.9666,0.9718,0.9718,0.9718,0.0,0.0,0.0,0.0,0.0,0.0,0.0,0.0,1.1834,1.1031,1.1022,1.1837,1.1924,1.2245,1.2849,1.2518,1.2084,1.1503,1.2028,1.2561,0.0,0.0,0.0,0.0,0.0,0.0,0.0,0.0,0.0,0.0,0.0,0.0,0.0,0.0,0.0,0.0,0.0,0.0,0.0,0.0,0.0,0.0,0.0,1.7061,0.0,1.8135,1.7021,1.5732,1.5322,1.4316,0.0,1.2959,1.2881,1.2881,1.2881,1.2246,1.1516,1.0914,1.0205,0.0,0.0,0.0,0.0,0.0,0.0,0.0,0.0,0.0,0.0,0.0,0.0,0.0,1.5798,1.5798,1.5685,1.5438,1.5665,1.5792,1.5765,1.5792,1.5651,1.5364,1.5344,1.5197,1.493,1.491,1.475,0.0,0.0,0.0,0.0,1.3639,1.3444,1.2427,1.3315,1.2953,1.1946,1.1394,1.0655,0.9651,0.0,0.0,0.0,0.0,0.0,0.0,0.0,0.0,0.0,0.0,0.9106,0.8857,0.9008,0.9061,0.9061,0.0,0.0,0.0,0.0,0.0,0.0,0.0,0.0,0.0,1.1772,1.1435,1.1323,1.153,1.2445,1.2966,1.3106,1.326,1.3006,1.2486,1.2727,1.296,0.0,0.0,0.0,0.0,0.0,0.0,0.0,0.0,0.0,0.0,1.5293,1.5205,0.0,0.0,0.0,0.0,0.0,0.0,0.0,0.0,1.5049,1.4624,1.3987,0.0,1.4512,1.4287,1.3926,1.3603,0.0,1.3242,1.2998,0.0,0.0,1.2881,1.2881,1.1891,1.0965,1.0813,1.0178,0.0,0.0,0.0,0.0,0.0,0.0,0.0,0.0,0.0,0.0,0.0,0.0,1.5498,1.5498,1.5498,1.5571,1.5718,1.5578,1.5391,1.517,1.5384,1.5351,1.5064,1.4836,1.4689,1.4616,1.4396,1.4255,0.0,0.0,0.0,1.3335,1.3904,1.3649,1.3011,1.3418,1.3338,1.2801,1.1768,1.1272,1.0906,0.0,0.0,0.0,0.0,0.0,0.0,0.0,0.0,0.0,0.0,0.0,0.0,0.0,0.0,0.0,0.0,0.0,0.0,0.0,0.0,0.0,0.0,0.0,1.0807,1.1226,1.1252,1.1423,1.1824,1.2612,1.3206,1.3614,1.3634,1.332,1.2782,1.2747,1.2611,0.0,0.0,0.0,0.0,1.4688,0.0,0.0,0.0,0.0,0.0,1.4971,1.5186,0.0,1.6009,1.6253,1.6524,0.0,0.0,0.0,0.0,1.5137,1.4601,1.3272,1.3184,1.3447,1.3223,1.3164,1.3164,1.3164,0.0,0.0,0.0,0.0,0.0,1.2881,1.199,0.0,1.1036,1.0512,0.0,0.0,0.0,0.0,0.0,0.0,0.0,0.0,0.0,0.0,0.0,0.0,1.5197,1.5197,1.5197,1.5204,1.5231,1.5204,1.519,1.5164,1.519,1.505,1.4756,1.4596,1.4702,1.5057,1.4402,1.4337,0.0,0.0,0.0,1.3467,1.3761,1.3621,1.3213,1.3227,1.3133,1.2902,1.2125,1.1837,1.1682,0.0,0.0,0.0,0.0,0.0,0.0,0.0,0.0,0.0,0.0,0.0,0.0,0.0,0.0,0.0,0.0,0.0,0.0,0.0,0.0,0.0,0.0,1.0401,1.0645,1.0692,1.0868,1.1403,1.2238,1.2672,1.3293,1.4082,1.3968,1.3494,1.2775,1.2294,1.1931,0.0,0.0,0.0,0.0,1.4082,0.0,0.0,0.0,0.0,0.0,0.0,0.0,0.0,1.6356,1.698,1.7571,1.7966,0.0,0.0,0.0,0.0,0.0,1.3435,1.3381,1.3652,1.3467,1.3457,1.3486,1.3428,0.0,0.0,0.0,0.0,0.0,0.0,0.0,0.0,0.0,0.0,0.0,0.0,0.0,0.0,0.0,0.0,0.0,0.0,0.0,0.0,0.0,0.0,1.5239,1.5417,1.5417,1.53,1.495,1.5109,1.5342,1.5631,1.517,1.4831,1.4702,1.4702,1.512,1.5786,1.4906,1.4735,1.5158,0.0,0.0,1.316,1.3608,1.3454,1.3053,1.2909,1.2795,1.2721,1.2392,1.2305,1.215,0.0,0.0,0.0,0.0,0.0,0.0,0.0,0.0,0.0,0.0,0.0,0.0,0.0,0.0,0.0,0.0,0.0,0.0,0.0,0.0,0.0,1.01,1.0401,1.0739,1.0922,1.0969,1.1303,1.1937,1.2986,1.3707,1.4102,1.4796,1.4289,1.2732,1.1918,1.1254,1.0863,0.0,0.0,0.0,0.0,0.0,0.0,0.0,0.0,0.0,0.0,0.0,0.0,1.5159,1.5699,1.6038,1.718,0.0,0.0,0.0,0.0,0.0,1.3894,1.4093,1.4326,1.3252,1.3242,1.3418,1.3057,0.0,0.0,0.0,0.0,0.0,0.0,0.0,0.0,0.0,0.0,0.0,0.0,0.0,0.0,0.0,0.0,0.0,0.0,0.0,0.0,0.0,0.0,1.635,1.7294,1.7379,1.727,1.7138,1.6327,1.6244,1.6854,1.5326,1.4854,1.5536,1.5536,1.5837,1.6539,1.6389,1.5732,1.4721,0.0,1.465,1.2916,1.3981,1.3614,1.2465,1.2741,1.2667,1.2365,1.2318,1.2305,1.2305,0.0,0.0,0.0,0.0,0.0,0.0,0.0,0.0,0.0,0.0,0.0,0.0,0.0,0.0,0.0,0.0,0.0,0.0,0.0,0.0,0.8968,1.0334,1.004,1.0238,1.0989,1.1303,1.1837,1.2592,1.346,1.4115,1.4556,1.4322,1.3527,1.2251,1.1516,1.0955,1.0624,1.0982,0.0,0.0,0.0,0.0,0.0,0.0,0.0,0.0,0.0,0.0,0.0,0.0,1.5618,1.6092,1.672,0.0,0.0,0.0,0.0,0.0,1.4468,1.4419,1.4438,1.388,1.4128,1.4424,1.4004,0.0,0.0,0.0,0.0,0.0,0.0,0.0,0.0,0.0,0.0,0.0,0.0,0.0,0.0,0.0,0.0,0.0,0.0,0.0,0.0,0.0,0.0,0.0,1.7203,1.6943,1.6828,1.6748,1.6261,1.6182,1.6504,1.5717,1.5648,1.6228,1.5959,1.6337,1.7192,1.6638,1.6209,1.5964,0.0,1.5316,1.4139,1.4321,1.3879,1.3039,1.2668,1.2425,1.2305,1.2305,1.2592,1.2952,0.0,0.0,0.0,0.0,0.0,0.0,0.0,0.0,0.0,0.0,0.0,0.0,0.0,0.0,0.0,0.0,0.0,0.0,0.0,0.0,0.8221,1.0218,0.9658,0.9876,1.1089,1.1536,1.2204,1.3106,1.3694,1.4249,1.4736,1.3621,1.2659,1.1844,1.1256,1.0828,1.0618,1.0551,1.1305,0.0,0.0,0.0,0.0,0.0,0.0,0.0,0.0,0.0,0.0,0.0,0.0,0.0,0.0,0.0,0.0,1.6001,1.572,1.5499,1.5062,1.4755,1.4547,1.4422,0.0,1.4961,1.4941,0.0,0.0,0.0,0.0,0.0,0.0,0.0,0.0,0.0,0.0,0.0,0.0,0.0,0.0,0.0,0.0,0.0,0.0,0.0,0.0,0.0,0.0,0.0,1.7269,1.6995,1.6681,1.6502,1.6288,1.6246,1.63,1.6154,1.6355,1.696,1.6598,1.6957,1.7862,1.7011,1.6802,1.7054,1.6603,1.5959,1.5188,1.4887,1.4475,1.3954,1.3237,1.2945,1.2945,1.2945,1.3448,1.3954,0.0,0.0,0.0,0.0,0.0,0.0,0.0,0.0,0.0,0.0,0.0,0.0,0.0,0.0,0.0,0.0,0.0,0.0,0.0,0.0,0.8028,0.932,0.9338,0.9962,1.1315,1.1436,1.1891,1.2856,1.338,1.3841,1.4135,1.3292,1.2526,1.1844,1.1256,1.0828,1.0604,1.0267,1.0611,1.1426,0.0,0.0,0.0,0.0,0.0,0.0,0.0,0.0,0.0,0.0,0.0,0.0,0.0,0.0,1.7212,1.6629,1.6051,1.5588,1.5543,1.5296,1.4976,1.4516,1.4003,0.0,1.5098,1.5039,0.0,0.0,0.0,0.0,0.0,0.0,0.0,0.0,0.0,0.0,0.0,0.0,0.0,0.0,0.0,0.0,0.0,0.0,0.0,0.0,0.0,0.0,1.9024,1.9078,1.8691,1.7909,1.725,1.7015,1.7321,1.6693,1.6821,1.7596,1.7569,1.788,1.854,1.846,1.7788,1.6682,1.7508,1.6848,1.5234,1.6105,1.5886,1.5092,1.5021,1.5021,1.5021,1.5021,1.5021,1.5092,0.0,0.0,0.0,0.0,0.0,0.0,0.0,0.0,0.0,0.0,0.0,0.0,0.0,0.0,0.0,0.0,0.0,0.0,0.0,0.6216,0.6781,0.8409,0.7962,0.8498,1.0331,1.1057,1.177,1.2472,1.2886,1.324,1.352,1.2625,1.2157,1.1844,1.1256,1.0828,1.0604,1.0241,1.0583,1.127,1.1272,0.0,0.0,0.0,0.0,0.0,0.0,0.0,0.0,0.0,1.5234,1.5984,1.6355,1.6672,1.681,1.6584,1.6337,1.6151,1.6151,1.5891,1.5549,1.5061,0.0,0.0,0.0,0.0,0.0,0.0,0.0,0.0,0.0,0.0,0.0,0.0,0.0,0.0,0.0,0.0,0.0,0.0,0.0,0.0,0.0,0.0,0.0,0.0,0.0,0.0,1.8477,1.7988,1.7549,1.7227,1.6968,1.6826,1.6982,1.672,1.676,1.7081,1.7599,1.798,1.8252,1.8252,1.7948,1.7501,1.7872,1.7588,1.6941,1.6706,1.6419,1.6,1.5446,1.5587,1.5974,1.5116,1.5314,1.5939,0.0,0.0,0.0,0.0,0.0,0.0,0.0,0.0,0.0,0.0,0.0,0.0,0.0,0.0,0.0,0.0,0.0,0.0,0.5735,0.5355,0.5807,0.7402,0.6892,0.7404,0.9,0.9838,1.0898,1.2164,1.2278,1.2485,1.2766,1.1964,1.1643,1.171,1.1209,1.0882,1.0661,1.0187,1.0265,1.0777,1.0841,1.1306,0.0,0.0,0.0,0.0,0.0,0.0,0.0,0.0,1.5096,1.572,1.6293,1.6522,1.6522,1.6522,1.6522,1.6522,1.6522,1.6168,1.5796,0.0,0.0,0.0,0.0,0.0,0.0,0.0,0.0,0.0,0.0,0.0,0.0,0.0,0.0,0.0,0.0,0.0,0.0,0.0,0.0,0.0,0.0,0.0,0.0,0.0,0.0,0.0,0.0,1.7051,1.667,1.6523,1.6523,1.6396,1.6123,1.6387,1.6455,1.6328,1.7187,1.7607,1.7607,1.7607,1.7607,1.7607,1.7607,1.7607,1.7541,1.69,1.6622,1.6545,1.5934,1.607,1.6508,1.5557,1.5771,1.6471,0.0,0.0,0.0,0.0,0.0,0.0,0.0,0.0,0.0,0.0,0.0,0.0,0.0,0.0,0.0,0.0,0.0,0.0,0.4908,0.505,0.5508,0.632,0.6383,0.6818,0.768,0.768,0.9097,1.185,1.1557,1.1563,1.185,1.1269,1.1149,1.1416,1.1129,1.0995,1.0929,1.0053,0.9686,0.9684,0.9771,1.0218,1.0864,0.0,0.0,0.0,0.0,0.0,0.0,0.0,1.5096,1.572,1.6293,1.6522,1.6522,1.6522,1.6522,1.6522,1.6522,1.6064,0.0,0.0,0.0,0.0,0.0,0.0,0.0,0.0,0.0,0.0,0.0,0.0,0.0,0.0,0.0,0.0,0.0,0.0,0.0,0.0,0.0,0.0,0.0,0.0,0.0,0.0,0.0,0.0,0.0,1.6709,1.6504,1.6115,1.6105,1.5694,1.4785,1.5625,1.583,1.541,1.6289,1.6719,1.6665,1.6665,1.6665,1.6665,1.6665,1.6665,1.6665,1.6665,1.6665,1.6665,1.6665,1.6665,1.6665,1.6728,1.6728,1.6665,0.0,0.0,0.0,0.0,0.0,0.0,0.0,0.0,0.0,0.0,0.0,0.0,0.0,0.0,0.0,0.0,0.0,0.0,0.4914,0.505,0.5191,0.5445,0.5508,0.5884,0.6755,0.7866,0.8879,0.9707,1.0024,1.0561,1.1249,1.1076,1.1149,1.1423,1.1336,1.0955,1.0347,0.988,0.9559,0.9395,0.9676,0.9917,1.0218,0.0,0.0,0.0,0.0,0.0,0.0,0.0,0.0,0.0,1.6293,1.6522,1.6522,1.6522,1.6522,1.6522,1.6522,1.6523,0.0,0.0,0.0,0.0,0.0,0.0,0.0,0.0,0.0,0.0,0.0,0.0,0.0,0.0,0.0,0.0,0.0,0.0,0.0,0.0,0.0,0.0,0.0,0.0,0.0,0.0,0.0,0.0,0.0,1.5068,1.4844,1.4717,1.4707,1.458,1.4326,1.458,1.4859,1.5165,1.544,1.5956,1.6665,1.6665,1.6665,1.6665,1.6665,1.6665,1.6665,1.6665,1.6665,1.6665,1.6665,1.6665,1.6699,1.6377,1.6465,1.6641,0.0,0.0,0.0,0.0,0.0,0.0,0.0,0.0,0.0,0.0,0.0,0.0,0.0,0.0,0.0,0.0,0.0,0.0,0.0,0.4755,0.4856,0.4603,0.48,0.52,0.5685,0.7021,0.7809,0.8017,0.8997,0.9893,1.0648,1.0648,1.0862,1.1249,1.1249,1.0895,1.0267,0.986,0.9512,0.9212,0.933,0.9562,0.9917,0.0,0.0,0.0,0.0,0.0,0.0,0.0,0.0,0.0,1.6238,1.6522,1.6522,1.6522,1.6522,1.6522,1.6522,0.0,0.0,0.0,0.0,0.0,0.0,0.0,0.0,0.0,0.0,0.0,0.0,0.0,0.0,0.0,0.0,0.0,0.0,0.0,0.0,0.0,0.0,0.0,0.0,0.0,0.0,0.0,0.0,0.0,0.0,1.4995,1.4841,1.4841,1.4599,1.4518,1.4574,1.4508,1.4717,1.5196,1.5389,1.5806,1.6437,1.6336,1.6287,1.6211,1.6211,1.6211,1.6211,1.6211,1.6211,1.6211,1.6506,1.6628,1.6648,1.6711,1.6842,1.7007,0.0,0.0,0.0,0.0,0.0,0.0,0.0,0.0,0.0,0.0,0.4519,0.0,0.0,0.0,0.0,0.0,0.0,0.0,0.0,0.0,0.429,0.379,0.4346,0.4697,0.4711,0.5537,0.6293,0.6909,0.8385,0.9411,1.0074,1.0134,1.0441,1.0955,1.0955,1.0775,1.0504,0.988,0.9472,0.9123,0.8911,0.9159,0.9762,1.0517,0.0,0.0,0.0,0.0,0.0,0.0,0.0,0.0,1.6064,1.6479,1.6522,1.6522,1.6484,1.6459,1.6509,0.0,0.0,0.0,0.0,0.0,0.0,0.0,0.0,0.0,0.0,0.0,0.0,0.0,0.0,0.0,0.0,0.0,0.0,0.0,0.0,0.0,0.0,0.0,0.0,0.0,0.0,0.0,0.0,0.0,0.0,1.5881,1.5881,1.5881,1.5346,1.5142,1.5263,1.5132,1.5132,1.5348,1.5769,1.6003,1.602,1.5839,1.5659,1.5515,1.5515,1.5545,1.5575,1.5535,1.5545,1.569,1.6312,1.6595,1.6708,1.7313,1.7511,1.7511,0.0,0.0,0.0,0.0,0.0,0.0,0.0,0.0,0.0,0.0,0.0,0.0,0.0,0.0,0.0,0.0,0.0,0.0,0.0,0.0,0.3197,0.3615,0.4296,0.4748,0.4867,0.5483,0.6213,0.7028,0.7998,0.8903,0.9786,1.0247,1.0534,1.0719,1.0719,1.0361,0.9846,0.9486,0.9165,0.8891,0.8831,0.891,0.9159,1.0364,1.0864,0.0,0.0,0.0,0.0,0.0,0.0,0.0,1.5555,1.6139,1.6522,1.6522,1.6208,1.5969,0.0,1.6609,0.0,0.0,0.0,0.0,0.0,0.0,0.0,0.0,0.0,0.0,0.0,0.0,0.0,0.0,0.0,0.0,0.0,0.0,0.0,0.0,0.0,0.0,0.0,0.0,0.0,0.0,0.0,0.0,1.4965,1.4965,1.4965,1.4965,1.4835,1.478,1.4808,1.478,1.5049,0.0,1.5635,1.587,1.6218,1.6009,1.6123,1.6526,1.6526,1.6732,1.7102,1.6667,1.6743,1.7135,1.7302,1.7357,1.7313,1.7089,1.6955,1.6955,0.0,0.0,0.0,0.0,0.0,0.0,0.0,0.0,0.0,0.0,0.0,0.0,0.0,0.0,0.0,0.0,0.0,0.0,0.0,0.0,0.2681,0.3493,0.401,0.4411,0.4701,0.5096,0.5616,0.636,0.6964,0.8125,0.99,1.02,1.0421,1.0618,1.0414,1.01,0.9666,0.9365,0.9017,0.8804,0.8804,0.8804,0.8962,1.0269,1.0813,1.0965,1.2412,0.0,0.0,0.0,0.0,0.0,0.0,0.0,1.6151,1.6423,1.6308,1.6095,0.0,0.0,0.0,0.0,0.0,0.0,0.0,0.0,0.0,0.0,0.0,0.0,0.0,0.0,0.0,0.0,0.0,0.0,0.0,0.0,0.0,0.0,0.0,0.0,0.0,0.0,0.0,0.0,0.0,1.5567,1.5567,1.5567,1.5567,1.5567,1.5287,1.5287,1.5567,1.5287,1.5421,1.6051,1.6051,1.6166,1.6393,1.6135,1.6147,1.6443,1.6443,1.6588,1.6799,1.6554,1.6732,1.7252,1.7333,1.7496,1.7698,1.751,1.7485,1.7485,0.0,0.0,0.0,0.0,0.0,0.0,0.0,0.0,0.0,0.0,0.0,0.0,0.0,0.0,0.0,0.0,0.0,0.0,0.0,0.0,0.0,0.3004,0.3487,0.3904,0.4337,0.4542,0.4993,0.5589,0.5959,0.7385,0.9752,0.9881,1.0197,1.0611,1.0194,0.9907,0.9659,0.9312,0.9025,0.8804,0.8804,0.8804,0.8956,1.0167,1.0712,1.0973,1.2255,1.2774,1.2968,1.3457,0.0,0.0,0.0,0.0,1.572,1.6337,1.6446,1.6296,0.0,0.0,0.0,0.0,0.0,0.0,0.0,0.0,0.0,0.0,0.0,0.0,0.0,0.0,0.0,0.0,0.0,0.0,0.0,0.0,0.0,0.0,0.0,0.0,0.0,0.0,0.0,0.0,0.0,1.6522,1.6522,1.6522,1.6522,1.6522,1.6008,1.6008,1.6522,1.6008,1.6008,1.6522,1.6522,1.6522,1.6504,1.6208,1.6151,1.6241,1.6241,1.6287,1.6355,1.6276,1.6587,1.7048,1.7237,1.7579,1.7953,1.8051,1.81,1.8194,0.0,0.0,0.0,0.0,0.0,0.0,0.0,0.0,0.0,0.0,0.0,0.0,0.0,0.0,0.0,0.0,0.0,0.0,0.1125,0.0,0.0,0.1577,0.2725,0.348,0.3724,0.4263,0.4986,0.5949,0.6001,0.6777,0.8302,0.9023,0.9818,1.0598,0.9987,0.9719,0.9646,0.9098,0.8844,0.8804,0.8804,0.8804,0.8857,0.9666,1.0312,1.0914,1.1665,1.2344,1.2929,1.2968,1.3372,0.0,0.0,0.0,1.572,1.6337,1.6183,1.5894,0.0,0.0,0.0,0.0,0.0,0.0,0.0,0.0,0.0,0.0,0.0,0.0,0.0,0.0,0.0,0.0,0.0,0.0,0.0,0.0,0.0,0.0,0.0,0.0,0.0,0.0,0.0,0.0,1.6522,1.6522,1.6522,1.6522,1.6522,1.6522,1.6423,1.6423,1.6522,1.6423,1.6423,1.6522,1.6522,1.6522,1.6479,1.6442,1.6732,1.7189,1.7189,1.7461,1.7869,1.7387,1.7523,1.8005,1.8026,1.8099,1.8099,1.7689,1.7792,1.821,0.0,0.0,0.0,0.0,0.0,0.0,0.0,0.0,0.0,0.0,0.0,0.0,0.0,0.0,0.0,0.1563,0.0895,0.0504,0.0504,0.0504,0.068,0.1166,0.1758,0.2471,0.3419,0.3708,0.432,0.517,0.5209,0.5835,0.6917,0.7409,0.856,1.0195,1.0008,0.9927,0.988,0.9125,0.8804,0.8804,0.8804,0.8804,0.8857,0.9562,1.0218,1.0864,1.1566,1.2295,1.2881,1.2881,1.3055,1.3467,1.4387,0.0,0.0,0.0,0.0,0.0,0.0,0.0,0.0,0.0,0.0,0.0,0.0,0.0,0.0,0.0,0.0,0.0,0.0,0.0,0.0,0.0,0.0,0.0,0.0,0.0,0.0,0.0,0.0,0.0,0.0,0.0,0.0,0.0,1.6522,1.6522,1.6522,1.6522,1.6522,1.6522,1.6522,1.6522,1.6522,1.6522,1.6522,1.6522,1.6522,1.6522,1.6522,1.6522,1.666,1.6898,1.6898,1.7036,1.7237,1.6999,1.7403,1.8132,1.751,1.7785,1.85,1.7631,1.7666,1.8153,0.0,0.0,0.0,0.0,0.0,0.0,0.0,0.0,0.0,0.0,0.0,0.0,0.0,0.0,0.0,0.0,0.0336,0.0,0.0,0.0,0.0224,0.0783,0.1006,0.173,0.301,0.3289,0.3735,0.4519,0.4575,0.5009,0.5727,0.6185,0.7357,0.9179,0.9599,0.9786,0.9853,0.9198,0.8878,0.8804,0.8804,0.8804,0.8857,0.9562,1.0115,1.0661,1.1516,1.2129,1.2666,1.2822,1.2881,1.3065,1.4154,1.456,0.0,0.0,0.0,0.0,0.0,0.0,0.0,0.0,0.0,0.0,0.0,0.0,0.0,0.0,0.0,0.0,0.0,0.0,0.0,0.0,0.0,0.0,0.0,0.0,0.0,0.0,0.0,0.0,0.0,0.0,0.0,0.0,1.6522,1.6522,1.6522,1.6384,1.6371,1.6509,1.6245,1.6233,1.6522,1.6522,1.6552,1.671,1.671,1.6752,1.6909,1.6909,1.6909,1.6909,1.6752,1.671,1.671,1.6837,1.7421,1.8102,1.7245,1.7659,1.8591,1.7787,1.7827,1.8302,0.0,0.0,0.0,0.0,0.0,0.0,0.0,0.0,0.0,0.0,0.0,0.0,0.0112,0.0056,0.0056,0.0056,0.0,0.0,0.0,0.0,0.0,0.0056,0.0727,0.0,0.2232,0.301,0.3735,0.4519,0.4525,0.468,0.4968,0.594,0.6639,0.7138,0.8299,0.9014,0.923,0.0,0.0,0.0,0.0,0.0,0.0,0.0,0.0,0.0,0.0,0.0,1.1972,1.2666,1.2881,1.3017,1.3637,1.4236,0.0,0.0,0.0,0.0,0.0,0.0,0.0,0.0,0.0,0.0,0.0,0.0,0.0,0.0,0.0,0.0,0.0,0.0,0.0,0.0,0.0,0.0,0.0,0.0,0.0,0.0,0.0,0.0,0.0,0.0,0.0,0.0,1.6522,1.6522,1.6522,1.6019,1.5969,1.6497,1.5505,1.5454,1.6509,1.6522,1.6752,1.7271,1.7271,1.7504,1.8027,1.8027,1.8027,1.7987,1.7463,1.7271,1.7312,1.7827,1.804,1.8108,1.804,1.808,1.8133,1.8066,1.8419,1.8855,0.0,0.0,0.0,0.0,0.0,0.0,0.0,0.0,0.0,0.0,0.0,0.0,0.0,0.0,0.0,0.0,0.0,0.0,0.0,0.0,0.0,0.0,0.028,0.095,0.2174,0.251,0.3234,0.4519,0.4519,0.4573,0.4626,0.5071,0.553,0.6069,0.7855,0.8699,0.88,0.8899,0.0,0.0,0.0,0.0,0.0,0.0,0.0,0.0,0.0,0.0,0.0,1.208,1.2501,0.0,0.0,0.0,0.0,0.0,0.0,0.0,0.0,0.0,0.0,0.0,0.0,0.0,0.0,0.0,0.0,0.0,0.0,0.0,0.0,0.0,0.0,0.0,0.0,0.0,0.0,0.0,0.0,0.0,0.0,0.0,0.0,0.0,0.0,0.0,0.0,1.6837,1.6393,1.652,1.6478,1.6242,1.587,1.608,1.6864,1.6877,1.7223,1.7827,1.7827,1.7907,1.8106,1.8106,1.8106,1.8106,1.8263,1.8145,1.7827,1.8027,1.8302,1.8574,1.8224,1.8535,1.9095,1.8727,1.8968,1.9406,0.0,0.0,0.0,0.0,0.0,0.0,0.0,0.0,0.0,-0.1452,0.0,0.0,0.0,0.0,0.0,0.0,0.0,0.0,0.0,0.0,0.0,0.0,0.0,0.056,0.1786,0.184,0.2565,0.4125,0.4125,0.4236,0.4519,0.4565,0.4836,0.5226,0.6823,0.7823,0.0,0.0,0.0,0.8804,0.0,0.0,0.8857,0.0,0.0,0.0,0.0,0.0,0.0,0.0,0.0,0.0,0.0,0.0,0.0,0.0,0.0,0.0,0.0,0.0,0.0,0.0,0.0,0.0,0.0,0.0,0.0,0.0,0.0,0.0,0.0,0.0,0.0,0.0,0.0,0.0,0.0,0.0,0.0,0.0,0.0,0.0,0.0,0.0,0.0,0.0,0.0,0.0,1.6571,1.6753,1.6542,1.5915,1.6022,1.6345,1.6817,1.7023,1.7536,1.838,1.838,1.8458,1.865,1.865,1.865,1.865,1.9006,1.8855,1.838,1.8574,1.8855,1.9132,1.8779,1.914,1.9874,1.9507,1.9702,2.0154,0.0,0.0,0.0,0.0,0.0,0.0,0.0,0.0,-0.2232,-0.2232,0.0,0.0,0.0,0.0,0.0,-0.0056,-0.0056,-0.0056,-0.0056,-0.0056,-0.0056,-0.0056,0.0,0.0336,0.1062,0.1118,0.184,0.3287,0.3287,0.3735,0.4519,0.4519,0.4519,0.4515,0.5164,0.6303,0.7687,0.0,0.8397,0.8752,0.0,0.8804,0.8962,0.0,0.0,0.0,1.1561,1.2006,0.0,1.2082,0.0,0.0,0.0,0.0,0.0,0.0,0.0,0.0,0.0,0.0,0.0,0.0,0.0,0.0,0.0,0.0,0.0,0.0,0.0,0.0,0.0,0.0,0.0,0.0,0.0,0.0,0.0,0.0,0.0,0.0,0.0,0.0,0.0,0.0,0.0,0.0,1.6496,1.6414,1.7064,1.6587,1.6048,1.5533,1.5882,1.6162,1.6332,1.684,1.7726,1.893,1.893,1.9207,1.9711,1.9726,1.9711,1.9762,1.9711,1.9442,1.9006,1.9515,1.9726,1.9762,1.9762,1.9965,2.0314,2.0314,2.0616,2.0991,0.0,0.0,0.0,0.0,0.0,0.0,-0.3065,-0.3065,-0.3065,0.0,0.0,0.0,-0.1898,-0.173,-0.1563,-0.1563,-0.1563,-0.1563,-0.1563,-0.1118,-0.0783,-0.0783,-0.028,0.0336,0.1062,0.1118,0.184,0.3287,0.3287,0.3735,0.4519,0.4519,0.4519,0.4519,0.4677,0.5273,0.6199,0.7356,0.0,0.0,0.8593,0.8804,0.0,0.0,0.0,0.0,0.0,1.1039,1.1796,0.0,1.2281,1.2811,0.0,0.0,0.0,0.0,0.0,0.0,1.5844,0.0,0.0,0.0,0.0,0.0,0.0,0.0,0.0,0.0,0.0,0.0,0.0,0.0,0.0,0.0,0.0,0.0,0.0,0.0,0.0,0.0,0.0,0.0,0.0,0.0,0.0,0.0,1.6858,1.6768,1.6937,1.6308,1.5873,1.5727,1.5828,1.6323,1.729,1.7466,1.8194,1.9479,1.9479,1.9717,2.0124,1.9839,2.005,2.0632,2.0296,2.0246,2.04,2.0212,2.033,2.0632,2.0632,2.0698,2.0797,2.0797,2.0894,2.0991,0.0,0.0,0.0,0.0,0.0,-0.4132,-0.4677,-0.4281,-0.402,0.0,0.0,0.0,-0.2232,-0.2174,-0.2174,-0.2174,-0.2174,-0.2174,-0.2174,-0.1507,-0.1229,-0.1563,-0.0838,-0.028,0.0168,0.0168,0.0892,0.2397,0.2676,0.3234,0.407,0.4349,0.4519,0.4519,0.0,0.0,0.0,0.0,0.0,0.0,0.8156,0.0,0.0,0.9413,0.9783,0.0,0.0,0.0,1.1976,1.1976,1.2358,0.0,0.0,0.0,0.0,0.0,0.0,0.0,0.0,0.0,0.0,0.0,0.0,0.0,1.3198,1.3547,1.4032,0.0,0.0,0.0,0.0,0.0,0.0,0.0,0.0,0.0,0.0,0.0,0.0,0.0,0.0,0.0,0.0,1.5666,1.589,1.6872,1.6622,1.6655,1.7194,1.6321,1.6173,1.6967,1.6458,1.6802,1.8119,1.8316,1.8946,1.9929,2.0139,2.0364,2.0583,2.0345,2.0514,2.0991,2.0715,2.0846,2.1244,2.0975,2.091,2.0991,2.0991,2.1086,2.1244,2.1244,2.1385,2.1554,0.0,0.0,-0.5923,-0.648,-0.5638,-0.53,-0.6455,-0.5642,-0.5065,0.0,-0.4336,-0.3234,-0.2508,-0.2454,-0.2454,-0.2454,-0.2454,-0.2454,-0.2454,-0.1786,-0.1675,-0.2286,-0.1619,-0.1229,-0.1229,-0.1229,-0.0502,0.1005,0.1618,0.2397,0.3289,0.4015,0.4349,0.4239,0.0,0.0,0.0,0.0,0.0,0.7463,0.757,0.8059,0.0,0.0,1.0352,1.0323,1.1482,1.201,1.2158,1.2161,1.249,0.0,0.0,0.0,0.0,0.0,1.5567,0.0,0.0,0.0,0.0,0.0,0.0,0.0,1.3198,1.3547,1.4032,1.4406,0.0,0.0,0.0,0.0,0.0,0.0,0.0,0.0,0.0,0.0,0.0,0.0,0.0,0.0,1.6547,1.6099,1.6039,1.6652,1.6204,1.6383,1.7518,1.6443,1.6638,1.8433,1.7372,1.7404,1.865,1.9192,1.9777,2.0382,2.0797,2.1023,2.1055,2.1023,2.1055,2.1134,2.1086,2.1306,2.1688,2.1688,2.1477,2.1134,2.1134,2.1368,2.1688,2.1688,2.1957,2.2349,0.0,0.0,-0.7122,-0.6696,-0.6405,-0.6311,-0.6539,-0.6405,-0.6028,-0.5546,-0.4783,-0.4236,-0.407,-0.407,-0.407,-0.407,-0.407,-0.407,-0.407,-0.3345,-0.301,-0.3178,-0.2397,-0.2009,-0.2009,-0.2009,-0.1281,0.0223,0.0334,0.1113,0.2454,0.3234,0.3289,0.2676,0.3287,0.0,0.0,0.0,0.0,0.5849,0.6949,0.0,0.765,0.8225,0.9031,0.9847,1.0077,1.0858,1.1792,1.2109,1.2239,1.2393,0.0,0.0,0.0,0.0,0.0,0.0,0.0,0.0,0.0,0.0,0.0,0.0,1.3198,1.3547,1.4032,0.0,0.0,0.0,0.0,0.0,0.0,0.0,0.0,0.0,0.0,0.0,0.0,0.0,0.0,0.0,1.5994,1.5873,1.6039,1.6652,1.6592,1.6637,1.6891,1.6189,1.6189,1.707,1.7211,1.7666,1.8439,1.9404,2.0209,2.0862,2.0975,2.115,2.146,2.115,2.1385,2.202,2.1628,2.1735,2.2163,2.2163,2.2106,2.2049,2.2049,2.2077,2.2163,2.2163,2.2354,2.2608,0.0,0.0,-0.8178,-0.8178,-0.7372,-0.6989,-0.758,-0.7171,-0.6704,-0.6593,-0.5987,-0.5555,-0.5555,-0.5555,-0.5555,-0.5555,-0.5555,-0.5386,-0.5003,-0.433,-0.3892,-0.3959,-0.3231,-0.2788,-0.2788,-0.2788,-0.2006,-0.0557,-0.0167,0.0557,0.1675,0.2454,0.2597,0.223,0.2601,0.0,0.0,0.0,0.413,0.5456,0.6038,0.0,0.7278,0.7813,0.8584,0.9456,1.0035,1.0967,1.1855,1.165,1.2012,0.0,0.0,1.3366,1.4698,0.0,1.5567,1.6333,0.0,0.0,0.0,1.3848,0.0,0.0,0.0,1.3391,1.3735,1.4374,0.0,0.0,0.0,0.0,0.0,0.0,0.0,0.0,0.0,0.0,0.0,0.0,0.0,0.0,1.5857,1.5955,1.612,1.6234,1.6426,1.665,1.6984,1.6561,1.6921,1.8254,1.8212,1.8487,1.9137,2.0249,2.077,2.077,2.1374,2.1735,2.1928,2.1751,2.1969,2.25,2.2258,2.2368,2.2738,2.2581,2.2607,2.2738,2.2432,2.2388,2.25,2.25,2.2678,2.2947,-1.1166,0.0,-0.9311,-0.9909,-0.8717,-0.7935,-0.8877,-0.81,-0.7494,-0.7693,-0.7112,-0.6708,-0.6708,-0.6708,-0.6743,-0.6885,-0.6718,-0.6401,-0.5921,-0.5073,-0.4645,-0.4634,-0.3999,-0.3613,-0.3534,-0.3555,-0.2788,-0.1284,-0.0724,0.0,0.0895,0.1619,0.1923,0.1766,0.1929,0.0,0.0,0.0,0.0,0.537,0.0,0.6011,0.7206,0.7789,0.846,0.9236,1.0301,1.1183,1.1768,1.1221,1.1738,1.2577,1.2028,1.3073,0.0,0.0,0.0,0.0,0.0,0.0,0.0,0.0,0.0,1.3521,0.0,0.0,0.0,1.4241,0.0,0.0,0.0,0.0,0.0,0.0,0.0,0.0,0.0,0.0,0.0,0.0,0.0,0.0,0.0,1.6018,1.6134,1.5996,1.6123,1.6523,1.7348,1.7013,1.7636,1.9459,1.9065,1.9074,1.9683,2.0969,2.1333,2.0816,2.1925,2.2453,2.2453,2.2453,2.2581,2.2797,2.2797,2.2947,2.3165,2.2923,2.2972,2.3159,2.2581,2.2554,2.2797,2.2797,2.3021,2.33,-1.2052,-1.1057,0.0,-1.0661,-1.0482,-1.019,-0.9769,-0.9584,-0.9061,-0.783,-0.7312,-0.7048,0.0,0.0,0.0,0.0,0.0,0.0,-0.7257,0.0,-0.5309,-0.5209,-0.466,-0.4293,-0.4115,-0.4287,-0.3624,-0.2063,-0.2007,-0.1228,0.0168,0.0895,0.0893,0.0277,0.0929,0.0,0.0,0.0,0.3343,0.0,0.4944,0.5872,0.0,0.7477,0.8194,0.9213,1.0046,1.0419,1.0605,0.0,1.1636,1.1881,0.0,1.334,1.4004,0.0,0.0,0.0,0.0,0.0,0.0,0.0,1.5117,0.0,0.0,0.0,1.3989,1.3974,0.0,0.0,0.0,0.0,0.0,0.0,0.0,0.0,0.0,0.0,0.0,0.0,0.0,0.0,0.0,1.5749,1.6028,1.6638,1.6123,1.6346,1.7682,1.7146,1.7189,1.8023,1.8312,1.8608,1.8934,2.0695,2.168,2.1832,2.2676,2.3111,2.3111,2.3111,2.3117,2.3141,2.3141,2.3165,2.3189,2.3165,2.3165,2.3165,2.2797,2.2848,2.3141,2.3141,2.3369,2.3631,-1.3643,-1.2667,0.0,0.0,-1.1308,-1.072,-1.0415,-1.0064,-0.9703,-0.9533,-0.9017,0.0,0.0,0.0,0.0,0.0,0.0,-0.7976,0.0,0.0,-0.6377,-0.5432,-0.5179,-0.4863,-0.4372,-0.4433,-0.3959,-0.2899,-0.2452,-0.1675,-0.0615,0.0112,0.0277,0.0,0.0334,0.0,0.209,0.0,0.3313,0.0,0.0,0.0,0.0,0.6869,0.7624,0.9006,0.9939,1.0439,1.0664,0.0,1.1554,0.0,0.0,0.0,0.0,0.0,0.0,0.0,0.0,0.0,0.0,0.0,0.0,0.0,1.5316,0.0,1.4226,0.0,0.0,0.0,0.0,0.0,0.0,0.0,1.6421,0.0,0.0,0.0,0.0,0.0,0.0,0.0,0.0,0.0,0.0,0.0,1.608,1.6434,1.7441,1.7429,1.7715,1.8418,1.861,1.8829,1.9098,2.0297,2.1069,2.1361,2.2139,2.2741,2.3189,2.3189,2.3323,2.35,2.35,2.3588,2.3774,2.3566,2.3588,2.3756,2.3538,2.3472,2.35,2.35,2.3692,2.4016,-1.5197,0.0,0.0,0.0,0.0,0.0,-1.1116,0.0,0.0,0.0,0.0,0.0,-1.1527,-1.1082,0.0,0.0,-1.0354,-0.9432,0.0,0.0,-0.7376,0.0,0.0,0.0,0.0,-0.4798,-0.4395,-0.3671,-0.2674,-0.184,-0.1062,-0.0336,0.0,0.0,0.0,0.0743,0.1998,0.0,0.0,0.5426,0.6012,0.6575,0.7014,0.7001,0.763,0.8635,0.9883,1.0399,1.05,1.0478,1.1561,0.0,1.2257,0.0,0.0,0.0,0.0,0.0,1.7297,0.0,0.0,0.0,0.0,0.0,0.0,0.0,0.0,0.0,0.0,0.0,0.0,0.0,0.0,0.0,0.0,0.0,0.0,0.0,0.0,0.0,0.0,0.0,0.0,0.0,0.0,1.5964,1.6022,1.6453,1.7406,1.7749,1.8116,1.8572,1.8751,1.9016,1.9425,2.0258,2.0947,2.1476,2.2239,2.2901,2.3459,2.3459,2.3628,2.3837,2.3901,2.4058,2.4266,2.4079,2.4155,2.4338,2.4264,2.4137,2.4003,2.4003,2.4155,2.4393,-1.6423,-1.5005,0.0,0.0,0.0,0.0,0.0,0.0,0.0,0.0,0.0,0.0,0.0,0.0,0.0,0.0,0.0,-1.1182,-1.0627,0.0,-0.8184,0.0,0.0,-0.6388,0.0,0.0,-0.5093,-0.4371,-0.289,-0.184,-0.1062,-0.0336,0.0,0.0,0.0,0.0723,0.2041,0.2613,0.3874,0.5523,0.6162,0.6342,0.6453,0.0,0.8558,0.8118,0.9725,0.0,0.0,1.0589,1.1601,0.0,0.0,0.0,0.0,0.0,0.0,0.0,0.0,0.0,0.0,1.8593,0.0,0.0,0.0,0.0,1.7047,0.0,0.0,0.0,0.0,0.0,0.0,0.0,0.0,0.0,0.0,0.0,0.0,0.0,0.0,0.0,0.0,0.0,1.5896,1.6606,1.6015,1.6251,1.7704,1.8057,1.8078,1.7845,1.8345,1.8974,1.9777,2.0836,2.1879,2.2942,2.3749,2.4152,2.417,2.417,2.417,2.419,2.4374,2.4478,2.4512,2.47,2.4775,2.4775,2.479,2.4775,2.4756,2.4756,2.4775,2.479,0.0,0.0,0.0,0.0,0.0,0.0,0.0,-1.2531,0.0,0.0,0.0,0.0,0.0,-1.4352,-1.3654,0.0,0.0,-1.1202,-1.0772,-1.0327,0.0,0.0,0.0,-0.7419,0.0,0.0,0.0,0.0,-0.3169,-0.2063,-0.1786,-0.056,0.0,0.0,0.0,0.0509,0.0,0.0,0.0,0.0,0.0,0.6681,0.7132,0.0,0.0,0.7982,0.9301,0.9883,0.0,1.041,1.1216,1.2135,1.2204,1.3066,1.4129,1.4425,1.5435,0.0,0.0,0.0,1.898,1.9346,0.0,0.0,0.0,0.0,0.0,0.0,0.0,0.0,0.0,0.0,0.0,0.0,0.0,0.0,0.0,0.0,0.0,0.0,0.0,0.0,0.0,0.0,0.0,1.7201,1.6991,1.7211,1.801,1.8822,1.8877,1.8078,1.8941,1.9606,2.0063,2.0426,2.1407,2.2997,2.329,2.3676,2.419,2.4339,2.441,2.441,2.4607,2.47,2.47,2.4775,2.4804,2.4818,2.4904,2.4924,2.493,2.4828,2.4804,2.4818,-1.8338,0.0,0.0,0.0,0.0,0.0,0.0,0.0,0.0,0.0,-1.5571,0.0,-1.6993,0.0,-1.4948,0.0,-1.2942,-1.2075,-1.1191,-1.1047,0.0,-0.8885,-0.8728,0.0,0.0,0.0,0.0,0.0,0.0,-0.2569,-0.2569,-0.0813,0.0,0.0,0.0,0.0377,0.1028,0.0,0.2643,0.0,0.0,0.6513,0.0,0.0,0.7756,0.8101,0.0,0.9716,1.004,1.0244,1.0992,1.1869,1.1839,1.2766,1.3879,1.4172,1.5459,1.684,1.7398,1.8462,0.0,1.9639,1.9442,0.0,1.9169,0.0,0.0,0.0,0.0,0.0,0.0,0.0,0.0,0.0,0.0,0.0,0.0,1.7883,0.0,0.0,0.0,0.0,0.0,0.0,1.7489,1.7489,1.7489,1.7736,0.0,0.0,1.9584,1.8773,1.9893,2.0677,2.106,2.1224,2.2042,2.3528,2.3597,2.3908,2.4428,2.4561,2.4607,2.4607,2.4799,2.4864,2.4883,2.4949,2.4994,2.4994,2.5065,2.5099,2.5088,2.5012,2.4994,2.4987,0.0,0.0,0.0,0.0,-1.5608,0.0,0.0,0.0,-1.65,0.0,-1.702,-1.7459,-1.7861,-1.6949,-1.5985,-1.5256,-1.4671,-1.366,-1.1953,-1.1492,0.0,0.0,-0.9113,-0.8616,-0.832,0.0,0.0,0.0,0.0,-0.3316,-0.3255,-0.1071,-0.0049,0.0,0.0,0.0,0.0895,0.1644,0.2399,0.3223,0.5023,0.5945,0.6271,0.6803,0.7524,0.8331,0.9151,0.9478,0.9597,1.0127,1.0933,1.1749,1.185,1.2469,1.3245,1.3245,1.44,1.5805,1.6332,1.7661,1.9006,1.9479,1.9639,0.0,0.0,0.0,1.969,0.0,0.0,0.0,0.0,0.0,0.0,0.0,0.0,0.0,0.0,0.0,0.0,0.0,0.0,0.0,0.0,1.7577,1.7577,1.7577,1.7577,0.0,0.0,0.0,2.0173,1.9888,2.1171,2.21,2.2618,2.3065,2.371,2.4512,2.47,2.4804,2.4804,2.4804,2.4818,2.4832,2.4968,2.5022,2.5034,2.5224,2.5293,2.5293,2.5293,2.5293,2.5293,2.5313,2.5303,2.5303,-1.9522,-1.9043,-1.8612,0.0,-1.7706,-1.6957,0.0,0.0,0.0,0.0,-1.901,-1.9108,-1.9178,-1.8274,-1.6981,-1.5416,-1.4441,0.0,0.0,0.0,0.0,-1.0064,-0.9856,-0.9353,-0.8327,-0.7853,0.0,-0.6933,0.0,0.0,-0.2981,-0.1412,-0.0445,0.0,0.0,0.0,0.0364,0.1106,0.1863,0.2833,0.5559,0.6476,0.0,0.0,0.7159,0.754,0.8558,0.9399,1.0118,1.0244,1.0469,1.0743,1.1131,1.1653,1.2261,1.259,1.4147,1.5731,1.5878,1.7367,1.8855,1.8574,1.8817,1.9132,0.0,0.0,0.0,0.0,0.0,0.0,0.0,0.0,0.0,0.0,0.0,0.0,0.0,0.0,0.0,0.0,0.0,0.0,0.0,1.8838,1.8838,1.8838,1.8838,0.0,0.0,0.0,0.0,2.1002,2.21,2.2758,2.2886,2.3171,2.371,2.4512,2.47,2.4804,2.4804,2.4904,2.4949,2.4949,2.5141,2.5224,2.5234,2.5337,2.5379,2.5379,2.5368,2.5368,2.5379,2.5322,2.5303,2.5303,-2.0311,0.0,0.0,-1.8988,0.0,0.0,-1.8235,0.0,0.0,-2.0476,-2.0338,0.0,-2.0093,-1.8935,-1.7503,-1.5926,-1.4824,0.0,-1.2803,0.0,0.0,-1.0503,-1.01,-0.9437,-0.8489,-0.8158,0.0,-0.7093,0.0,0.0,-0.3342,-0.1682,-0.0569,0.0,0.0,0.0041,0.0,0.0633,0.1482,0.2672,0.4817,0.0,0.0,0.6683,0.6926,0.697,0.7968,0.8798,0.9531,1.0088,1.0283,1.039,1.0829,1.1356,1.1884,1.2354,1.3864,1.541,1.562,1.6916,1.8185,1.8145,1.8341,1.8612,1.8855,1.8893,1.9043,0.0,1.939,1.9163,0.0,0.0,0.0,0.0,0.0,0.0,0.0,0.0,0.0,0.0,0.0,0.0,0.0,1.9423,1.9452,1.9499,0.0,0.0,0.0,0.0,0.0,2.2323,2.3277,2.3791,2.3791,2.3956,2.427,2.4723,2.4923,2.5031,2.5012,2.5096,2.5141,2.5152,2.5283,2.5329,2.5357,2.5427,2.5441,2.5441,2.5447,2.5447,2.5441,2.5406,2.5383,2.5391,0.0,0.0,0.0,0.0,0.0,0.0,0.0,-2.0466,0.0,-2.1806,0.0,-2.0726,-2.0653,-1.9243,-1.7791,-1.6511,0.0,-1.4201,-1.2541,-1.1973,-1.1449,-1.0943,-1.0037,-0.9292,-0.8724,-0.8481,-0.8083,0.0,0.0,0.0,-0.3976,-0.1948,-0.0672,0.0,0.0,0.0,0.0,0.0255,0.1178,0.2578,0.3483,0.4417,0.5344,0.6307,0.6565,0.6514,0.7401,0.8052,0.8646,0.979,1.0244,1.039,1.0829,1.1356,1.1884,1.2354,1.3607,1.4993,1.5533,1.6517,1.7491,1.7959,1.8145,1.8341,1.8779,1.8893,1.9043,1.9603,1.9611,1.9417,0.0,0.0,0.0,0.0,0.0,0.0,0.0,0.0,0.0,0.0,0.0,0.0,0.0,0.0,0.0,0.0,0.0,0.0,0.0,0.0,0.0,2.3647,2.4408,2.4804,2.4804,2.4924,2.5003,2.5015,2.5215,2.5322,2.534,2.534,2.534,2.5321,2.5391,2.5408,2.5427,2.5493,2.5503,2.5503,2.5511,2.5531,2.5503,2.5511,2.5535,2.5511,0.0,0.0,0.0,0.0,0.0,-2.3916,-2.3697,-2.3216,-2.2933,-2.3216,-2.22,-2.1259,-2.0884,-1.9614,-1.8152,-1.6599,-1.5843,0.0,0.0,0.0,0.0,-1.1002,-1.0262,-0.9473,-0.8724,-0.8668,-0.8253,0.0,0.0,0.0,-0.3976,-0.24,0.0,0.0,0.0,0.0,0.0,0.0053,0.0,0.1997,0.273,0.3801,0.4953,0.4827,0.5242,0.6012,0.6535,0.7848,0.9314,0.9573,0.9922,1.039,1.0829,1.1356,1.1884,1.2354,1.3576,1.4882,1.5525,1.6748,1.7862,1.806,1.8419,1.8779,1.8893,1.8893,1.9043,1.9603,1.9049,1.8904,2.0369,0.0,0.0,0.0,0.0,0.0,0.0,0.0,0.0,0.0,0.0,0.0,0.0,0.0,0.0,0.0,0.0,0.0,0.0,0.0,0.0,0.0,2.4728,0.0,0.0,0.0,2.5031,2.5071,2.5288,2.542,2.5451,2.5451,2.5451,2.5471,2.5488,2.5473,2.5498,2.5554,2.5573,2.5595,2.5637,2.5633,2.5595,2.5637,2.5661,2.566,0.0,0.0,0.0,0.0,0.0,0.0,0.0,-2.4555,0.0,-2.3564,-2.236,-2.1208,-2.0377,-1.9448,-1.8489,-1.7427,-1.6291,-1.512,-1.3816,-1.2698,-1.1784,-1.1019,-1.0675,0.0,-0.8724,-0.8683,-0.8201,-0.7235,0.0,0.0,0.0,0.0,0.0,-0.0447,0.0,0.0381,0.0,0.0,0.0,0.2108,0.2704,0.3443,0.4195,0.4308,0.4382,0.4583,0.6002,0.7302,0.8467,0.9232,1.003,1.0764,1.1244,1.1763,1.2246,1.272,1.3737,1.4756,1.5091,1.6323,1.7502,1.7567,1.8026,1.8574,1.8855,1.8893,1.9118,1.9859,1.9326,1.9077,2.0205,1.979,0.0,0.0,0.0,0.0,0.0,0.0,0.0,0.0,0.0,0.0,0.0,0.0,0.0,0.0,0.0,0.0,0.0,0.0,0.0,0.0,0.0,0.0,2.5068,0.0,2.5216,2.5258,2.5395,2.5477,2.5493,2.5493,2.5493,2.5493,2.5543,2.5554,2.5558,2.5611,2.5659,2.5659,2.5683,2.5683,2.5659,2.5683,2.5703,2.5703,0.0,-2.1264,0.0,0.0,-2.3774,0.0,-2.5121,-2.5277,-2.5029,-2.3897,-2.2498,-2.1217,-2.0146,-1.9538,-1.8892,-1.8158,-1.68,-1.5524,-1.4453,-1.3283,-1.2223,-1.1335,-1.1234,-1.0427,-0.8918,-0.8869,-0.8262,0.0,0.0,0.0,0.0,0.0,0.0,0.0,0.0,0.0,0.0,0.0,0.158,0.2283,0.2666,0.3129,0.3631,0.3744,0.363,0.3561,0.5034,0.6468,0.7858,0.8757,0.9944,1.1094,1.1627,1.2102,1.2579,1.3047,1.3891,1.4671,1.4699,1.5784,1.6913,1.7102,1.763,1.825,1.8774,1.9006,1.9288,2.0143,1.9871,1.9556,1.974,1.924,0.0,0.0,0.0,0.0,0.0,0.0,0.0,0.0,0.0,0.0,0.0,0.0,0.0,0.0,0.0,0.0,0.0,0.0,0.0,0.0,0.0,2.5321,2.5348,0.0,2.5421,2.5447,2.5508,2.5535,2.5547,2.5547,2.5547,2.5551,2.5601,2.5611,2.5631,2.5683,2.5703,2.5703,2.5703,2.5703,2.5703,2.5683,2.5683,2.5682,0.0,0.0,0.0,0.0,0.0,0.0,-2.5118,-2.5812,-2.6142,-2.5064,-2.3219,-2.1742,-2.1208,-2.0566,-1.9626,-1.8229,-1.7415,-1.6497,-1.5426,-1.3903,-1.2798,-1.2271,-1.1923,-1.1008,-0.9439,-0.9363,-0.8575,0.0,0.0,-0.4758,0.0,0.0,0.0,0.0,0.0,0.0,0.0,0.1524,0.1863,0.2108,0.1901,0.268,0.3796,0.2391,0.2872,0.4109,0.287,0.526,0.8888,0.7991,0.9172,1.1094,1.1627,1.2102,1.2579,1.3047,1.3841,1.4547,1.4753,1.5482,1.6384,1.7116,1.7695,1.8223,1.8801,1.9281,1.9732,2.0212,2.0336,2.0163,1.9476,2.0053,2.1022,0.0,0.0,0.0,0.0,0.0,0.0,0.0,0.0,0.0,0.0,2.1011,0.0,0.0,2.0974,0.0,0.0,0.0,0.0,2.5243,2.5352,2.5408,2.5473,2.5498,2.5531,2.5573,2.5595,2.5611,2.5683,2.5683,2.5683,2.5683,2.5683,2.5683,2.5683,2.5703,2.5703,2.5703,2.5703,2.5703,2.5683,2.5634,2.5605,2.5601,0.0,0.0,0.0,0.0,0.0,0.0,0.0,-2.513,-2.457,-2.4133,-2.3113,-2.2102,-2.1223,-2.0639,-2.007,-1.9485,-1.7998,-1.6905,-1.6479,-1.4867,-1.3723,-1.3264,-1.281,-1.1854,-1.0319,-1.0041,-0.9124,0.0,0.0,0.0,0.0,0.0,0.0,0.0,0.0,0.1365,0.2043,0.2281,0.2691,0.3082,0.2664,0.2906,0.3355,0.1776,0.164,0.2218,0.1567,0.3867,0.7474,0.9189,1.0557,1.1516,1.1737,1.2318,1.2943,1.3129,1.3648,1.417,1.4246,1.5216,1.6305,1.6617,1.7395,1.8148,1.8363,1.8817,1.9398,2.0081,2.0358,2.0277,1.9703,2.0083,2.1022,2.2721,0.0,0.0,0.0,0.0,0.0,0.0,0.0,0.0,0.0,0.0,0.0,0.0,0.0,0.0,0.0,0.0,0.0,2.4713,0.0,2.5463,2.5489,2.5543,2.5567,2.5603,2.5604,2.5602,2.5636,2.5601,2.557,2.557,2.557,2.557,2.557,2.557,2.557,2.557,2.557,2.557,2.559,2.5551,2.5543,2.5539,-2.5285,0.0,-2.4763,0.0,-2.5415,-2.4919,-2.5547,-2.4516,-2.3562,-2.3227,-2.2726,-2.2059,-2.1276,-2.0878,-2.0567,-2.0314,-1.8585,-1.7408,-1.729,-1.5634,-1.4474,-1.399,-1.3544,0.0,-1.1116,-1.0634,-0.962,-0.8072,-0.7913,0.0,0.0,0.0,0.0,0.0,0.0277,0.1635,0.2761,0.3046,0.3529,0.4049,0.3314,0.2807,0.235,0.1293,0.0796,0.0808,0.2112,0.4096,0.6592,0.9786,1.1369,1.1993,1.1993,1.2544,1.3198,1.3198,1.3514,1.3868,1.3735,1.462,1.5646,1.5856,1.6647,1.747,1.7785,1.8302,1.8823,1.9428,1.9755,1.9912,1.9823,2.0205,2.1152,2.2994,0.0,0.0,0.0,0.0,0.0,0.0,2.1151,2.1036,2.1925,2.2239,0.0,0.0,0.0,0.0,0.0,0.0,0.0,0.0,0.0,0.0,2.5492,2.5544,2.5566,2.5566,2.5568,2.5567,2.5564,2.5511,2.5493,2.5493,2.5493,2.5493,2.5493,2.5493,2.5493,2.5493,2.5493,2.5493,2.5508,2.5488,2.5477,2.5451,-2.6374,-2.5394,-2.4812,-2.6427,-2.6012,-2.5235,-2.4441,-2.43,-2.3917,-2.285,-2.2071,-2.1601,-2.1589,-2.1582,-2.1228,-2.0382,-1.9137,-1.8192,-1.7715,-1.606,-1.4878,0.0,0.0,-1.3213,-1.1732,-1.1169,-1.0021,-0.8198,0.0,0.0,-0.5677,0.0,-0.314,-0.2388,-0.0125,0.1603,0.2864,0.3636,0.4293,0.4688,0.3559,0.2141,0.0744,0.0852,0.0533,0.0586,0.4972,0.6563,0.6913,0.91,1.1008,1.2508,1.2508,1.2838,1.3198,1.3198,1.3514,1.3802,1.3323,1.356,1.4104,1.4739,1.531,1.6013,1.7048,1.7706,1.8101,1.8044,1.8459,1.9013,1.9676,2.0673,2.1808,2.3087,0.0,0.0,0.0,0.0,0.0,0.0,2.2067,2.1942,2.2896,2.3761,0.0,0.0,0.0,0.0,0.0,0.0,0.0,2.5488,2.5421,0.0,2.5498,2.5493,2.5493,2.5493,2.5493,2.5493,2.5493,2.5493,2.5493,2.5493,2.5493,2.5493,2.5493,2.5493,2.5493,2.5493,2.5493,2.5493,2.5484,2.5441,2.5406,2.5398,-2.6413,-2.6213,-2.6036,-2.654,-2.578,-2.501,-2.4759,-2.4052,-2.3247,-2.2353,-2.1847,-2.1409,-2.0833,-2.0377,-2.0005,0.0,-1.8633,-1.7924,0.0,-1.6611,-1.595,-1.6028,-1.5197,-1.445,-1.3893,-1.2905,-1.1664,-1.0112,0.0,0.0,0.0,-0.5272,-0.3952,-0.2542,-0.0174,0.1345,0.222,0.3652,0.4408,0.4734,0.5451,0.3999,0.1297,0.0564,0.0166,0.0379,0.3305,0.7251,1.0972,1.0155,1.1241,1.3047,1.3353,1.3344,1.3198,1.3198,1.3288,1.3391,1.3232,1.3601,1.4075,1.4298,1.5018,1.5785,1.6143,1.7072,1.8065,1.8614,1.8794,1.9096,2.0038,2.0871,2.1589,2.2182,2.3652,0.0,0.0,0.0,0.0,0.0,2.3026,2.2857,2.3803,2.4183,0.0,0.0,0.0,0.0,0.0,0.0,0.0,0.0,2.5506,0.0,2.5493,2.5493,2.5493,2.5489,2.544,2.542,2.5363,2.5363,2.5363,2.5363,2.5363,2.5363,2.5363,2.5363,2.5363,2.5363,2.5363,2.5363,2.5363,2.5339,2.533,2.5321,-2.5988,-2.5915,-2.5786,-2.6098,-2.5312,-2.4641,-2.4641,-2.4039,-2.3235,-2.2295,-2.179,-2.1158,-2.0227,-1.9515,0.0,-1.9394,-1.8556,-1.7963,-1.7816,-1.6975,-1.6581,-1.6789,-1.5963,-1.5316,-1.4905,-1.4024,0.0,-1.1731,-1.0697,-0.9496,-0.8156,-0.6239,-0.4608,-0.3209,-0.0573,0.1154,0.2266,0.3878,0.4934,0.5578,0.6364,0.5806,0.4327,0.2518,0.1872,0.2338,0.5505,0.9312,1.269,1.1728,1.2209,1.3288,1.3934,1.3835,1.3459,1.3459,1.3459,1.3425,1.3267,1.3483,1.3833,1.4035,1.4601,1.5178,1.5605,1.6493,1.7424,1.806,1.8453,1.901,2.0062,2.0849,2.1552,2.2166,2.3172,2.3707,2.328,0.0,0.0,0.0,0.0,0.0,0.0,2.4838,2.5039,0.0,0.0,0.0,0.0,0.0,0.0,2.5511,2.5465,2.5421,2.5421,2.5421,2.5421,2.5421,2.5383,2.5348,2.5303,2.5303,2.5303,2.5303,2.5303,2.5303,2.5303,2.5303,2.5303,2.5303,2.5303,2.5303,2.5303,2.5303,2.5303,2.5303,-2.5202,-2.4743,-2.4467,0.0,-2.4744,0.0,-2.4247,-2.4247,-2.3821,-2.2636,-2.1858,-2.0986,-1.9777,-1.9048,-1.8812,-1.9306,0.0,0.0,0.0,-1.7245,-1.6876,-1.6917,-1.6502,-1.5897,-1.5082,-1.4649,-1.3984,-1.3011,-1.1194,-1.0278,-1.0108,-0.7033,-0.5137,-0.417,-0.1269,0.0971,0.2742,0.4282,0.5762,0.7011,0.6529,0.7487,0.8943,0.6329,0.5347,0.5935,1.0435,1.2187,1.2456,1.3412,1.3511,1.3459,1.4278,1.4278,1.4,1.3967,1.3934,1.3802,1.3357,1.3232,1.3358,1.3932,1.412,1.4436,1.5511,1.6021,1.6394,1.6746,1.7622,1.8711,1.9816,2.0692,2.1552,2.265,2.2534,2.2159,2.1752,0.0,0.0,0.0,0.0,0.0,2.5529,2.5603,2.5598,0.0,0.0,0.0,0.0,0.0,2.5406,2.5394,2.5339,2.5303,2.5303,2.5303,2.5303,2.5303,2.536,2.538,2.538,2.5437,2.5476,2.5476,2.5476,2.5437,2.538,2.538,2.538,2.537,2.537,2.536,2.5349,2.5407,2.5349,2.5283,0.0,0.0,-2.4534,-2.4885,-2.4786,-2.4654,-2.4654,-2.4654,-2.4114,-2.254,-2.2024,-2.1147,-1.9494,-1.8982,-1.8752,-1.8781,-1.8638,-1.8513,-1.8433,-1.8018,-1.7825,-1.7854,-1.7292,-1.6872,-1.6738,-1.6103,-1.4921,-1.3246,-1.1899,-1.083,-0.9902,-0.748,-0.5609,-0.4162,-0.1186,0.086,0.2135,0.4289,0.6097,0.7603,0.8328,0.9048,0.9666,0.9739,0.8981,0.8075,0.9821,1.1825,1.3497,1.2373,1.2971,1.4278,1.4783,1.4876,1.4752,1.4438,1.4149,1.3868,1.3769,1.3459,1.3326,1.3804,1.4498,1.5192,1.5845,1.6052,1.6393,1.7524,1.7486,1.7841,1.9935,2.03,2.048,2.1007,2.1897,2.2553,2.2659,2.3368,0.0,0.0,2.5174,2.5332,2.5581,2.5548,2.5493,0.0,0.0,0.0,2.5346,2.533,2.5337,2.5406,2.5339,2.5303,2.5303,2.5303,2.5303,2.5303,2.5967,2.6294,2.6313,2.6986,2.7274,2.7274,2.7274,2.6909,2.6294,2.6294,2.6181,2.5996,2.5996,2.592,2.5911,2.6521,2.5982,2.5023,-2.4607,-2.4639,-2.467,-2.4775,-2.4804,-2.4804,-2.4804,-2.4804,-2.42,-2.2526,-2.2163,-2.141,-1.9675,-1.9337,-1.9221,-1.9151,-1.8824,-1.8585,-1.8585,-1.8434,-1.8338,-1.8391,-1.8017,-1.772,-1.7499,-1.7077,-1.6056,-1.4342,-1.3326,-1.2431,-1.1629,-0.8779,-0.6684,-0.5134,-0.1499,0.0725,0.199,0.4623,0.6527,0.7822,0.9018,0.998,1.0782,1.1314,1.0954,1.0225,1.1055,1.2357,1.3609,1.3387,1.3852,1.4613,1.5419,1.5389,1.5104,1.5104,1.4783,1.4406,1.4214,1.4,1.3934,1.4486,1.5203,1.5827,1.6121,1.6768,1.7321,1.7362,1.7864,1.8592,1.9498,1.9934,2.0219,2.0455,2.1341,2.2098,2.2367,2.3469,2.4459,2.5038,2.537,2.5558,2.5603,2.5503,2.5441,2.5406,2.536,0.0,2.587,2.589,2.5726,2.5374,2.5322,2.5495,2.589,2.6294,2.6486,2.6486,2.6833,2.701,2.7029,2.7402,2.7625,2.7719,2.7612,2.7358,2.6998,2.6912,2.6801,2.665,2.665,2.6397,2.6098,2.6892,2.6419,2.5454,-2.4832,-2.4828,-2.4828,-2.4874,-2.4888,-2.4888,-2.4888,-2.4774,-2.4136,-2.2584,-2.225,-2.1587,-1.9994,-1.9824,-1.9813,-1.979,-1.9185,-1.8771,-1.8753,-1.8753,-1.8734,-1.866,-1.8659,-1.8395,-1.7847,-1.7635,-1.6928,-1.5707,-1.4752,-1.4127,-1.3752,-1.0349,-0.7866,-0.6032,-0.1952,0.0752,0.2424,0.5156,0.6948,0.8087,0.9383,1.0773,1.2126,1.2187,1.2223,1.2283,1.3039,1.3385,1.369,1.5139,1.5257,1.5031,1.6034,1.5881,1.5374,1.5812,1.5609,1.518,1.4721,1.4665,1.4864,1.5398,1.6078,1.6578,1.6428,1.7595,1.8347,1.6955,1.8358,1.9608,1.899,1.9573,2.0268,2.0579,2.1036,2.1523,2.2045,0.0,2.4375,2.4551,2.5182,2.5573,2.5567,2.5582,2.5577,2.5577,2.5639,2.6024,2.6755,2.6794,2.6467,2.5717,2.5687,2.6063,2.6794,2.7525,2.789,2.789,2.7765,2.7712,2.7698,2.7607,2.7683,2.7828,2.7651,2.7607,2.7623,2.7444,2.7366,2.7351,2.7351,2.6902,2.6378,2.7187,2.6887,2.6209,-2.4937,-2.4974,-2.503,-2.5182,-2.5222,-2.5222,-2.5222,-2.4657,-2.3851,-2.2853,-2.2086,-2.1196,-2.0088,-1.9983,-1.9914,-1.9802,-1.9676,-1.958,-1.9452,-1.9438,-1.9289,-1.8949,-1.8931,-1.8789,-1.8471,-1.7353,-1.6586,-1.618,-1.4845,-1.4105,-1.3813,-1.1192,-0.8127,-0.476,-0.2053,0.1097,0.4413,0.5855,0.7488,0.9267,1.0641,1.2158,1.3622,1.396,1.409,1.409,1.4219,1.4668,1.5257,1.5504,1.5973,1.647,1.6644,1.6448,1.6176,1.6528,1.6394,1.5938,1.521,1.5415,1.5797,1.5625,1.6849,1.7854,1.694,1.7582,1.8205,1.764,1.8003,1.8548,1.9055,1.9353,1.9932,2.1072,2.1429,2.2125,2.3756,0.0,2.458,2.532,2.548,2.5484,2.5441,2.602,2.642,2.642,2.7093,2.7563,2.7678,2.7698,2.764,2.7505,2.7505,2.7563,2.7698,2.7832,2.789,2.7909,2.8377,2.8602,2.8608,2.908,2.9336,2.9351,2.9336,2.8902,2.8258,2.8225,2.8107,2.796,2.796,2.7787,2.7622,2.843,2.7785,2.6606,-2.5152,-2.5163,-2.5203,-2.5331,-2.4966,-2.4678,-2.4697,-2.3986,-2.3149,-2.2314,-2.1853,-2.124,-2.0323,-2.0218,-2.0201,-2.0136,-2.0098,-2.0012,-1.9884,-1.9767,-1.9625,-1.9444,-1.9429,-1.9265,-1.8945,-1.7951,-1.7411,-1.7271,-1.647,-1.5959,-1.5604,-1.2036,-0.8558,-0.513,-0.0972,0.2792,0.6101,0.7917,0.934,1.0529,1.2221,1.3402,1.425,1.4815,1.505,1.505,1.533,1.562,1.5985,1.6391,1.6648,1.6841,1.7002,1.6825,1.6607,1.6763,1.6686,1.658,1.6604,1.6826,1.7222,1.7801,1.8635,1.9176,1.887,1.9601,2.0162,1.9482,2.0045,2.0644,2.0696,2.0939,2.1339,2.1985,2.2615,0.0,2.4271,2.4718,2.5273,2.6188,2.6213,2.632,2.6761,2.7103,2.7294,2.7294,2.7659,2.8082,2.8525,2.8544,2.8756,2.9236,2.8794,2.8491,2.8396,2.8817,2.8976,2.8865,2.9044,2.9132,2.9133,2.9268,2.9397,2.9532,2.9395,2.9191,2.8933,2.8779,2.8656,2.8587,2.8587,2.8264,2.7897,2.8705,2.8264,2.7365,-2.5341,-2.5341,-2.537,-2.5409,-2.4868,-2.4364,-2.4226,-2.3465,-2.2631,-2.1814,-2.1533,-2.1135,-2.0475,-2.0397,-2.0397,-2.0397,-2.0359,-2.028,-2.0169,-2.0022,-1.9907,-1.979,-1.979,-1.9545,-1.8982,-1.8483,-1.8138,-1.7949,-1.7824,-1.7667,-1.7389,-1.3599,-0.9373,-0.4746,0.0805,0.5259,0.868,1.0281,1.1401,1.2246,1.377,1.4652,1.517,1.5796,1.604,1.6082,1.6402,1.6553,1.6722,1.7302,1.7358,1.7263,1.7522,1.7382,1.7093,1.7109,1.7265,1.7485,1.7829,1.8134,1.8627,1.9618,2.0175,2.0482,2.05,2.1411,2.2014,2.1189,2.1899,2.2588,2.2227,2.2426,2.2738,2.3048,0.0,2.434,2.4651,2.5155,2.5837,2.6776,2.6773,2.7028,2.7892,2.8106,2.8255,2.8467,2.8659,2.9121,2.9929,2.9967,3.0251,3.0855,3.0061,2.9513,2.9292,3.0095,3.0414,3.0262,3.0055,2.9857,2.9671,2.9411,2.9296,2.9289,2.9089,2.9112,2.9289,2.9089,2.8994,2.8994,2.8994,2.8631,2.8154,2.8755,2.8613,2.8172,-2.5486,-2.5486,-2.5486,-2.5486,-2.5432,-2.5123,-2.4326,-2.3508,-2.2673,-2.1808,-2.1007,-2.0472,-2.0418,-2.0398,-2.0398,-2.0398,-2.0398,-2.0385,-2.0377,-2.0353,-2.0193,-1.9821,-1.979,-1.9331,-1.8302,-1.8285,-1.8047,-1.7537,-1.7833,-1.8091,-1.8261,-1.6561,-1.0951,-0.2061,0.3215,0.8449,1.3238,1.2368,1.3071,1.4838,1.509,1.6001,1.7202,1.7508,1.7628,1.7624,1.7473,1.7645,1.7966,1.8025,1.8241,1.8471,1.8508,1.8261,1.8021,1.8069,1.8612,1.903,1.8153,1.8856,1.9812,1.9586,2.0744,2.1684,2.0722,2.1679,2.2538,2.1801,2.2006,2.24,2.2613,2.2667,2.3028,2.4099,0.0,0.0,2.5487,2.5547,2.5832,2.6705,2.6734,2.7022,2.7825,2.8574,2.9352,3.016,3.0968,3.1775,3.2583,3.2622,3.2544,3.2355,3.1558,3.101,3.0751,3.1544,3.194,3.1921,3.1717,3.1235,3.0509,3.024,2.9714,2.904,2.9017,2.9017,2.904,2.9017,2.8994,2.8994,2.8994,2.8957,2.892,2.8975,2.8957,2.892,-2.5499,-2.5499,-2.5503,-2.5553,-2.467,-2.3878,-2.3618,-2.2372,-2.1355,-2.1069,-2.0728,-2.0516,-2.0516,-2.0516,-2.0523,-2.0524,-2.0444,-2.0409,-2.0409,-2.0369,-2.0289,-2.0183,-2.0088,-1.9612,-1.865,-1.8947,-1.8522,-1.7318,-1.8154,-1.8045,-1.6994,-1.4846,-0.9182,-0.0483,0.7249,1.2458,1.5408,1.5306,1.5724,1.654,1.7383,1.7739,1.7829,1.8385,1.8533,1.8412,1.8338,1.835,1.8397,1.8397,1.8473,1.8585,1.8585,1.8865,1.9266,1.9779,2.0484,2.0995,2.0621,2.0914,2.1395,2.171,2.2277,2.2761,2.2683,2.3118,2.3583,2.3719,2.389,2.411,2.4331,2.4413,2.4588,2.5069,0.0,2.5236,2.5581,2.6027,2.6606,2.7452,2.7931,2.8732,3.0121,3.0525,3.1064,3.1891,3.2256,3.2583,3.2872,3.2746,3.2483,3.2089,3.2256,3.2064,3.1458,3.1757,3.1821,3.1663,3.1589,3.137,3.1094,3.0974,3.0503,2.9751,2.9751,2.9751,2.9714,2.9195,2.9287,2.9696,2.92,2.8994,2.8994,2.8994,2.8994,2.8994,-2.557,-2.5561,-2.5578,-2.5615,-2.4414,-2.3388,-2.3222,-2.1909,-2.0857,-2.0609,-2.0575,-2.0562,-2.0537,-2.0539,-2.0547,-2.0535,-2.0449,-2.0394,-2.0395,-2.012,-1.9961,-1.9948,-1.9879,-1.9428,-1.8545,-1.9317,-1.8993,-1.7515,-1.8339,-1.7952,-1.6413,-1.4634,-0.8684,0.0972,1.1147,1.6305,1.7382,1.7463,1.7768,1.8206,1.8878,1.8969,1.8771,1.9249,1.9336,1.9193,1.9173,1.9063,1.8977,1.8977,1.8977,1.9014,1.9217,1.9795,2.0514,2.1074,2.1798,2.2452,2.2452,2.2692,2.2998,2.324,2.3383,2.3563,2.4007,2.4207,2.4454,2.4922,2.511,2.5247,2.5434,2.5493,2.5554,2.5629,2.5634,2.5721,2.5978,2.6474,2.7194,2.8244,2.8791,2.9775,3.1525,3.1698,3.216,3.3237,3.3314,3.3384,3.358,3.3246,3.2901,3.256,3.2998,3.3099,3.2802,3.2567,3.2342,3.2137,3.2137,3.2008,3.177,3.177,3.1329,3.0577,3.0577,3.0577,3.0503,2.9714,2.9714,3.0155,2.9604,2.9237,2.9012,2.9292,2.9237,2.8994,-2.5697,-2.5703,-2.5703,-2.5703,-2.4961,-2.4121,-2.332,-2.2441,-2.1544,-2.0622,-2.0504,-2.0462,-2.0413,-2.0406,-2.0406,-2.0406,-2.0406,-2.0395,-2.0396,-1.9629,-1.9119,-1.8984,-1.8984,-1.8594,-1.7715,-1.9208,-1.9409,-1.8172,-1.8317,-1.7904,-1.6956,-1.6862,-1.0106,0.2435,1.4558,1.9781,1.9445,1.8574,1.8895,1.9946,1.9277,1.953,2.0272,2.0156,2.0103,2.0073,1.9963,1.9865,1.979,1.9809,1.9809,1.9936,2.062,2.1223,2.1721,2.1721,2.2439,2.321,2.321,2.399,2.4579,2.3721,2.3757,2.4063,2.4256,2.4667,2.5019,2.5101,2.5258,2.5441,2.5587,2.5601,2.5611,2.5703,2.5703,2.5994,2.681,2.6859,2.7408,2.9018,2.9138,2.9794,3.1545,3.1718,3.241,3.4083,3.4199,3.4462,3.5066,3.4532,3.42,3.4218,3.3954,3.4211,3.499,3.4211,3.3807,3.3807,3.3807,3.3385,3.2614,3.2614,3.2173,3.1403,3.1403,3.1403,3.1347,3.054,3.021,3.0228,3.021,2.9732,2.9104,2.9934,2.9714,2.8994,-2.5632,-2.5628,-2.5609,-2.5566,-2.4375,-2.3344,-2.3091,-2.1798,-2.0744,-2.0464,-2.0437,-2.0412,-2.0392,-2.0318,-2.026,-2.026,-2.0126,-1.9801,-1.9182,-1.8336,-1.7524,-1.6781,-1.8148,-1.8414,-1.7286,-1.8877,-1.8527,-1.6093,-1.6779,-1.5887,-1.3449,-1.1068,-0.5171,0.3756,1.2625,1.7448,1.8954,1.91,1.9387,1.974,1.9803,1.9977,2.0174,2.0212,2.0174,2.0094,1.9993,1.9928,1.9952,2.0528,2.0701,2.0934,2.2279,2.2821,2.3078,2.3697,2.4099,2.4317,2.4317,2.4568,2.4741,2.4482,2.4482,2.4595,2.4761,2.4946,2.512,2.5277,2.5426,2.5554,2.5598,2.5636,2.5877,2.6504,2.6577,2.683,2.7619,2.8165,2.8651,2.908,3.0183,3.1352,3.2449,3.3103,3.3838,3.4745,3.4653,3.4529,3.4451,3.4292,3.4358,3.4758,3.4687,3.5055,3.5899,3.4504,3.4082,3.4651,3.4082,3.3678,3.344,3.344,3.2999,3.2247,3.2247,3.2247,3.2192,3.1366,3.1366,3.1843,3.1256,3.0889,3.0705,3.0944,3.0522,2.9843,-2.5575,-2.5551,-2.5552,-2.5517,-2.4109,-2.2996,-2.3007,-2.1515,-2.0394,-2.0355,-2.0366,-2.0334,-2.0255,-2.0164,-2.0096,-2.0059,-1.9575,-1.9051,-1.8508,-1.7299,-1.6254,-1.552,-1.6916,-1.7394,-1.6721,-1.8099,-1.7762,-1.5526,-1.5109,-1.4001,-1.2218,-0.8279,-0.2936,0.365,1.0978,1.5562,1.789,1.8726,1.9183,1.9401,1.9736,1.9919,1.9966,2.0158,2.0197,2.018,2.0166,2.0347,2.0643,2.1161,2.1732,2.2421,2.3386,2.3911,2.4274,2.4798,2.5015,2.5077,2.5077,2.5077,2.5077,2.5077,2.4989,2.4972,2.5159,2.5239,2.5309,2.5451,2.5547,2.5703,2.6083,2.619,2.6484,2.734,2.7444,2.7683,2.8424,2.9226,2.9815,3.0106,3.1333,3.2506,3.3333,3.3786,3.4419,3.5343,3.5466,3.5413,3.5205,3.5076,3.518,3.5495,3.5514,3.5917,3.6762,3.511,3.4523,3.499,3.4523,3.4119,3.3807,3.3807,3.3532,3.3073,3.3073,3.3073,3.3018,3.221,3.2173,3.2559,3.2063,3.1678,3.1439,3.1751,3.1164,3.021,-2.5493,-2.5492,-2.5447,-2.5351,-2.4005,-2.2919,-2.2846,-2.1408,-2.0318,-2.026,-2.026,-2.0169,-1.9888,-1.9926,-1.9884,-1.9696,-1.8858,-1.8261,-1.8049,-1.6479,-1.5358,-1.4866,-1.5446,-1.5816,-1.5871,-1.6966,-1.6965,-1.5792,-1.3353,-1.2283,-1.2479,-0.7503,-0.2449,0.2706,0.9644,1.4106,1.6485,1.774,1.8485,1.8919,1.9216,1.9469,1.9697,1.995,2.0203,2.0402,2.0465,2.1034,2.1759,2.1896,2.2906,2.4129,2.4129,2.4652,2.5226,2.5226,2.5362,2.5493,2.5493,2.5493,2.5493,2.5517,2.5324,2.5197,2.5449,2.5493,2.5535,2.5595,2.5661,2.5984,2.6836,2.705,2.736,2.8173,2.8359,2.8651,2.9345,3.0181,3.1003,3.1711,3.2526,3.3353,3.4191,3.4155,3.4585,3.5878,3.6384,3.6656,3.6656,3.6417,3.6303,3.6303,3.6303,3.6652,3.7397,3.5881,3.5119,3.51,3.4954,3.4523,3.3807,3.3807,3.3807,3.3807,3.3807,3.3807,3.3733,3.3018,3.2724,3.2724,3.2724,3.2265,3.1696,3.2449,3.1733,3.0411,-2.5425,-2.5299,-2.4972,-2.4285,-2.321,-2.2235,-2.1605,-2.0614,-1.9928,-1.9909,-1.9909,-1.9652,-1.8968,-1.9374,-1.942,-1.8759,-1.8783,-1.8058,-1.6137,-1.6084,-1.5384,-1.3731,-1.45,-1.4669,-1.4085,-1.5478,-1.5515,-1.4114,-1.1957,-1.0835,-1.0627,-0.4633,-0.0081,0.3309,0.892,1.3024,1.5883,1.7246,1.7885,1.8055,1.868,1.9075,1.9342,1.9665,2.0355,2.1172,2.1239,2.1878,2.2792,2.3504,2.4379,2.5182,2.5182,2.5293,2.5429,2.5429,2.5459,2.5493,2.5493,2.5493,2.5503,2.5561,2.55,2.5422,2.5488,2.5547,2.5573,2.5601,2.6184,2.6738,2.688,2.7481,2.8193,2.8934,2.959,3.028,3.1118,3.189,3.2447,3.2622,3.3391,3.415,3.4773,3.5581,3.6208,3.6491,3.6443,3.638,3.638,3.6342,3.6303,3.6303,3.6303,3.6376,3.656,3.6193,3.6028,3.6009,3.4688,3.3972,3.3807,3.3807,3.3807,3.3807,3.3807,3.3807,3.3788,3.3605,3.3532,3.3532,3.3532,3.344,3.3293,3.3476,3.2926,3.199,-2.4645,-2.446,-2.4321,-2.4328,-2.3202,-2.2054,-2.1298,-2.0399,-1.979,-1.979,-1.979,-1.9465,-1.8598,-1.9061,-1.9162,-1.8544,-1.8093,-1.7187,-1.5603,-1.5267,-1.4496,-1.3035,-1.362,-1.3498,-1.2484,-1.2825,-1.2753,-1.2232,-1.0213,-0.8461,-0.6838,-0.2094,0.2097,0.5691,0.9215,1.2183,1.4726,1.6339,1.7126,1.7342,1.8011,1.8409,1.8644,1.9243,2.0101,2.1045,2.1347,2.238,2.3744,2.4627,2.5221,2.5598,2.5598,2.5598,2.5598,2.5598,2.557,2.5559,2.5559,2.5524,2.5508,2.5544,2.5535,2.5519,2.5572,2.5599,2.5722,2.6186,2.6621,2.7196,2.7981,2.8466,2.9109,3.0295,3.0854,3.1391,3.221,3.2998,3.3526,3.3526,3.4175,3.4795,3.5205,3.647,3.7225,3.7082,3.7319,3.7441,3.7441,3.7441,3.7441,3.7441,3.7441,3.7441,3.7441,3.7055,3.6853,3.6835,3.5165,3.4376,3.4376,3.4376,3.4614,3.4963,3.4559,3.4376,3.4357,3.3972,3.3807,3.3807,3.3807,3.3807,3.3807,3.3807,3.3293,3.2485,-2.3534,-2.3373,-2.345,-2.409,-2.2984,-2.1768,-2.1073,-2.0258,-1.9695,-1.9651,-1.9651,-1.9288,-1.8331,-1.8515,-1.8527,-1.8142,-1.717,-1.6251,-1.5418,-1.4492,-1.3513,-1.258,-1.2803,-1.235,-1.1057,-1.036,-1.022,-1.0613,-0.8311,-0.5862,-0.3344,-0.0087,0.3874,0.824,0.9809,1.1641,1.3674,1.5533,1.6474,1.6866,1.7412,1.7757,1.8046,1.8981,1.9936,2.0877,2.1526,2.2914,2.4557,2.5314,2.5629,2.5661,2.5661,2.5661,2.5661,2.5661,2.5633,2.5573,2.5573,2.5547,2.5493,2.5493,2.5484,2.5541,2.5829,2.5726,2.5854,2.6772,2.7032,2.7631,2.9343,2.9591,3.0055,3.1719,3.199,3.224,3.3031,3.3872,3.4397,3.4351,3.4966,3.5491,3.5888,3.7195,3.7942,3.7709,3.8322,3.8707,3.8707,3.8707,3.8634,3.8505,3.8487,3.8432,3.8303,3.7624,3.7276,3.7276,3.5899,3.521,3.521,3.521,3.5624,3.6266,3.555,3.509,3.4851,3.4174,3.3762,3.3578,3.3578,3.3578,3.3578,3.368,3.3331,3.2724,-2.2508,-2.2346,-2.2013,-2.1451,-2.1009,-2.047,-1.969,-1.9453,-1.925,-1.8972,-1.9046,-1.8726,-1.7646,-1.7024,-1.6534,-1.6131,-1.6396,-1.597,-1.4483,-1.4241,-1.3595,-1.2321,-1.2023,-1.1277,-0.9953,-1.0097,-1.0211,-1.0281,-0.6127,-0.3867,-0.3311,0.0652,0.4777,0.892,1.0007,1.1722,1.3866,1.5593,1.6474,1.6841,1.7207,1.7682,1.8287,1.9452,2.0584,2.1694,2.2816,2.3984,2.5054,2.5404,2.5526,2.5535,2.5535,2.5535,2.5535,2.5535,2.5531,2.5503,2.5503,2.5517,2.5493,2.5493,2.5465,2.5628,2.6461,2.6067,2.5756,2.6651,2.7425,2.8435,3.0056,3.035,3.0868,3.249,3.2755,3.3051,3.3904,3.4776,3.5225,3.5018,3.5861,3.6764,3.7508,3.82,3.8584,3.8542,3.8634,3.8707,3.8707,3.8707,3.8377,3.7661,3.7643,3.7312,3.6633,3.6523,3.645,3.645,3.6229,3.6119,3.6119,3.6119,3.6193,3.6285,3.6174,3.5506,3.4467,3.4359,3.3674,3.2681,3.2681,3.2681,3.2745,3.3136,3.3421,3.3623,-2.1451,-2.1295,-2.1047,-2.064,-2.0431,-1.9971,-1.8906,-1.8838,-1.886,-1.8699,-1.8735,-1.8271,-1.694,-1.6185,-1.5707,-1.5447,-1.5799,-1.5499,-1.4165,-1.3756,-1.3147,-1.2195,-1.1322,-1.028,-0.9058,-0.8633,-0.7342,-0.5186,-0.3354,-0.1705,-0.0131,0.3026,0.5871,0.8399,1.0213,1.1885,1.348,1.5271,1.6123,1.6301,1.6799,1.7429,1.8181,1.9406,2.0728,2.2112,2.3533,2.4505,2.512,2.5244,2.5383,2.5493,2.5493,2.5493,2.5493,2.5493,2.5463,2.5447,2.5447,2.5427,2.5499,2.5983,2.6086,2.6311,2.7205,2.7125,2.7098,2.8009,2.8476,2.9086,3.0285,3.0859,3.1549,3.2711,3.3314,3.393,3.4795,3.5119,3.5293,3.5335,3.6545,3.7448,3.7664,3.8302,3.8707,3.8707,3.8707,3.8707,3.8707,3.8707,3.8542,3.8175,3.8175,3.7991,3.7643,3.7643,3.7485,3.7212,3.7485,3.7404,3.6964,3.6964,3.7221,3.7624,3.7165,3.6637,3.6067,3.5107,3.425,3.3498,3.3069,3.2713,3.2517,3.2745,3.3075,3.3447]}]]